[[{"header":{"parameterUnit":"m.s-1","parameterCategory":1,"la1":31.0,"la2":29.5877,"lo1":-88.7671,"lo2":-86.6584,"dy":0.0162,"dx":0.0185,"nx":115,"ny":88,"refTime":"2024-07-20T18:00:00:Z","depth":0,"parameterNumber":2,"parameterNumberName":"U-component_of_WINDS"},"data":[0.0,0.0,0.0,0.0,0.0,0.0,0.0,0.0,0.0,0.0,0.0,0.0,0.0,0.0,0.0,0.0,0.0,0.0,0.0,0.0,0.0,0.0,0.0,0.0,0.0,0.0,0.0,0.0,0.0,0.0,0.0,0.0,0.0,0.0,0.0,0.0,0.0,0.0,0.0,0.0,0.0,0.0,0.0,0.0,0.0,0.0,0.0,0.0,0.0,0.0,0.0,0.0,0.0,0.0,0.0,0.0,0.0,0.0,0.0,0.0,0.0,0.0,0.0,0.0,0.0,0.0,0.0,0.0,0.0,0.0,0.0,0.0,0.0,0.0,0.0,0.0,0.0,0.0,0.0,0.0,0.0,0.0,0.0,0.0,0.0,0.0,0.0,0.0,0.0,0.0,0.0,0.0,0.0,0.0,0.0,0.0,0.0,0.0,0.0,0.0,0.0,0.0,0.0,0.0,0.0,0.0,0.0,0.0,0.0,0.0,0.0,0.0,0.0,0.0,0.0,0.0,0.0,0.0,0.0,0.0,0.0,0.0,0.0,0.0,0.0,0.0,0.0,0.0,0.0,0.0,0.0,0.0,0.0,0.0,0.0,0.0,0.0,0.0,0.0,0.0,0.0,0.0,0.0,0.0,0.0,0.0,0.0,0.0,0.0,0.0,0.0,0.0,0.0,0.0,0.0,0.0,0.0,0.0,0.0,0.0,0.0,0.0,0.0,0.0,0.0,0.0,0.0,0.0,0.0,0.0,0.0,0.0,0.0,0.0,0.0,0.0,0.0,0.0,0.0,0.0,0.0,0.0,0.0,0.0,0.0,0.0,0.0,0.0,0.0,0.0,0.0,0.0,0.0,0.0,0.0,0.0,0.0,0.0,0.0,0.0,0.0,0.0,0.0,0.0,0.0,0.0,0.0,0.0,0.0,0.0,0.0,0.0,0.0,0.0,0.0,0.0,0.0,0.0,0.0,0.0,0.0,0.0,0.0,0.0,0.0,0.0,0.0,0.0,0.0,0.0,0.0,0.0,0.0,0.0,0.0,0.0,0.0,0.0,0.0,0.0,0.0,0.0,0.0,0.0,0.0,0.0,0.0,0.0,0.0,0.0,0.0,0.0,0.0,0.0,0.0,0.0,0.0,0.0,0.0,0.0,0.0,0.0,0.0,0.0,0.0,0.0,0.0,0.0,0.0,0.0,0.0,0.0,0.0,0.0,0.0,0.0,0.0,0.0,0.0,0.0,0.0,0.0,0.0,0.0,0.0,0.0,0.0,0.0,0.0,0.0,0.0,0.0,0.0,0.0,0.0,0.0,0.0,0.0,0.0,0.0,0.0,0.0,0.0,0.0,0.0,0.0,0.0,0.0,0.0,0.0,0.0,0.0,0.0,0.0,0.0,0.0,0.0,0.0,0.0,0.0,0.0,0.0,0.0,0.0,0.0,0.0,0.0,0.0,0.0,0.0,0.0,0.0,0.0,0.0,0.0,0.0,0.0,0.0,0.0,0.0,0.0,0.0,0.0,0.0,0.0,0.0,0.0,0.0,0.0,0.0,0.0,0.0,0.0,0.0,0.0,0.0,0.0,0.0,0.0,0.0,0.0,0.0,0.0,0.0,0.0,0.0,0.0,0.0,0.0,0.0,0.0,0.0,0.0,0.0,0.0,0.0,0.0,0.0,0.0,0.0,0.0,0.0,0.0,0.0,0.0,0.0,0.0,0.0,0.0,0.0,0.0,0.0,0.0,0.0,0.0,0.0,0.0,0.0,0.0,0.0,0.0,0.0,0.0,0.0,0.0,0.0,0.0,0.0,0.0,0.0,0.0,0.0,0.0,0.0,0.0,0.0,0.0,0.0,0.0,0.0,0.0,0.0,0.0,0.0,0.0,0.0,0.0,0.0,0.0,0.0,0.0,0.0,0.0,0.0,0.0,0.0,0.0,0.0,0.0,0.0,0.0,0.0,0.0,0.0,0.0,0.0,0.0,0.0,0.0,0.0,0.0,0.0,0.0,0.0,0.0,0.0,0.0,0.0,0.0,0.0,0.0,0.0,0.0,0.0,0.0,0.0,0.0,0.0,0.0,0.0,0.0,0.0,0.0,0.0,0.0,0.0,0.0,0.0,0.0,0.0,0.0,0.0,0.0,0.0,0.0,0.0,0.0,0.0,0.0,0.0,0.0,0.0,0.0,0.0,0.0,0.0,0.0,0.0,0.0,0.0,0.0,0.0,0.0,0.0,0.0,0.0,0.0,0.0,0.0,0.0,0.0,0.0,0.0,0.0,0.0,0.0,0.0,0.0,0.0,0.0,0.0,0.0,0.0,0.0,0.0,0.0,0.0,0.0,0.0,0.0,0.0,0.0,0.0,0.0,0.0,0.0,0.0,0.0,0.0,0.0,0.0,0.0,0.0,0.0,0.0,0.0,0.0,0.0,0.0,0.0,0.0,0.0,0.0,0.0,0.0,0.0,0.0,0.0,0.0,0.0,0.0,0.0,0.0,0.0,0.0,0.0,0.0,0.0,0.0,0.0,0.0,0.0,0.0,0.0,0.0,0.0,0.0,0.0,0.0,0.0,0.0,0.0,0.0,0.0,0.0,0.0,0.0,0.0,0.0,0.0,0.0,0.0,0.0,0.0,0.0,0.0,0.0,0.0,0.0,0.0,0.0,0.0,0.0,0.0,0.0,0.0,0.0,0.0,0.0,0.0,0.0,0.0,0.0,0.0,0.0,0.0,0.0,0.0,0.0,0.0,0.0,0.0,0.0,0.0,0.0,0.0,0.0,0.0,0.0,0.0,0.0,0.0,0.0,0.0,0.0,0.0,0.0,0.0,0.0,0.0,0.0,0.0,0.0,0.0,0.0,0.0,0.0,0.0,0.0,0.0,0.0,0.0,0.0,0.0,0.0,0.0,0.0,0.0,0.0,0.0,0.0,0.0,0.0,0.0,0.0,0.0,0.0,0.0,0.0,0.0,0.0,0.0,0.0,0.0,0.0,0.0,0.0,0.0,0.0,0.0,0.0,0.0,0.0,0.0,0.0,0.0,0.0,0.0,0.0,0.0,0.0,0.0,0.0,0.0,0.0,0.0,0.0,0.0,0.0,0.0,0.0,0.0,0.0,0.0,0.0,0.0,0.0,0.0,0.0,0.0,0.0,0.0,0.0,0.0,0.0,0.0,0.0,0.0,0.0,0.0,0.0,0.0,0.0,0.0,0.0,0.0,0.0,0.0,0.0,0.0,0.0,0.0,0.0,0.0,0.0,0.0,0.0,0.0,0.0,0.0,0.0,0.0,0.0,0.0,0.0,0.0,0.0,0.0,0.0,0.0,0.0,0.0,0.0,0.0,0.0,0.0,0.0,0.0,0.0,0.0,0.0,0.0,0.0,0.0,0.0,0.0,0.0,0.0,0.0,0.0,0.0,0.0,0.0,0.0,0.0,0.0,0.0,0.0,0.0,0.0,0.0,0.0,0.0,0.0,0.0,0.0,0.0,0.0,0.0,0.0,0.0,0.0,0.0,0.0,0.0,0.0,0.0,0.0,0.0,0.0,0.0,0.0,0.0,0.0,0.0,0.0,0.0,0.0,0.0,0.0,0.0,0.0,0.0,0.0,0.0,0.0,0.0,0.0,0.0,0.0,0.0,0.0,0.0,0.0,0.0,0.0,0.0,0.0,0.0,0.0,0.0,0.0,0.0,0.0,0.0,0.0,0.0,0.0,0.0,0.0,0.0,0.0,0.0,0.0,0.0,0.0,0.0,0.0,0.0,0.0,0.0,0.0,0.0,0.0,0.0,0.0,0.0,0.0,0.0,0.0,0.0,0.0,0.0,0.0,0.0,0.0,0.0,0.0,0.0,0.0,0.0,0.0,0.0,0.0,0.0,0.0,0.0,0.0,0.0,0.0,0.0,0.0,0.0,0.0,0.0,0.0,0.0,0.0,0.0,0.0,0.0,0.0,0.0,0.0,0.0,0.0,0.0,0.0,0.0,0.0,0.0,0.0,0.0,0.0,0.0,0.0,0.0,0.0,0.0,0.0,0.0,0.0,0.0,0.0,0.0,0.0,0.0,0.0,0.0,0.0,0.0,0.0,0.0,0.0,0.0,0.0,0.0,0.0,0.0,0.0,0.0,0.0,0.0,0.0,0.0,0.0,0.0,0.0,0.0,0.0,0.0,0.0,0.0,0.0,0.0,0.0,0.0,0.0,0.0,0.0,0.0,0.0,0.0,0.0,0.0,0.0,0.0,0.0,0.0,0.0,0.0,0.0,0.0,0.0,0.0,0.0,-1.4091,0.0,0.0,0.0,0.0,0.0,0.0,0.0,0.0,0.0,0.0,0.0,0.0,0.0,0.0,0.0,0.0,0.0,0.0,0.0,0.0,0.0,0.0,0.0,0.0,0.0,0.0,0.0,0.0,0.0,0.0,0.0,0.0,0.0,0.0,0.0,0.0,0.0,0.0,0.0,0.0,0.0,0.0,0.0,0.0,0.0,0.0,0.0,0.0,0.0,0.0,0.0,0.0,0.0,0.0,0.0,0.0,0.0,0.0,0.0,0.0,0.0,0.0,0.0,0.0,0.0,0.0,0.0,0.0,0.0,0.0,0.0,0.0,0.0,0.0,0.0,0.0,0.0,0.0,0.0,0.0,0.0,0.0,0.0,0.0,0.0,0.0,0.0,0.0,0.0,0.0,0.0,0.0,0.0,0.0,0.0,0.0,0.0,0.0,0.0,0.0,0.0,0.0,0.0,0.0,0.0,0.0,0.0,0.0,0.0,0.0,-1.4904,-1.468,-1.4717,-1.4603,-1.4281,0.0,0.0,0.0,0.0,0.0,0.0,0.0,0.0,0.0,0.0,0.0,0.0,0.0,0.0,0.0,0.0,0.0,0.0,0.0,0.0,0.0,0.0,0.0,0.0,0.0,0.0,0.0,0.0,0.0,0.0,0.0,0.0,0.0,0.0,0.0,0.0,0.0,0.0,0.0,0.0,0.0,0.0,0.0,0.0,0.0,0.0,0.0,0.0,0.0,0.0,0.0,0.0,0.0,0.0,0.0,0.0,0.0,0.0,0.0,0.0,0.0,0.0,0.0,0.0,0.0,0.0,0.0,0.0,0.0,0.0,0.0,0.0,0.0,0.0,0.0,0.0,0.0,0.0,0.0,0.0,0.0,0.0,0.0,0.0,0.0,0.0,0.0,0.0,0.0,0.0,0.0,0.0,0.0,0.0,0.0,0.0,0.0,0.0,0.0,0.0,0.0,0.0,0.0,0.0,0.0,0.0,0.0,0.0,0.0,0.0,0.0,0.0,-1.5532,-1.5148,-1.4435,0.0,0.0,0.0,0.0,0.0,0.0,0.0,0.0,0.0,0.0,0.0,0.0,0.0,0.0,0.0,0.0,0.0,0.0,0.0,0.0,0.0,0.0,0.0,0.0,0.0,0.0,0.0,0.0,0.0,0.0,0.0,0.0,0.0,0.0,0.0,0.0,0.0,0.0,0.0,0.0,0.0,0.0,0.0,0.0,0.0,0.0,0.0,0.0,0.0,0.0,0.0,0.0,0.0,0.0,0.0,0.0,0.0,0.0,0.0,0.0,0.0,0.0,0.0,0.0,0.0,0.0,0.0,0.0,0.0,0.0,0.0,0.0,0.0,0.0,0.0,0.0,0.0,0.0,0.0,0.0,0.0,0.0,0.0,0.0,0.0,0.0,0.0,0.0,0.0,0.0,0.0,0.0,0.0,0.0,0.0,0.0,0.0,0.0,0.0,0.0,0.0,0.0,0.0,0.0,0.0,0.0,0.0,0.0,0.0,0.0,-1.6535,-1.6642,-1.6031,0.0,-1.4477,0.0,0.0,0.0,0.0,0.0,0.0,0.0,0.0,0.0,0.0,0.0,0.0,0.0,0.0,0.0,0.0,0.0,0.0,0.0,0.0,0.0,0.0,0.0,0.0,0.0,0.0,0.0,0.0,0.0,0.0,0.0,0.0,0.0,0.0,0.0,0.0,0.0,0.0,0.0,0.0,0.0,0.0,0.0,0.0,0.0,0.0,0.0,0.0,0.0,0.0,0.0,0.0,0.0,0.0,0.0,0.0,0.0,0.0,0.0,0.0,0.0,0.0,0.0,0.0,0.0,0.0,0.0,0.0,0.0,0.0,0.0,0.0,0.0,0.0,0.0,0.0,0.0,0.0,0.0,0.0,0.0,0.0,0.0,0.0,0.0,0.0,0.0,0.0,0.0,0.0,0.0,0.0,0.0,0.0,0.0,0.0,0.0,0.0,0.0,0.0,0.0,0.0,0.0,0.0,0.0,0.0,0.0,0.0,0.0,0.0,-1.796,-1.7638,-1.646,-1.5635,0.0,0.0,0.0,0.0,0.0,0.0,0.0,0.0,0.0,0.0,0.0,0.0,0.0,0.0,0.0,0.0,0.0,0.0,0.0,0.0,0.0,0.0,0.0,0.0,0.0,0.0,0.0,0.0,0.0,0.0,0.0,0.0,0.0,0.0,0.0,0.0,0.0,0.0,0.0,0.0,0.0,0.0,0.0,0.0,0.0,0.0,0.0,0.0,0.0,0.0,0.0,0.0,0.0,0.0,0.0,0.0,0.0,0.0,0.0,0.0,0.0,0.0,0.0,0.0,0.0,0.0,0.0,0.0,0.0,0.0,0.0,0.0,0.0,0.0,0.0,0.0,0.0,0.0,0.0,0.0,0.0,0.0,0.0,0.0,0.0,0.0,0.0,0.0,0.0,0.0,0.0,0.0,0.0,0.0,0.0,0.0,0.0,0.0,0.0,0.0,0.0,0.0,0.0,0.0,0.0,0.0,0.0,0.0,0.0,0.0,-1.9146,-1.8949,-1.8257,-1.6983,-1.6146,-1.5859,0.0,0.0,0.0,0.0,0.0,0.0,0.0,0.0,0.0,0.0,0.0,0.0,0.0,0.0,0.0,0.0,0.0,0.0,0.0,0.0,0.0,0.0,0.0,0.0,0.0,0.0,0.0,0.0,0.0,0.0,0.0,0.0,0.0,0.0,0.0,0.0,0.0,0.0,0.0,0.0,0.0,0.0,0.0,0.0,0.0,0.0,0.0,0.0,0.0,0.0,0.0,0.0,0.0,0.0,0.0,0.0,0.0,0.0,0.0,0.0,0.0,0.0,0.0,0.0,0.0,0.0,0.0,0.0,0.0,0.0,0.0,0.0,0.0,0.0,0.0,0.0,0.0,0.0,0.0,0.0,0.0,0.0,0.0,0.0,0.0,0.0,0.0,0.0,0.0,0.0,0.0,0.0,0.0,0.0,0.0,0.0,0.0,0.0,0.0,0.0,0.0,0.0,0.0,0.0,0.0,0.0,0.0,0.0,-1.9202,-1.9323,-1.9105,-1.8521,-1.7599,-1.6784,0.0,0.0,0.0,0.0,0.0,0.0,0.0,0.0,0.0,0.0,0.0,0.0,0.0,0.0,0.0,0.0,0.0,0.0,0.0,0.0,0.0,0.0,0.0,0.0,0.0,0.0,0.0,0.0,0.0,0.0,0.0,0.0,0.0,0.0,0.0,0.0,0.0,0.0,0.0,0.0,0.0,0.0,0.0,0.0,0.0,0.0,0.0,0.0,0.0,0.0,0.0,0.0,0.0,0.0,0.0,0.0,0.0,0.0,0.0,0.0,0.0,0.0,0.0,0.0,0.0,0.0,0.0,0.0,0.0,0.0,0.0,0.0,0.0,0.0,0.0,0.0,0.0,0.0,0.0,0.0,0.0,0.0,0.0,0.0,0.0,0.0,0.0,0.0,0.0,0.0,0.0,0.0,0.0,0.0,0.0,0.0,0.0,0.0,0.0,0.0,0.0,0.0,0.0,0.0,0.0,0.0,0.0,0.0,0.0,-1.9311,-1.9546,-1.9576,-1.9367,-1.8565,-1.7697,0.0,0.0,0.0,0.0,0.0,0.0,0.0,0.0,0.0,0.0,0.0,0.0,0.0,0.0,0.0,0.0,0.0,0.0,0.0,0.0,0.0,0.0,0.0,0.0,0.0,0.0,0.0,0.0,0.0,0.0,0.0,0.0,0.0,0.0,0.0,0.0,0.0,0.0,0.0,0.0,0.0,0.0,0.0,0.0,0.0,0.0,0.0,0.0,0.0,0.0,0.0,0.0,0.0,0.0,0.0,0.0,0.0,0.0,0.0,0.0,0.0,0.0,0.0,0.0,0.0,0.0,0.0,0.0,0.0,0.0,0.0,0.0,0.0,0.0,0.0,0.0,0.0,0.0,0.0,0.0,0.0,0.0,0.0,0.0,0.0,0.0,0.0,0.0,0.0,0.0,0.0,0.0,0.0,0.0,0.0,0.0,0.0,0.0,0.0,0.0,0.0,0.0,0.0,0.0,0.0,0.0,0.0,0.0,0.0,-1.9522,0.0,-1.9856,-1.9877,-1.9073,-1.8232,0.0,0.0,0.0,0.0,0.0,0.0,0.0,0.0,0.0,0.0,0.0,0.0,0.0,0.0,0.0,0.0,0.0,0.0,0.0,0.0,0.0,0.0,0.0,0.0,0.0,0.0,0.0,0.0,0.0,0.0,0.0,0.0,0.0,0.0,0.0,0.0,0.0,0.0,0.0,0.0,0.0,0.0,0.0,0.0,0.0,0.0,0.0,0.0,0.0,0.0,0.0,0.0,0.0,0.0,0.0,0.0,0.0,0.0,0.0,0.0,0.0,0.0,0.0,0.0,0.0,0.0,0.0,0.0,0.0,0.0,0.0,0.0,0.0,0.0,0.0,0.0,0.0,0.0,0.0,0.0,0.0,0.0,0.0,0.0,0.0,0.0,0.0,0.0,0.0,0.0,0.0,0.0,0.0,0.0,0.0,0.0,0.0,0.0,0.0,0.0,0.0,0.0,0.0,0.0,0.0,0.0,0.0,0.0,-1.9424,-1.9801,-1.9849,-1.9903,-1.9896,-1.9163,-1.8313,0.0,0.0,0.0,0.0,0.0,0.0,0.0,0.0,0.0,0.0,0.0,0.0,0.0,0.0,0.0,0.0,0.0,0.0,0.0,0.0,0.0,0.0,0.0,0.0,0.0,0.0,0.0,0.0,0.0,0.0,0.0,0.0,0.0,0.0,0.0,0.0,0.0,0.0,0.0,0.0,0.0,0.0,0.0,0.0,0.0,0.0,0.0,0.0,0.0,0.0,0.0,0.0,0.0,0.0,0.0,0.0,0.0,0.0,0.0,0.0,0.0,0.0,0.0,0.0,0.0,0.0,0.0,0.0,0.0,0.0,0.0,0.0,0.0,0.0,0.0,0.0,0.0,0.0,0.0,0.0,0.0,0.0,0.0,0.0,0.0,0.0,0.0,0.0,0.0,0.0,0.0,0.0,0.0,0.0,0.0,0.0,0.0,0.0,0.0,0.0,0.0,0.0,0.0,0.0,0.0,0.0,0.0,0.0,0.0,-2.0684,-2.012,-2.0106,-2.0677,-1.991,-1.9081,0.0,0.0,0.0,0.0,0.0,0.0,0.0,0.0,0.0,0.0,0.0,0.0,0.0,0.0,0.0,0.0,0.0,0.0,0.0,0.0,0.0,0.0,0.0,0.0,0.0,0.0,0.0,0.0,0.0,0.0,0.0,0.0,0.0,0.0,0.0,0.0,0.0,0.0,0.0,0.0,0.0,0.0,0.0,0.0,0.0,0.0,0.0,0.0,0.0,0.0,0.0,0.0,0.0,0.0,0.0,0.0,0.0,0.0,0.0,0.0,0.0,0.0,0.0,0.0,0.0,0.0,0.0,0.0,0.0,0.0,0.0,0.0,0.0,0.0,0.0,0.0,0.0,0.0,0.0,0.0,0.0,0.0,0.0,0.0,0.0,0.0,0.0,0.0,0.0,0.0,0.0,0.0,0.0,0.0,0.0,0.0,0.0,0.0,0.0,0.0,0.0,0.0,0.0,0.0,0.0,0.0,0.0,0.0,0.0,-2.1363,-2.0886,-2.0875,-2.1414,-2.0607,-1.9782,-1.8988,0.0,0.0,0.0,0.0,0.0,0.0,0.0,0.0,0.0,0.0,0.0,0.0,0.0,0.0,0.0,0.0,0.0,0.0,0.0,0.0,0.0,0.0,0.0,0.0,0.0,0.0,0.0,0.0,0.0,0.0,0.0,0.0,0.0,0.0,0.0,0.0,0.0,0.0,0.0,0.0,0.0,0.0,0.0,0.0,0.0,0.0,0.0,0.0,0.0,0.0,0.0,0.0,0.0,0.0,0.0,0.0,0.0,0.0,0.0,0.0,0.0,0.0,0.0,0.0,0.0,0.0,0.0,0.0,0.0,0.0,0.0,0.0,0.0,0.0,0.0,0.0,0.0,0.0,0.0,0.0,0.0,0.0,0.0,0.0,0.0,0.0,0.0,0.0,0.0,0.0,0.0,0.0,0.0,0.0,0.0,0.0,0.0,0.0,0.0,0.0,0.0,0.0,0.0,0.0,0.0,0.0,0.0,0.0,-2.1879,-2.2039,-2.207,-2.2049,-2.122,-2.042,0.0,0.0,0.0,0.0,0.0,0.0,0.0,0.0,0.0,0.0,0.0,0.0,0.0,0.0,0.0,0.0,0.0,0.0,0.0,0.0,0.0,0.0,0.0,0.0,0.0,0.0,0.0,0.0,0.0,0.0,0.0,0.0,0.0,0.0,0.0,0.0,0.0,0.0,0.0,0.0,0.0,0.0,0.0,0.0,0.0,0.0,0.0,0.0,0.0,0.0,0.0,0.0,0.0,0.0,0.0,0.0,0.0,0.0,0.0,0.0,0.0,0.0,0.0,0.0,0.0,0.0,0.0,0.0,0.0,0.0,0.0,0.0,0.0,0.0,0.0,0.0,0.0,0.0,0.0,0.0,0.0,0.0,0.0,0.0,0.0,0.0,0.0,0.0,0.0,0.0,0.0,0.0,0.0,0.0,0.0,0.0,0.0,0.0,0.0,0.0,0.0,0.0,0.0,0.0,0.0,0.0,0.0,0.0,0.0,-2.1715,-2.2813,-2.318,-2.2665,-2.135,-2.0535,0.0,0.0,0.0,0.0,0.0,0.0,0.0,0.0,0.0,0.0,0.0,0.0,0.0,0.0,0.0,0.0,0.0,0.0,0.0,0.0,0.0,0.0,0.0,0.0,0.0,0.0,0.0,0.0,0.0,0.0,0.0,0.0,0.0,0.0,0.0,0.0,0.0,0.0,0.0,0.0,0.0,0.0,0.0,0.0,0.0,0.0,0.0,0.0,0.0,0.0,0.0,0.0,0.0,0.0,0.0,0.0,0.0,0.0,0.0,0.0,0.0,0.0,0.0,0.0,0.0,0.0,0.0,0.0,0.0,0.0,0.0,0.0,0.0,0.0,0.0,0.0,0.0,0.0,0.0,0.0,0.0,0.0,0.0,0.0,0.0,0.0,0.0,0.0,0.0,0.0,0.0,0.0,0.0,0.0,0.0,0.0,0.0,0.0,0.0,0.0,0.0,0.0,0.0,0.0,0.0,0.0,0.0,0.0,-2.1115,-2.1441,-2.2652,-2.3175,-2.3025,-2.2008,-2.1241,0.0,0.0,0.0,0.0,0.0,0.0,0.0,0.0,0.0,0.0,0.0,0.0,0.0,0.0,0.0,0.0,0.0,0.0,0.0,0.0,0.0,0.0,0.0,0.0,0.0,0.0,0.0,0.0,0.0,0.0,0.0,0.0,0.0,0.0,0.0,0.0,0.0,0.0,0.0,0.0,0.0,0.0,0.0,0.0,0.0,0.0,0.0,0.0,0.0,0.0,0.0,0.0,0.0,0.0,0.0,0.0,0.0,0.0,0.0,0.0,0.0,0.0,0.0,0.0,0.0,0.0,0.0,0.0,0.0,0.0,0.0,0.0,0.0,0.0,0.0,0.0,0.0,0.0,0.0,0.0,0.0,0.0,0.0,0.0,0.0,0.0,0.0,0.0,0.0,0.0,0.0,0.0,0.0,0.0,0.0,0.0,0.0,0.0,0.0,0.0,0.0,0.0,0.0,0.0,0.0,0.0,0.0,0.0,-2.0419,-2.1169,-2.1959,-2.2598,-2.3122,-2.2761,-2.2175,0.0,0.0,0.0,0.0,0.0,0.0,0.0,0.0,0.0,0.0,0.0,0.0,0.0,0.0,0.0,0.0,0.0,0.0,0.0,0.0,0.0,0.0,0.0,0.0,0.0,0.0,0.0,0.0,0.0,0.0,0.0,0.0,0.0,0.0,0.0,0.0,0.0,0.0,0.0,0.0,0.0,0.0,0.0,0.0,0.0,0.0,0.0,0.0,0.0,0.0,0.0,0.0,0.0,0.0,0.0,0.0,0.0,0.0,0.0,0.0,0.0,0.0,0.0,0.0,0.0,0.0,0.0,0.0,0.0,0.0,0.0,0.0,0.0,0.0,0.0,0.0,0.0,0.0,0.0,0.0,0.0,0.0,0.0,0.0,0.0,0.0,0.0,0.0,0.0,0.0,0.0,0.0,0.0,0.0,0.0,0.0,0.0,0.0,0.0,0.0,0.0,0.0,0.0,0.0,0.0,0.0,0.0,0.0,-2.02,-2.1018,-2.1675,-2.2294,-2.2935,-2.2579,-2.1925,0.0,0.0,0.0,0.0,0.0,0.0,0.0,0.0,0.0,0.0,0.0,0.0,0.0,0.0,0.0,0.0,0.0,0.0,0.0,0.0,0.0,0.0,0.0,0.0,0.0,0.0,0.0,0.0,0.0,0.0,0.0,0.0,0.0,0.0,0.0,0.0,0.0,0.0,0.0,0.0,0.0,0.0,0.0,0.0,0.0,0.0,0.0,0.0,-2.0175,0.0,0.0,0.0,0.0,0.0,0.0,0.0,0.0,0.0,0.0,0.0,0.0,0.0,0.0,0.0,0.0,0.0,0.0,0.0,0.0,0.0,0.0,0.0,0.0,0.0,0.0,0.0,0.0,0.0,0.0,0.0,0.0,0.0,0.0,0.0,0.0,0.0,0.0,0.0,0.0,0.0,0.0,0.0,0.0,0.0,0.0,0.0,0.0,0.0,0.0,0.0,0.0,0.0,0.0,0.0,0.0,0.0,0.0,0.0,-1.9794,-2.0297,-2.0973,-2.1633,-2.221,-2.2433,-2.1943,0.0,0.0,0.0,0.0,0.0,0.0,0.0,0.0,0.0,0.0,0.0,0.0,0.0,0.0,0.0,0.0,0.0,0.0,0.0,0.0,0.0,0.0,0.0,0.0,0.0,0.0,0.0,0.0,0.0,0.0,0.0,0.0,0.0,0.0,0.0,0.0,0.0,0.0,0.0,0.0,0.0,0.0,0.0,0.0,0.0,0.0,0.0,0.0,0.0,0.0,0.0,0.0,0.0,0.0,0.0,0.0,0.0,0.0,0.0,0.0,0.0,0.0,0.0,0.0,0.0,0.0,0.0,0.0,0.0,0.0,0.0,0.0,0.0,0.0,0.0,0.0,0.0,0.0,0.0,0.0,0.0,0.0,0.0,0.0,0.0,0.0,0.0,0.0,0.0,0.0,0.0,0.0,0.0,0.0,0.0,0.0,0.0,0.0,0.0,0.0,0.0,0.0,0.0,0.0,0.0,0.0,0.0,-1.9057,-1.9403,-1.9508,-2.0331,-2.101,-2.1497,-2.216,-2.1781,-2.0391,0.0,0.0,0.0,0.0,0.0,0.0,0.0,0.0,0.0,0.0,0.0,0.0,0.0,0.0,0.0,0.0,0.0,0.0,0.0,0.0,0.0,0.0,0.0,0.0,0.0,0.0,0.0,0.0,0.0,0.0,0.0,0.0,0.0,0.0,0.0,0.0,0.0,0.0,-1.8636,-1.9295,0.0,0.0,0.0,0.0,0.0,0.0,0.0,0.0,-1.99,0.0,0.0,0.0,0.0,0.0,0.0,0.0,0.0,0.0,0.0,0.0,0.0,0.0,0.0,0.0,0.0,0.0,0.0,0.0,0.0,0.0,0.0,0.0,0.0,0.0,0.0,0.0,0.0,0.0,0.0,0.0,0.0,0.0,0.0,0.0,0.0,0.0,0.0,0.0,0.0,0.0,0.0,0.0,0.0,0.0,0.0,0.0,0.0,0.0,0.0,0.0,0.0,0.0,0.0,0.0,0.0,-1.8956,-1.9093,-1.9252,-1.9421,-2.0531,-2.1259,-2.1472,-2.1184,-2.0676,-1.9976,0.0,0.0,0.0,0.0,0.0,0.0,0.0,0.0,0.0,0.0,0.0,0.0,0.0,0.0,0.0,0.0,0.0,0.0,0.0,0.0,0.0,0.0,0.0,0.0,0.0,0.0,0.0,0.0,0.0,0.0,0.0,0.0,0.0,0.0,0.0,0.0,0.0,0.0,0.0,-1.9603,-1.9904,0.0,0.0,0.0,0.0,0.0,0.0,0.0,0.0,-1.9696,0.0,0.0,0.0,0.0,0.0,0.0,0.0,0.0,0.0,0.0,0.0,0.0,0.0,0.0,0.0,0.0,0.0,0.0,0.0,0.0,0.0,0.0,0.0,0.0,0.0,0.0,0.0,0.0,0.0,0.0,0.0,0.0,0.0,0.0,0.0,0.0,0.0,0.0,0.0,0.0,0.0,0.0,0.0,0.0,0.0,0.0,0.0,0.0,0.0,0.0,0.0,0.0,0.0,0.0,0.0,-1.8903,-1.9341,-1.9413,-1.9143,-2.0551,-2.1266,-2.1196,-2.0921,-2.045,0.0,0.0,0.0,0.0,0.0,0.0,0.0,0.0,0.0,0.0,0.0,0.0,0.0,0.0,0.0,0.0,0.0,0.0,0.0,0.0,0.0,0.0,0.0,0.0,0.0,0.0,0.0,0.0,0.0,0.0,0.0,0.0,0.0,0.0,0.0,0.0,0.0,0.0,0.0,0.0,-1.9782,-2.0045,-2.0304,0.0,0.0,0.0,0.0,0.0,0.0,-1.9817,-1.9627,0.0,0.0,0.0,0.0,0.0,0.0,0.0,0.0,0.0,0.0,0.0,0.0,0.0,0.0,0.0,0.0,0.0,0.0,0.0,0.0,0.0,0.0,0.0,0.0,0.0,0.0,0.0,0.0,0.0,0.0,0.0,0.0,0.0,0.0,0.0,0.0,0.0,0.0,0.0,0.0,0.0,0.0,0.0,0.0,0.0,0.0,0.0,0.0,0.0,0.0,0.0,0.0,0.0,0.0,0.0,-1.8893,-1.9739,-1.9698,-1.8867,-2.0569,-2.1228,-2.0661,-2.0638,-2.0179,0.0,0.0,0.0,0.0,0.0,0.0,0.0,0.0,0.0,0.0,0.0,0.0,0.0,0.0,0.0,0.0,0.0,0.0,0.0,0.0,0.0,0.0,0.0,0.0,0.0,0.0,0.0,0.0,0.0,0.0,0.0,0.0,0.0,0.0,0.0,0.0,0.0,0.0,0.0,0.0,0.0,-2.015,-2.0354,-2.0235,0.0,0.0,0.0,0.0,-2.0114,-1.946,0.0,0.0,0.0,0.0,0.0,0.0,0.0,0.0,0.0,0.0,0.0,0.0,0.0,0.0,0.0,0.0,0.0,0.0,0.0,0.0,0.0,0.0,0.0,0.0,0.0,0.0,0.0,0.0,0.0,0.0,0.0,0.0,0.0,0.0,0.0,0.0,0.0,0.0,0.0,0.0,0.0,0.0,0.0,0.0,0.0,0.0,0.0,0.0,0.0,0.0,0.0,0.0,0.0,0.0,0.0,0.0,-1.9442,-2.0344,-2.007,-1.8743,-2.0776,-2.1262,-1.9814,-1.9646,-1.9208,0.0,0.0,0.0,0.0,0.0,0.0,0.0,0.0,0.0,0.0,0.0,0.0,0.0,0.0,0.0,0.0,0.0,0.0,0.0,0.0,0.0,0.0,0.0,0.0,0.0,0.0,0.0,0.0,0.0,0.0,0.0,0.0,0.0,0.0,0.0,0.0,0.0,0.0,0.0,0.0,0.0,-2.0096,-2.0354,-2.0235,-2.0045,0.0,0.0,-1.9522,-2.0114,-1.9198,0.0,0.0,0.0,0.0,0.0,0.0,0.0,0.0,0.0,0.0,0.0,0.0,0.0,0.0,0.0,0.0,0.0,0.0,0.0,0.0,0.0,0.0,0.0,0.0,0.0,0.0,0.0,0.0,0.0,0.0,0.0,0.0,0.0,0.0,0.0,0.0,0.0,0.0,0.0,0.0,0.0,0.0,0.0,0.0,0.0,0.0,0.0,0.0,0.0,0.0,0.0,0.0,0.0,0.0,0.0,-1.8822,-1.9256,-1.9577,-1.9414,-1.8789,-2.0098,-2.0505,-1.9845,-1.8977,-1.8383,0.0,0.0,0.0,0.0,0.0,0.0,0.0,0.0,0.0,0.0,0.0,0.0,0.0,0.0,0.0,0.0,0.0,0.0,0.0,0.0,0.0,0.0,0.0,0.0,0.0,0.0,0.0,0.0,0.0,0.0,0.0,0.0,0.0,0.0,0.0,0.0,0.0,0.0,0.0,0.0,0.0,0.0,-2.0304,-2.0166,0.0,0.0,0.0,-1.9188,-1.9219,0.0,0.0,0.0,0.0,0.0,0.0,0.0,0.0,0.0,0.0,0.0,0.0,0.0,0.0,0.0,0.0,0.0,0.0,0.0,0.0,0.0,0.0,0.0,0.0,0.0,0.0,0.0,0.0,0.0,0.0,0.0,0.0,0.0,0.0,0.0,0.0,0.0,0.0,0.0,0.0,0.0,0.0,0.0,0.0,0.0,0.0,0.0,0.0,0.0,0.0,0.0,0.0,0.0,0.0,0.0,0.0,0.0,-1.8988,-1.9044,-1.8985,-1.8813,-1.951,-1.978,-1.9606,-1.8397,0.0,0.0,0.0,0.0,0.0,0.0,0.0,0.0,0.0,0.0,0.0,0.0,0.0,0.0,0.0,0.0,0.0,0.0,0.0,0.0,0.0,0.0,0.0,0.0,0.0,0.0,0.0,-1.3708,0.0,0.0,0.0,0.0,0.0,0.0,0.0,0.0,0.0,0.0,0.0,0.0,0.0,0.0,-2.0294,-2.0569,-2.0512,-2.0367,0.0,0.0,-1.9309,-1.8939,-1.899,-1.9201,0.0,0.0,0.0,0.0,0.0,0.0,0.0,0.0,0.0,0.0,0.0,0.0,0.0,0.0,0.0,0.0,0.0,0.0,0.0,0.0,0.0,0.0,0.0,0.0,0.0,0.0,0.0,0.0,0.0,0.0,0.0,0.0,0.0,0.0,0.0,0.0,0.0,0.0,0.0,0.0,0.0,0.0,0.0,0.0,0.0,0.0,0.0,0.0,0.0,0.0,0.0,0.0,0.0,0.0,-1.9232,-1.8786,-1.9447,-1.9355,-1.8515,-1.9342,-1.9374,-1.8516,-1.793,-1.7322,0.0,0.0,0.0,0.0,0.0,0.0,0.0,0.0,0.0,0.0,0.0,0.0,0.0,0.0,0.0,0.0,0.0,0.0,0.0,0.0,0.0,0.0,0.0,0.0,0.0,0.0,0.0,0.0,0.0,0.0,0.0,0.0,0.0,0.0,0.0,0.0,0.0,0.0,0.0,0.0,0.0,-2.0911,-2.1292,-2.1554,-2.1451,0.0,-2.0569,-2.0302,-2.0046,-1.9524,-1.9408,-1.9973,0.0,0.0,0.0,0.0,0.0,0.0,0.0,0.0,0.0,0.0,0.0,0.0,0.0,0.0,0.0,0.0,0.0,0.0,0.0,0.0,0.0,0.0,0.0,0.0,0.0,0.0,0.0,0.0,0.0,0.0,0.0,0.0,0.0,0.0,0.0,0.0,0.0,0.0,0.0,0.0,0.0,0.0,0.0,0.0,0.0,0.0,0.0,0.0,0.0,0.0,0.0,0.0,0.0,-1.8835,-1.8331,-1.8805,-1.8755,-1.8238,-1.8341,-1.8309,-1.816,-1.7013,-1.6366,0.0,0.0,0.0,0.0,0.0,0.0,0.0,0.0,0.0,0.0,0.0,0.0,0.0,0.0,0.0,0.0,0.0,0.0,0.0,0.0,0.0,0.0,0.0,0.0,0.0,0.0,0.0,0.0,-1.2365,-1.244,-1.295,0.0,0.0,0.0,0.0,0.0,0.0,0.0,0.0,0.0,0.0,-2.0889,-2.1164,-2.1248,0.0,0.0,-2.0373,-1.9956,-1.9485,-1.9384,-1.937,-1.9423,-1.9583,0.0,0.0,0.0,0.0,0.0,0.0,0.0,0.0,0.0,0.0,0.0,0.0,0.0,0.0,0.0,0.0,0.0,0.0,0.0,0.0,0.0,0.0,0.0,0.0,0.0,0.0,0.0,0.0,0.0,0.0,0.0,0.0,0.0,0.0,0.0,0.0,0.0,0.0,0.0,0.0,0.0,0.0,0.0,0.0,0.0,0.0,0.0,0.0,0.0,0.0,0.0,0.0,-1.8339,-1.7908,-1.8082,-1.8063,-1.7908,-1.7421,-1.7285,-1.7511,-1.6323,-1.574,0.0,0.0,0.0,0.0,0.0,0.0,0.0,0.0,0.0,0.0,0.0,0.0,0.0,0.0,0.0,0.0,0.0,0.0,0.0,0.0,0.0,0.0,0.0,0.0,0.0,0.0,0.0,0.0,-1.2229,-1.2659,-1.3842,0.0,0.0,0.0,0.0,0.0,0.0,0.0,0.0,0.0,0.0,-2.0727,-2.1126,-2.1183,-2.1082,-2.0776,-2.0405,-1.9951,-1.9454,-1.9471,-1.9433,-1.9095,0.0,0.0,0.0,0.0,0.0,0.0,0.0,0.0,0.0,0.0,0.0,0.0,0.0,0.0,0.0,0.0,0.0,0.0,0.0,0.0,0.0,0.0,0.0,0.0,0.0,0.0,0.0,-1.8784,0.0,0.0,-1.7841,0.0,0.0,0.0,0.0,0.0,0.0,0.0,0.0,0.0,0.0,0.0,0.0,0.0,0.0,0.0,0.0,0.0,0.0,0.0,0.0,0.0,0.0,-1.7908,-1.7419,-1.7449,-1.7434,-1.7408,-1.6784,-1.6459,-1.6524,-1.5861,-1.5551,-1.561,0.0,0.0,0.0,0.0,0.0,0.0,0.0,0.0,0.0,0.0,0.0,0.0,0.0,0.0,0.0,0.0,0.0,0.0,0.0,0.0,0.0,0.0,0.0,0.0,0.0,0.0,-1.252,-1.2464,-1.3003,0.0,0.0,0.0,0.0,0.0,0.0,0.0,0.0,0.0,-2.0425,-2.0299,-2.034,-2.124,-2.1595,-2.152,-2.1077,-2.0855,-2.0607,-2.0206,-1.9825,-1.9488,0.0,0.0,0.0,0.0,0.0,0.0,0.0,0.0,0.0,0.0,0.0,0.0,0.0,0.0,0.0,0.0,0.0,0.0,0.0,0.0,0.0,0.0,0.0,0.0,0.0,0.0,0.0,-1.9711,-1.9137,0.0,0.0,0.0,0.0,0.0,0.0,0.0,0.0,0.0,0.0,0.0,-1.5566,-1.5618,0.0,0.0,0.0,0.0,0.0,0.0,0.0,0.0,0.0,0.0,0.0,0.0,-1.7683,-1.7058,-1.7453,-1.7369,-1.6767,-1.6326,-1.6235,-1.6426,-1.5414,-1.4937,-1.5134,0.0,0.0,0.0,0.0,0.0,0.0,0.0,0.0,0.0,0.0,0.0,0.0,0.0,0.0,0.0,0.0,0.0,0.0,0.0,0.0,0.0,0.0,0.0,0.0,0.0,-1.2735,0.0,0.0,0.0,0.0,0.0,0.0,0.0,0.0,0.0,0.0,-1.8822,-1.899,-1.9926,-2.0157,-2.0408,-2.0805,-2.0957,-2.0921,0.0,0.0,0.0,0.0,0.0,0.0,0.0,0.0,0.0,0.0,0.0,0.0,0.0,0.0,-2.0359,-2.0623,-2.051,-2.0446,-2.051,0.0,0.0,0.0,0.0,0.0,0.0,0.0,0.0,0.0,0.0,0.0,0.0,0.0,0.0,-1.9564,-1.8976,-1.8549,0.0,0.0,0.0,0.0,0.0,0.0,0.0,0.0,-1.5879,-1.5691,-1.5516,-1.569,-1.565,-1.5395,-1.5451,-1.5922,0.0,0.0,0.0,0.0,0.0,0.0,0.0,0.0,-1.7543,-1.6964,-1.7184,-1.6978,-1.6282,-1.6002,-1.5957,-1.6014,-1.51,-1.4689,-1.4994,-1.5017,-1.5072,0.0,0.0,0.0,0.0,0.0,0.0,0.0,0.0,0.0,0.0,0.0,0.0,0.0,0.0,0.0,0.0,0.0,0.0,0.0,0.0,0.0,0.0,0.0,-1.3081,0.0,0.0,0.0,0.0,0.0,0.0,0.0,0.0,0.0,-1.9364,-1.9041,-1.8986,-1.9664,-1.9673,-1.9737,-2.0029,0.0,0.0,0.0,0.0,0.0,0.0,0.0,-1.8182,-1.8018,-1.7733,-1.7678,-1.805,-1.8375,-1.8578,-1.8578,0.0,0.0,-1.9668,-1.9656,-1.9592,-1.9567,-1.954,-1.954,-1.9475,-1.9411,-1.9371,0.0,0.0,0.0,0.0,-2.2067,0.0,0.0,0.0,-1.9258,-1.8724,0.0,-1.7968,0.0,0.0,0.0,0.0,-1.7036,-1.6223,0.0,0.0,-1.6049,-1.5901,-1.6103,-1.6432,-1.6446,-1.6192,-1.6135,-1.6071,-1.5869,-1.5017,0.0,0.0,0.0,0.0,0.0,0.0,-1.7418,-1.706,-1.67,-1.6332,-1.5984,-1.575,-1.5566,-1.5353,-1.4954,-1.4849,-1.5155,-1.4763,-1.4637,-1.4902,-1.4937,0.0,0.0,0.0,0.0,0.0,0.0,0.0,0.0,0.0,0.0,0.0,0.0,0.0,0.0,0.0,0.0,0.0,0.0,0.0,0.0,-1.3362,0.0,0.0,0.0,0.0,0.0,0.0,0.0,0.0,0.0,-1.8806,-1.9743,-1.896,-1.8677,-1.9609,0.0,0.0,0.0,0.0,-1.8922,-1.8804,-1.8721,-1.8625,-1.8333,-1.7854,-1.7412,-1.7245,0.0,0.0,-1.7146,-1.7257,-1.7435,-1.739,-1.7435,-1.7722,-1.8744,-1.8999,-1.9016,-1.8768,-1.8804,-1.8827,-1.8578,-1.862,-1.8555,-2.0836,0.0,0.0,0.0,0.0,-2.2451,-2.1963,-2.1211,-2.0463,-1.9731,-1.9018,-1.8295,0.0,0.0,0.0,0.0,0.0,0.0,-1.6536,-1.6286,-1.636,-1.6283,-1.5968,-1.5944,-1.5744,-1.5422,-1.5171,-1.4837,-1.441,-1.4069,-1.4617,-1.5961,0.0,0.0,0.0,0.0,-1.7136,-1.6767,-1.6519,-1.6115,-1.5435,-1.5156,-1.49,-1.4704,-1.5019,-1.5133,-1.4954,-1.4782,-1.4798,-1.4935,-1.4359,0.0,0.0,0.0,0.0,0.0,0.0,0.0,0.0,0.0,0.0,0.0,0.0,0.0,0.0,0.0,0.0,0.0,0.0,0.0,-1.3323,-1.3658,-1.4301,0.0,0.0,0.0,0.0,0.0,0.0,0.0,0.0,0.0,-1.8499,-1.8487,-1.8559,0.0,0.0,-1.8158,-1.8213,-1.8116,-1.7995,-1.782,-1.7733,0.0,-1.7401,-1.7067,-1.6853,-1.6797,-1.674,-1.6684,-1.657,-1.6899,-1.7112,-1.7112,-1.7168,-1.74,-1.7774,-1.7868,-1.781,-1.7963,-1.8018,-1.803,-1.7975,-1.7897,-1.7722,-1.9183,-1.9837,-2.0836,-2.1174,-2.113,-2.1341,-2.0983,-2.036,-2.0098,-1.9567,-1.8862,-1.8465,-1.8124,-1.7849,-1.7524,0.0,0.0,0.0,-1.6573,-1.6147,-1.6584,-1.6522,-1.6132,-1.6083,-1.59,-1.5566,-1.5171,-1.4688,-1.4126,-1.4082,-1.4496,-1.5505,0.0,-1.6342,-1.7089,-1.7357,-1.7242,-1.6824,-1.6518,-1.5949,-1.5098,-1.5078,-1.514,-1.5223,-1.52,-1.5082,-1.4842,-1.4592,-1.4559,-1.47,-1.4387,-1.4403,0.0,0.0,0.0,0.0,0.0,0.0,0.0,0.0,0.0,0.0,0.0,-1.4937,-1.4966,0.0,0.0,0.0,-1.3912,-1.3772,-1.356,-1.4239,0.0,0.0,0.0,0.0,0.0,0.0,0.0,-1.8103,-1.7701,-1.7528,-1.7856,-1.7786,-1.7856,-1.8101,-1.7831,-1.7611,-1.7401,0.0,-1.7112,-1.6944,-1.6832,-1.6775,-1.6482,-1.6265,-1.6104,-1.6009,-1.5884,-1.5884,-1.5941,-1.6161,-1.6394,-1.6607,-1.667,-1.6805,-1.7293,-1.7127,-1.7101,-1.7527,-1.754,-1.7486,-1.73,-1.7067,-1.6786,-1.7349,-1.7391,-1.9392,-1.9613,-1.8756,-1.9011,-1.8845,-1.8374,-1.8713,-1.8646,-1.8245,-1.8359,-1.8216,-1.7708,-1.7254,0.0,-1.701,-1.6587,-1.6305,-1.6131,-1.6656,-1.6759,-1.6483,-1.6647,-1.6551,-1.6193,-1.5709,-1.5141,-1.4617,-1.4673,-1.4709,-1.466,-1.548,-1.6321,-1.7166,-1.7693,-1.7701,-1.7238,-1.6664,-1.5916,-1.4952,-1.5446,-1.5919,-1.6353,-1.5435,-1.495,-1.4863,-1.4337,-1.4117,-1.4311,-1.4728,-1.4782,-1.4377,0.0,0.0,0.0,0.0,0.0,0.0,0.0,0.0,0.0,0.0,0.0,0.0,0.0,0.0,0.0,-1.3397,0.0,-1.397,-1.4885,0.0,0.0,0.0,-1.6848,-1.7678,-1.7291,-1.7315,-1.817,0.0,0.0,-1.7599,-1.7027,-1.6754,-1.7213,-1.7078,-1.6754,-1.6465,-1.627,-1.613,-1.5918,-1.6046,-1.6009,-1.5585,-1.5469,-1.5359,-1.52,-1.4849,-1.489,-1.5312,-1.539,-1.5555,-1.6087,-1.6033,-1.6137,-1.7004,-1.6801,-1.6766,-1.7303,-1.7245,-1.6988,-1.6634,-1.6259,-1.5864,-1.7336,-1.6697,-1.7937,-1.8549,-1.8776,-1.9136,-1.909,-1.8845,-1.8667,-1.8256,-1.777,-1.7291,-1.686,-1.6434,-1.6249,-1.6372,-1.6609,-1.6728,-1.6615,-1.6282,-1.6725,-1.6624,-1.6209,-1.5948,-1.5709,-1.5488,-1.4991,-1.4721,-1.4633,-1.4633,-1.48,-1.5087,-1.6081,-1.6762,-1.7111,-1.7919,-1.8151,-1.7726,-1.7221,-1.6426,-1.5336,-1.5542,-1.5698,-1.5649,-1.5377,-1.5109,-1.4909,-1.4459,-1.4312,-1.4519,-1.4122,-1.4018,-1.4348,-1.4078,0.0,0.0,0.0,0.0,0.0,0.0,0.0,0.0,0.0,-1.3899,-1.4036,0.0,-1.3976,0.0,-1.3868,-1.4073,-1.4662,-1.4699,0.0,0.0,-1.5643,-1.6049,-1.7191,-1.7151,-1.7249,-1.7698,-1.7356,-1.7048,-1.7196,-1.6757,-1.6315,-1.6059,-1.5996,-1.5659,-1.4879,-1.4886,-1.476,-1.4438,-1.4771,-1.5022,-1.4857,-1.4988,-1.5097,-1.5205,-1.4818,-1.4796,-1.5345,-1.5476,-1.5533,-1.5689,-1.6028,-1.631,-1.6655,-1.6609,-1.6646,-1.6902,-1.671,-1.6377,-1.6208,-1.588,-1.5604,-1.7425,-1.6612,-1.7165,-1.7685,-1.8139,-1.8434,-1.8566,-1.8637,-1.8764,-1.8382,-1.7687,-1.7203,-1.6691,-1.629,-1.6327,-1.6349,-1.6415,-1.6729,-1.67,-1.6351,-1.67,-1.656,-1.5938,-1.5647,-1.5426,-1.5196,-1.4776,-1.4633,-1.4697,-1.4848,-1.5105,-1.5584,-1.6721,-1.7471,-1.7975,-1.8709,-1.8692,-1.8035,-1.7027,-1.6371,-1.6118,-1.5644,-1.5619,-1.5972,-1.5353,-1.4877,-1.4565,-1.4152,-1.3975,-1.3963,-1.3602,-1.3448,-1.3509,-1.3515,-1.3608,0.0,0.0,0.0,0.0,0.0,0.0,0.0,0.0,0.0,0.0,0.0,-1.3878,-1.4058,-1.4183,-1.4439,-1.4788,-1.4875,-1.518,-1.5842,-1.5723,-1.6059,-1.722,-1.7005,-1.6972,-1.747,-1.7041,-1.6812,-1.6981,-1.6547,-1.6004,-1.5454,-1.5336,-1.499,-1.4164,-1.4087,-1.4094,-1.3897,-1.418,-1.4388,-1.4409,-1.4286,-1.4393,-1.4623,-1.4403,-1.4372,-1.4941,-1.5159,-1.5332,-1.557,-1.5854,-1.6196,-1.645,-1.6483,-1.6492,-1.6526,-1.6104,-1.5698,-1.577,-1.5568,-1.5317,-1.7464,-1.6844,-1.6914,-1.7115,-1.7292,-1.7466,-1.776,-1.8203,-1.873,-1.8509,-1.7708,-1.7382,-1.6949,-1.6531,-1.6678,-1.6627,-1.6385,-1.6751,-1.6691,-1.6342,-1.6691,-1.6421,-1.5726,-1.5505,-1.5355,-1.5133,-1.4784,-1.4705,-1.4982,-1.5133,-1.5559,-1.6149,-1.7347,-1.8358,-1.9179,-1.966,-1.9361,-1.8246,-1.6551,-1.604,-1.6709,-1.5672,-1.5538,-1.6382,-1.5302,-1.446,-1.4094,-1.3654,-1.3374,-1.3248,-1.3302,-1.3046,-1.2534,-1.3226,-1.3403,0.0,-1.3323,0.0,0.0,0.0,0.0,0.0,0.0,0.0,0.0,-1.3779,-1.3942,-1.4334,-1.4519,-1.4677,-1.4713,-1.5163,-1.5668,-1.5981,-1.5904,-1.6229,-1.7216,-1.6696,-1.6545,-1.7327,-1.69,-1.6647,-1.6874,-1.6418,-1.5885,-1.5322,-1.503,-1.4611,-1.3881,-1.3691,-1.374,-1.3815,-1.3852,-1.4038,-1.4181,-1.3843,-1.3688,-1.4028,-1.3995,-1.403,-1.4565,-1.4754,-1.5002,-1.5423,-1.568,-1.5857,-1.6341,-1.6324,-1.6306,-1.6339,-1.5788,-1.5272,-1.542,-1.5223,-1.49,-1.7615,-1.7339,-1.7014,-1.7207,-1.7618,-1.7347,-1.7475,-1.7781,-1.7793,-1.7423,-1.6719,-1.6179,-1.601,-1.6125,-1.599,-1.6228,-1.6751,-1.7028,-1.689,-1.6542,-1.6482,-1.5991,-1.5346,-1.5078,-1.5015,-1.4935,-1.4721,-1.4856,-1.5346,-1.5426,-1.5982,-1.6941,-1.7871,-1.8837,-1.9831,0.0,0.0,0.0,-1.658,-1.5578,-1.5451,-1.5228,-1.5062,-1.4936,-1.4524,0.0,-1.4032,-1.338,-1.3172,-1.3411,-1.3444,0.0,0.0,0.0,0.0,0.0,0.0,0.0,0.0,0.0,0.0,0.0,-1.322,-1.322,-1.3258,-1.3588,-1.4184,-1.5075,-1.4989,-1.5019,-1.5451,-1.5449,-1.5397,-1.5293,-1.5168,-1.5302,-1.5982,-1.6127,-1.6457,-1.7203,-1.7242,-1.7207,-1.711,-1.6714,-1.6134,-1.5227,-1.485,-1.4387,-1.3605,-1.3459,-1.3249,-1.2897,-1.3345,-1.3746,-1.4096,-1.4128,-1.4111,-1.4385,-1.4223,-1.4293,-1.4781,-1.4916,-1.4875,-1.4993,-1.5454,-1.5643,-1.5525,-1.5709,-1.58,-1.5738,-1.5841,-1.5839,-1.5346,-1.4817,-1.4357,-1.7548,-1.7081,-1.6765,-1.6939,0.0,-1.725,-1.7417,-1.7865,-1.7943,-1.7587,-1.6893,-1.6365,-1.6002,-1.5765,-1.5903,-1.6147,-1.6403,-1.6612,-1.6682,-1.6603,-1.6211,-1.578,-1.5196,-1.5007,-1.4792,-1.4649,-1.4641,-1.4919,-1.563,-1.5568,-1.6053,-1.7226,-1.8016,-1.8908,-1.9849,-2.0027,-1.9277,-1.768,-1.5926,-1.4651,-1.38,-1.3401,-1.3396,-1.3797,-1.3474,0.0,0.0,0.0,0.0,0.0,0.0,0.0,0.0,0.0,0.0,-1.3141,-1.3252,-1.3286,-1.3323,-1.3058,-1.2911,-1.2789,-1.272,-1.2726,-1.2981,-1.3453,-1.3959,-1.4354,-1.4592,-1.4839,-1.5128,-1.5125,-1.5163,-1.533,-1.5309,-1.5501,-1.6187,-1.6374,-1.6684,-1.7274,-1.7396,-1.7314,-1.695,-1.6821,-1.6262,-1.5166,-1.5063,-1.4718,-1.3917,-1.3543,-1.3294,-1.3057,-1.347,-1.3866,-1.3917,-1.3901,-1.3855,-1.3947,-1.3771,-1.3765,-1.4065,-1.4213,-1.4252,-1.4269,-1.4552,-1.4797,-1.4668,-1.489,-1.5104,-1.5126,-1.5149,-1.5195,-1.4839,-1.4737,-1.4586,-1.7394,-1.689,-1.6431,-1.6569,-1.706,-1.7056,-1.7304,-1.7794,-1.8104,0.0,0.0,-1.664,-1.6091,-1.5568,-1.5921,-1.6053,-1.5974,-1.6263,-1.6482,-1.6542,-1.6061,-1.5576,-1.5062,-1.4856,-1.4649,-1.4505,-1.4577,-1.5062,-1.5833,-1.57,-1.6132,-1.7198,-1.7889,-1.868,-1.9526,-1.9131,-1.8105,-1.6596,-1.5124,-1.3634,-1.2226,-1.1628,-1.1769,-1.2734,-1.2449,-1.2484,-1.2902,-1.2353,-1.2016,-1.1884,-1.1563,-1.1525,-1.1865,-1.1997,-1.2435,-1.3288,-1.3148,-1.3043,-1.3273,-1.2696,-1.2305,-1.2243,-1.2182,-1.2364,-1.2907,-1.3314,-1.3571,-1.3512,-1.4067,-1.4461,-1.4619,-1.4853,-1.5138,-1.5698,-1.577,-1.6108,-1.6693,-1.6692,-1.6668,-1.712,-1.7107,-1.6978,-1.6403,-1.6551,-1.6272,-1.5259,-1.5171,-1.5213,-1.4426,-1.3948,-1.3645,-1.3599,-1.3719,-1.3879,-1.369,-1.3438,-1.3238,-1.3253,-1.3212,-1.313,-1.3154,-1.3336,-1.3568,-1.3624,-1.3725,-1.3891,-1.3874,-1.4114,-1.437,-1.449,-1.4303,-1.4115,-1.4279,-1.465,-1.4722,-1.7166,-1.7296,-1.6269,-1.6173,-1.6676,-1.6342,-1.6473,-1.6821,-1.7235,-1.6952,-1.6273,-1.5696,-1.5438,-1.5505,-1.5417,-1.5762,-1.6464,-1.6691,-1.663,-1.6342,-1.5982,-1.5417,-1.4713,-1.4346,-1.4425,-1.4792,-1.4641,-1.5141,-1.6132,-1.6061,-1.6482,-1.7382,-1.7765,-1.8291,-1.8944,-1.8834,-1.7766,-1.58,-1.4494,-1.301,-1.1314,-1.1405,-1.1422,-1.1383,-1.1644,-1.2045,-1.2514,-1.2034,-1.1824,-1.1913,-1.1938,-1.1929,-1.1935,-1.2122,-1.2452,-1.2833,-1.2859,-1.2867,-1.303,-1.2704,-1.2305,-1.1926,-1.1615,-1.1958,-1.308,-1.3165,-1.3345,-1.3805,-1.403,-1.4304,-1.4807,-1.5195,-1.5495,-1.5756,-1.607,-1.6365,-1.6612,-1.607,-1.5913,-1.6333,-1.6,-1.578,-1.563,-1.578,-1.5859,-1.5275,-1.5204,-1.5141,-1.4768,-1.4347,-1.4078,-1.3943,-1.3641,-1.3457,-1.3357,-1.3058,-1.2931,-1.2871,-1.2989,-1.3014,-1.294,-1.3193,-1.3322,-1.3384,-1.3521,-1.3661,-1.3603,-1.3792,-1.3819,-1.3727,-1.3776,-1.394,-1.3899,-1.4151,-1.4195,-1.6747,-1.674,-1.5872,-1.5723,-1.618,-1.621,-1.6263,-1.6342,-1.6412,-1.6166,-1.5722,-1.5334,-1.5204,-1.515,-1.5204,-1.5488,-1.5982,-1.6342,-1.6342,-1.6053,-1.578,-1.5346,-1.4768,-1.4418,-1.4433,-1.4713,-1.4641,-1.5141,-1.6061,-1.6,-1.6351,-1.7176,-1.7706,-1.8147,-1.8488,-1.8342,-1.7545,-1.6114,-1.4705,-1.3006,-1.1019,-1.1016,-1.1031,-1.1054,-1.1278,-1.1815,-1.2575,-1.1997,-1.1693,-1.1757,-1.1791,-1.1797,-1.1687,-1.1918,-1.2424,-1.3195,-1.2995,-1.3007,-1.3425,-1.2858,-1.2305,-1.1864,-1.174,-1.1934,-1.2297,-1.2375,-1.275,-1.3688,-1.3761,-1.4077,-1.4837,-1.5052,-1.532,-1.563,-1.5788,-1.5921,-1.6132,-1.5912,-1.5771,-1.5991,-1.5921,-1.5709,-1.5576,-1.5788,-1.5718,-1.5213,-1.5078,-1.4999,-1.507,-1.4848,-1.4553,-1.4243,-1.3719,-1.3327,-1.3274,-1.2848,-1.2505,-1.2387,-1.2435,-1.2417,-1.2265,-1.2466,-1.2667,-1.2588,-1.2716,-1.2836,-1.278,-1.2636,-1.2679,-1.2893,-1.306,-1.3244,-1.3477,-1.3761,-1.3988,-1.6405,-1.6204,-1.5412,-1.5284,-1.5576,-1.5859,-1.585,-1.578,-1.5505,-1.5363,-1.5213,-1.5133,-1.4999,-1.4792,-1.4991,-1.5284,-1.5505,-1.578,-1.5842,-1.57,-1.5426,-1.5141,-1.4768,-1.4425,-1.4425,-1.4713,-1.4641,-1.5133,-1.6061,-1.6008,-1.6149,-1.6769,-1.751,-1.7888,-1.7944,-1.7791,-1.7355,-1.6628,-1.5426,-1.3596,-1.1259,-1.1131,-1.1133,-1.1145,-1.1361,-1.1853,-1.2539,-1.2053,-1.1688,-1.1618,-1.1701,-1.1674,-1.1602,-1.1833,-1.2507,-1.3468,-1.3185,-1.3046,-1.3511,-1.3133,-1.2546,-1.2047,-1.2178,-1.216,-1.1907,-1.1899,-1.2357,-1.3298,-1.3676,-1.4077,-1.4664,-1.4856,-1.5007,-1.5292,-1.5426,-1.5547,-1.5757,-1.5698,-1.5786,-1.6039,-1.6039,-1.5925,-1.5845,-1.5917,-1.574,-1.5246,-1.5078,-1.515,-1.5284,-1.5204,-1.4991,-1.4577,-1.3932,-1.3522,-1.3399,-1.2901,-1.2394,-1.213,-1.1995,-1.1806,-1.1536,-1.1707,-1.1879,-1.1729,-1.1839,-1.1994,-1.1894,-1.1781,-1.1825,-1.2193,-1.2451,-1.2664,-1.327,-1.3643,-1.3915,-1.6137,-1.5938,-1.5097,-1.4784,-1.5007,-1.4856,-1.4864,-1.4927,-1.4497,-1.4346,-1.4569,-1.4792,-1.4721,-1.4505,-1.4784,-1.515,-1.5426,-1.5346,-1.5346,-1.5426,-1.4927,-1.4569,-1.4425,-1.408,-1.4289,-1.4991,-1.4776,-1.5275,-1.6403,-1.6202,-1.6202,-1.6412,-1.6959,-1.7224,-1.7137,-1.7169,-1.7216,-1.721,-1.6779,-1.5119,-1.237,-1.2304,-1.2133,-1.1619,-1.1995,-1.2321,-1.2589,-1.2281,-1.2036,-1.176,-1.1911,-1.1997,-1.1884,-1.2168,-1.2735,-1.3528,-1.3199,-1.3058,-1.3094,-1.3222,-1.3148,-1.2796,-1.2717,-1.2669,-1.2535,-1.2491,-1.2647,-1.3089,-1.3677,-1.4142,-1.4561,-1.4792,-1.4792,-1.4713,-1.4999,-1.5328,-1.5551,-1.525,-1.5291,-1.6188,-1.5906,-1.5634,-1.592,-1.5903,-1.5696,-1.5455,-1.5451,-1.5513,-1.5363,-1.5275,-1.5062,-1.4807,-1.4425,-1.4025,-1.3739,-1.3203,-1.258,-1.2254,-1.1833,-1.1517,-1.1241,-1.1059,-1.0996,-1.127,-1.1409,-1.1541,-1.1466,-1.151,-1.1718,-1.1891,-1.2182,-1.2487,-1.3201,-1.3603,-1.3744,-1.5945,-1.5659,-1.5081,-1.4864,-1.4864,-1.4569,-1.4418,-1.4353,-1.4049,-1.3992,-1.4072,-1.4361,-1.4289,-1.4072,-1.4433,-1.4713,-1.4999,-1.5284,-1.5355,-1.5275,-1.5062,-1.4856,-1.4649,-1.4361,-1.4497,-1.5125,-1.4927,-1.5284,-1.6132,-1.6202,-1.6202,-1.6272,-1.6959,-1.7224,-1.7071,-1.7359,-1.7728,-1.7984,-1.7431,-1.6553,-1.5558,-1.4648,-1.3857,-1.3254,-1.3047,-1.308,-1.3195,-1.2802,-1.2451,-1.2192,-1.2151,-1.2053,-1.1904,-1.2223,-1.2729,-1.3407,-1.3698,-1.3864,-1.398,-1.402,-1.3705,-1.3049,-1.3173,-1.299,-1.2187,-1.2412,-1.2673,-1.2917,-1.3404,-1.3843,-1.4114,-1.4225,-1.4217,-1.4129,-1.4281,-1.4488,-1.4808,-1.4792,-1.513,-1.6169,-1.6144,-1.63,-1.6741,-1.6482,-1.6001,-1.5663,-1.5585,-1.5363,-1.5221,-1.5141,-1.4991,-1.4697,-1.4506,-1.4214,-1.3824,-1.3081,-1.2497,-1.2097,-1.1847,-1.157,-1.0949,-1.1019,-1.1009,-1.0873,-1.1132,-1.1189,-1.1081,-1.1174,-1.1317,-1.158,-1.21,-1.248,-1.3085,-1.3179,-1.3323,-1.564,-1.5316,-1.4912,-1.4792,-1.4719,-1.4267,-1.4068,-1.392,-1.3768,-1.3775,-1.4008,-1.4065,-1.4137,-1.4137,-1.4497,-1.4713,-1.4848,-1.5213,-1.5426,-1.5346,-1.5133,-1.4991,-1.4864,-1.4569,-1.4784,-1.5213,-1.515,-1.5434,-1.6061,-1.6342,-1.6272,-1.6342,-1.7028,-1.7484,-1.75,-1.7902,-1.8392,-1.8718,-1.8134,-1.7838,-1.7658,-1.6732,-1.5615,-1.4588,-1.4222,-1.3992,-1.3881,-1.339,-1.297,-1.2713,-1.2527,-1.2354,-1.2233,-1.2535,-1.2984,-1.3617,-1.4145,-1.451,-1.4754,-1.4695,-1.4347,-1.3668,-1.3731,-1.3325,-1.2541,-1.2501,-1.2699,-1.2778,-1.2991,-1.3265,-1.3593,-1.3645,-1.3564,-1.347,-1.3484,-1.3659,-1.4048,-1.4351,-1.5025,-1.6167,-1.6357,-1.6586,-1.7007,-1.665,-1.6012,-1.5671,-1.5425,-1.5204,-1.4999,-1.4999,-1.4856,-1.4425,-1.4274,-1.4037,-1.3737,-1.3219,-1.2513,-1.2109,-1.1957,-1.1441,-1.0773,-1.0946,-1.0976,-1.0708,-1.0909,-1.1049,-1.1002,-1.0927,-1.1185,-1.1473,-1.1972,-1.2384,-1.2663,-1.2739,-1.2973,-1.5121,-1.4897,-1.4638,-1.4456,-1.4313,-1.3863,-1.3628,-1.3638,-1.3521,-1.379,-1.424,-1.4137,-1.4338,-1.484,-1.5054,-1.5204,-1.5204,-1.5275,-1.5497,-1.5655,-1.4999,-1.4713,-1.4872,-1.4721,-1.4927,-1.5417,-1.5355,-1.5638,-1.6061,-1.6403,-1.6473,-1.6342,-1.7226,-1.7959,-1.8358,-1.8699,-1.9113,-1.9525,-1.9182,-1.8722,-1.8112,-1.7897,-1.6979,-1.5576,-1.5303,-1.4921,-1.4345,-1.3899,-1.3631,-1.3304,-1.3053,-1.2923,-1.2976,-1.3262,-1.3726,-1.4338,-1.4631,-1.4917,-1.5077,-1.5219,-1.507,-1.4616,-1.4331,-1.3981,-1.336,-1.3027,-1.2903,-1.2865,-1.2618,-1.2638,-1.3039,-1.3046,-1.29,-1.2452,-1.2746,-1.3019,-1.3429,-1.4114,-1.5097,-1.598,-1.6328,-1.6365,-1.5963,-1.5838,-1.572,-1.5526,-1.5309,-1.5125,-1.4991,-1.4713,-1.4425,-1.4137,-1.363,-1.3258,-1.3803,-1.3165,-1.2784,-1.2308,-1.154,-1.1204,-1.0867,-1.0585,-1.0591,-1.0591,-1.0723,-1.0805,-1.0842,-1.1077,-1.1409,-1.1689,-1.1972,-1.2278,-1.2439,-1.2526,-1.2673,-1.502,-1.4638,-1.4357,-1.4275,-1.4352,-1.3888,-1.3824,-1.387,-1.3285,-1.3493,-1.3985,-1.388,-1.4201,-1.5125,-1.5551,-1.5692,-1.5754,-1.5974,-1.6123,-1.607,-1.563,-1.5355,-1.5213,-1.4974,-1.4982,-1.5275,-1.5267,-1.5267,-1.5488,-1.578,-1.6123,-1.6612,-1.7432,-1.8168,-1.8685,-1.9041,-1.9471,-1.9862,-1.9293,-1.8934,-1.8989,-1.8471,-1.7718,-1.694,-1.6397,-1.5846,-1.5392,-1.5019,-1.4558,-1.3994,-1.3778,-1.3588,-1.3606,-1.4171,-1.4905,-1.5612,-1.5955,-1.6281,-1.6606,-1.6314,-1.5982,-1.5487,-1.498,-1.4361,-1.3637,-1.3346,-1.3127,-1.2753,-1.2378,-1.215,-1.1855,-1.1929,-1.1929,-1.1632,-1.1855,-1.2264,-1.2783,-1.3536,-1.4509,-1.5585,-1.6345,-1.6687,-1.6105,-1.5921,-1.5649,-1.5332,-1.4937,-1.4665,-1.4353,-1.4152,-1.3878,-1.3266,-1.2886,-1.2592,-1.2298,-1.2218,-1.1883,-1.1611,-1.1175,-1.0863,-1.0525,-1.0628,-1.0663,-1.0651,-1.0722,-1.0793,-1.0901,-1.1103,-1.15,-1.1697,-1.1922,-1.2011,-1.2224,-1.2238,-1.2258,-1.478,-1.4364,-1.42,-1.4137,-1.4201,-1.379,-1.3832,-1.3951,-1.3424,-1.344,-1.3933,-1.4132,-1.4672,-1.5584,-1.6307,-1.6711,-1.6751,-1.6811,-1.6751,-1.6621,-1.6123,-1.5842,-1.57,-1.533,-1.5188,-1.5275,-1.5196,-1.5196,-1.5275,-1.5426,-1.5912,-1.6603,-1.7609,-1.8415,-1.8997,-1.9626,-2.0142,-2.02,-1.9694,-1.9525,-1.9581,-1.8978,-1.8337,-1.7895,-1.7389,-1.6864,-1.6284,-1.5864,-1.5517,-1.5087,-1.4707,-1.4499,-1.4587,-1.5345,-1.6061,-1.6674,-1.6973,-1.7187,-1.7434,-1.695,-1.6455,-1.6026,-1.5338,-1.4577,-1.3928,-1.3637,-1.3273,-1.2753,-1.2157,-1.1558,-1.1111,-1.0962,-1.0887,-1.0887,-1.118,-1.1632,-1.215,-1.3105,-1.4206,-1.5292,-1.6091,-1.6317,-1.6055,-1.5716,-1.5373,-1.5161,-1.4711,-1.4225,-1.3928,-1.3741,-1.3424,-1.2526,-1.249,-1.2106,-1.1614,-1.1286,-1.1178,-1.0893,-1.0765,-1.0501,-1.0415,-1.0551,-1.0694,-1.0767,-1.0846,-1.0919,-1.1046,-1.123,-1.1354,-1.1607,-1.1512,-1.1563,-1.1674,-1.1846,-1.1906,-1.4539,-1.4095,-1.413,-1.4002,-1.3909,-1.3565,-1.3473,-1.3694,-1.3697,-1.3748,-1.4152,-1.4925,-1.5501,-1.6369,-1.7222,-1.798,-1.7901,-1.7489,-1.7282,-1.7245,-1.6578,-1.6237,-1.6228,-1.5664,-1.5363,-1.5417,-1.5426,-1.5434,-1.5426,-1.5497,-1.5912,-1.6733,-1.793,-1.8859,-1.9344,-2.0429,-2.0933,-2.0771,-2.0587,-2.0303,-1.9747,-1.9467,-1.9081,-1.8541,-1.835,-1.7836,-1.6924,-1.6475,-1.631,-1.6398,-1.5856,-1.5647,-1.6113,-1.6817,-1.7309,-1.7402,-1.755,-1.7512,-1.7239,-1.6881,-1.6542,-1.6132,-1.5434,-1.4864,-1.4497,-1.3928,-1.3433,-1.2882,-1.2123,-1.1366,-1.0871,-1.0419,-1.017,-1.0218,-1.0738,-1.1267,-1.1855,-1.2872,-1.4114,-1.5174,-1.5455,-1.5229,-1.5158,-1.5072,-1.4944,-1.4856,-1.4529,-1.4065,-1.371,-1.3512,-1.312,-1.2516,-1.2093,-1.1707,-1.1057,-1.0395,-1.0412,-1.029,-1.0235,-1.0143,-1.0218,-1.0273,-1.0633,-1.0707,-1.0843,-1.0917,-1.1034,-1.1199,-1.139,-1.1537,-1.1326,-1.1278,-1.1526,-1.169,-1.1494,-1.4044,-1.3888,-1.3738,-1.3784,-1.3922,-1.3567,-1.3599,-1.3804,-1.3355,-1.344,-1.3992,-1.4306,-1.5032,-1.6119,-1.7288,-1.79,-1.791,-1.8074,-1.7944,-1.7477,-1.7367,-1.7133,-1.6714,-1.6016,-1.5521,-1.5213,-1.5062,-1.5086,-1.515,-1.5488,-1.6175,-1.7198,-1.8267,-1.941,-2.0366,-2.0955,-2.1158,-2.1158,-2.0967,-2.0621,-2.022,-1.992,-1.9583,-1.9263,-1.888,-1.8572,-1.8359,-1.775,-1.7407,-1.7342,-1.7232,-1.7298,-1.7636,-1.8041,-1.8206,-1.8124,-1.8177,-1.8168,-1.7959,-1.7442,-1.6959,-1.6551,-1.5788,-1.5221,-1.4864,-1.4353,-1.3799,-1.3227,-1.253,-1.1827,-1.1204,-1.0573,-1.0259,-1.0165,-1.0513,-1.098,-1.1726,-1.2893,-1.3985,-1.4713,-1.4927,-1.4999,-1.4999,-1.4792,-1.4713,-1.4569,-1.4065,-1.3477,-1.3221,-1.2864,-1.2313,-1.1717,-1.1516,-1.1365,-1.0634,-1.0239,-1.0291,-1.016,-1.0014,-0.9916,-0.9992,-1.0143,-1.0443,-1.0726,-1.0801,-1.0965,-1.1095,-1.1192,-1.1351,-1.1458,-1.1449,-1.1475,-1.1624,-1.1514,-1.1307,-1.3912,-1.35,-1.3629,-1.3684,-1.3648,-1.343,-1.339,-1.3515,-1.3168,-1.3112,-1.3365,-1.4131,-1.4785,-1.573,-1.7129,-1.7843,-1.7944,-1.8251,-1.7995,-1.7348,-1.7367,-1.7259,-1.6883,-1.6276,-1.563,-1.5158,-1.5275,-1.5292,-1.515,-1.5833,-1.6715,-1.7794,-1.8916,-2.0052,-2.106,-2.1526,-2.1702,-2.1577,-2.1388,-2.1083,-2.0707,-2.0355,-2.0015,-1.9716,-1.9242,-1.9057,-1.91,-1.8775,-1.8575,-1.8599,-1.8797,-1.8897,-1.8728,-1.8945,-1.8944,-1.842,-1.8282,-1.8192,-1.7657,-1.7097,-1.683,-1.6421,-1.578,-1.5213,-1.4792,-1.4433,-1.3821,-1.3138,-1.2583,-1.1997,-1.1181,-1.0729,-1.0401,-1.0176,-1.047,-1.1029,-1.1928,-1.2889,-1.371,-1.4274,-1.4561,-1.4649,-1.4792,-1.4569,-1.4425,-1.4281,-1.363,-1.3051,-1.2871,-1.2404,-1.1802,-1.1331,-1.123,-1.0903,-1.0304,-1.0151,-1.0164,-1.004,-0.9846,-0.9841,-0.9841,-1.0143,-1.0363,-1.0611,-1.0742,-1.0833,-1.0948,-1.1137,-1.1249,-1.1391,-1.1434,-1.1358,-1.1279,-1.1184,-1.1045,-1.4123,-1.311,-1.3639,-1.3588,-1.329,-1.3017,-1.292,-1.303,-1.2973,-1.2654,-1.2621,-1.3851,-1.4858,-1.5407,-1.6826,-1.764,-1.799,-1.7821,-1.7422,-1.6848,-1.6625,-1.6501,-1.6736,-1.6555,-1.61,-1.5386,-1.5803,-1.5981,-1.5865,-1.6612,-1.7531,-1.8706,-1.9879,-2.0812,-2.1667,-2.2322,-2.2372,-2.2063,-2.1939,-2.1628,-2.1187,-2.0794,-2.0484,-1.9998,-1.9639,-1.9441,-1.9518,-1.9672,-1.9868,-1.9977,-2.0267,-2.0109,-1.953,-1.9802,-1.9378,-1.818,-1.8182,-1.751,-1.6621,-1.6412,-1.6132,-1.5718,-1.5355,-1.4991,-1.4569,-1.4152,-1.3536,-1.2803,-1.2424,-1.1787,-1.1012,-1.06,-1.0429,-1.0323,-1.0625,-1.133,-1.2437,-1.2824,-1.3353,-1.4049,-1.4266,-1.4353,-1.4864,-1.4497,-1.4274,-1.3985,-1.3339,-1.2864,-1.251,-1.2063,-1.1606,-1.1321,-1.0987,-1.0734,-1.0288,-1.0428,-1.0423,-1.047,-1.0218,-0.9992,-0.9841,-1.0067,-1.0363,-1.0605,-1.0728,-1.081,-1.0892,-1.1089,-1.1077,-1.1093,-1.1073,-1.0996,-1.0976,-1.1031,-1.0987,-1.3879,-1.3281,-1.3473,-1.3581,-1.3369,-1.2869,-1.2477,-1.2276,-1.1974,-1.1964,-1.2202,-1.285,-1.3754,-1.458,-1.5772,-1.6374,-1.6362,-1.6581,-1.6499,-1.5862,-1.5468,-1.6012,-1.6788,-1.7266,-1.6877,-1.6138,-1.6494,-1.683,-1.7142,-1.7802,-1.8783,-2.0191,-2.1209,-2.1992,-2.2518,-2.3088,-2.304,-2.2677,-2.2506,-2.2249,-2.1865,-2.1439,-2.1071,-2.0752,-2.0313,-2.014,-2.0248,-2.056,-2.0816,-2.0828,-2.1071,-2.0771,-1.9921,-1.9749,-1.91,-1.8027,-1.7423,-1.695,-1.6254,-1.5912,-1.5613,-1.4974,-1.4697,-1.441,-1.4274,-1.4008,-1.3454,-1.2825,-1.2576,-1.1988,-1.0945,-1.0311,-1.0163,-1.0135,-1.0548,-1.125,-1.2065,-1.2661,-1.3258,-1.4122,-1.4625,-1.4848,-1.4919,-1.4697,-1.4186,-1.3753,-1.2907,-1.2107,-1.1859,-1.1353,-1.0704,-1.0796,-1.0636,-1.0537,-1.0539,-1.0684,-1.0738,-1.0825,-1.0663,-1.0363,-1.0143,-1.0143,-1.0438,-1.072,-1.0783,-1.0858,-1.0991,-1.1147,-1.108,-1.0801,-1.0856,-1.0804,-1.0989,-1.1106,-1.0974,-1.398,-1.3463,-1.3736,-1.3532,-1.3081,-1.2654,-1.2056,-1.1446,-1.1335,-1.1181,-1.1361,-1.2018,-1.2612,-1.3279,-1.4323,-1.4754,-1.4767,-1.4958,-1.4867,-1.4595,-1.4483,-1.5152,-1.6154,-1.697,-1.7115,-1.6741,-1.7324,-1.7844,-1.8346,-1.8998,-2.0095,-2.1335,-2.2348,-2.3157,-2.382,-2.4034,-2.4105,-2.3859,-2.3531,-2.316,-2.2713,-2.2113,-2.1741,-2.1439,-2.1019,-2.0831,-2.1153,-2.1521,-2.1632,-2.1469,-2.1273,-2.0741,-1.9824,-1.9354,-1.8412,-1.6982,-1.6428,-1.5807,-1.5029,-1.4903,-1.4681,-1.425,-1.4122,-1.3905,-1.3622,-1.3411,-1.3005,-1.2224,-1.2311,-1.1762,-1.0743,-1.0,-0.9724,-0.9807,-1.0068,-1.0703,-1.1784,-1.2236,-1.3046,-1.3905,-1.4561,-1.4848,-1.4919,-1.4474,-1.381,-1.3011,-1.1916,-1.1407,-1.1041,-1.0422,-1.0013,-1.0126,-1.0174,-1.0113,-1.0368,-1.0588,-1.0906,-1.1085,-1.1037,-1.0738,-1.0438,-1.0282,-1.0444,-1.0695,-1.0803,-1.0863,-1.0841,-1.0797,-1.0517,-1.0392,-1.0503,-1.0594,-1.0622,-1.0891,-1.0887,-1.423,-1.3711,-1.4118,-1.3588,-1.2676,-1.246,-1.1692,-1.0784,-1.0813,-1.0582,-1.0453,-1.1289,-1.1762,-1.167,-1.2857,-1.3172,-1.327,-1.3369,-1.3306,-1.3379,-1.3739,-1.45,-1.541,-1.6733,-1.7258,-1.7455,-1.8322,-1.9004,-1.963,-2.0369,-2.1369,-2.253,-2.342,-2.4195,-2.4724,-2.4978,-2.5034,-2.4851,-2.435,-2.3943,-2.3505,-2.2907,-2.2433,-2.2137,-2.178,-2.173,-2.2043,-2.2278,-2.2256,-2.1875,-2.1227,-2.0302,-1.9365,-1.8623,-1.7316,-1.572,-1.5084,-1.4522,-1.352,-1.3608,-1.3608,-1.339,-1.3462,-1.347,-1.2973,-1.268,-1.2318,-1.1602,-1.166,-1.1306,-1.0473,-0.9545,-0.9239,-0.9372,-0.9241,-0.9942,-1.1136,-1.179,-1.2519,-1.3833,-1.4194,-1.4346,-1.4194,-1.3753,-1.2938,-1.1656,-1.0732,-1.0253,-0.9956,-0.9576,-0.9458,-0.9781,-0.9704,-0.9661,-1.0095,-1.0547,-1.0935,-1.1186,-1.1186,-1.0962,-1.0738,-1.0628,-1.0586,-1.0651,-1.0943,-1.0722,-1.0344,-1.0157,-1.0074,-0.9987,-1.0108,-0.9945,-0.9892,-1.0372,-1.0584,-1.3906,-1.3476,-1.3756,-1.331,-1.2619,-1.2111,-1.1397,-1.0682,-1.0188,-1.0179,-1.0429,-1.0632,-1.0988,-1.164,-1.1744,-1.1986,-1.2105,-1.2215,-1.2385,-1.2776,-1.3293,-1.4126,-1.5237,-1.6935,-1.8096,-1.8676,-1.9765,-2.0631,-2.1218,-2.1867,-2.2905,-2.3891,-2.4323,-2.4991,-2.516,-2.5216,-2.5118,-2.4948,-2.4492,-2.4247,-2.406,-2.3518,-2.3005,-2.2776,-2.2696,-2.291,-2.3107,-2.2826,-2.2286,-2.1688,-2.0886,-1.9724,-1.8395,-1.7541,-1.628,-1.4863,-1.4027,-1.3455,-1.2886,-1.2659,-1.2666,-1.2365,-1.2512,-1.2592,-1.2452,-1.2231,-1.1929,-1.1459,-1.1318,-1.099,-1.0191,-0.9413,-0.9082,-0.9047,-0.9008,-0.9322,-1.0273,-1.1297,-1.2445,-1.3462,-1.3977,-1.4042,-1.3426,-1.2451,-1.1421,-1.0312,-0.9544,-0.8942,-0.8716,-0.8548,-0.8845,-0.9174,-0.9396,-0.9392,-1.0067,-1.0588,-1.1111,-1.1409,-1.1409,-1.126,-1.1037,-1.092,-1.0807,-1.0998,-1.1223,-1.0796,-1.0025,-1.0245,-1.0336,-1.0036,-0.9717,-0.9679,-0.9777,-1.0102,-1.03,-1.3398,-1.3137,-1.3222,-1.2722,-1.1981,-1.1594,-1.1067,-1.0384,-0.9857,-0.9902,-1.009,-0.9808,-0.987,-1.0379,-1.0338,-1.0295,-1.054,-1.1058,-1.147,-1.2061,-1.31,-1.4311,-1.5593,-1.7537,-1.9077,-1.9517,-2.0695,-2.1698,-2.2484,-2.3009,-2.3657,-2.4637,-2.4935,-2.523,-2.5508,-2.5384,-2.5439,-2.5453,-2.4948,-2.4607,-2.4536,-2.4118,-2.3662,-2.3368,-2.3347,-2.3412,-2.3212,-2.2383,-2.1353,-2.038,-1.9334,-1.8379,-1.733,-1.6369,-1.5008,-1.3368,-1.2485,-1.1755,-1.1242,-1.1254,-1.1335,-1.1329,-1.1632,-1.1781,-1.1781,-1.1706,-1.1484,-1.1166,-1.103,-1.0895,-1.0339,-0.9519,-0.911,-0.898,-0.878,-0.9003,-0.9679,-1.0732,-1.1781,-1.2652,-1.2785,-1.2311,-1.1704,-1.0879,-0.936,-0.8027,-0.7744,-0.7196,-0.735,-0.7346,-0.7987,-0.8413,-0.8832,-0.9241,-0.9986,-1.0663,-1.126,-1.1632,-1.1781,-1.1558,-1.1335,-1.1199,-1.1046,-1.1113,-1.0984,-1.0408,-0.9916,-1.0202,-1.017,-0.9574,-0.9349,-0.9444,-0.9645,-0.9818,-1.007,-1.2875,-1.2534,-1.2619,-1.2064,-1.1383,-1.1238,-1.0787,-1.006,-0.9663,-0.9591,-0.97,-0.8963,-0.8909,-0.9002,-0.8972,-0.8743,-0.9151,-1.0121,-1.1075,-1.1771,-1.3511,-1.4903,-1.6435,-1.84,-2.0019,-2.0188,-2.1598,-2.2771,-2.3418,-2.3761,-2.4279,-2.4892,-2.4835,-2.5048,-2.555,-2.5412,-2.5189,-2.5439,-2.4991,-2.4778,-2.4765,-2.4434,-2.4123,-2.4129,-2.3506,-2.3199,-2.2659,-2.1679,-2.0237,-1.8632,-1.7192,-1.633,-1.5682,-1.4993,-1.3475,-1.1377,-1.0732,-1.0188,-0.9779,-0.9834,-1.0209,-1.046,-1.118,-1.1484,-1.149,-1.1484,-1.1335,-1.1103,-1.0995,-1.1035,-1.0815,-1.0062,-0.9494,-0.9165,-0.8708,-0.8699,-0.8993,-0.9825,-1.0496,-1.1391,-1.1205,-1.065,-0.9916,-0.91,-0.7339,-0.5966,-0.5755,-0.5693,-0.5925,-0.6395,-0.7188,-0.797,-0.8484,-0.9387,-1.0212,-1.0738,-1.1409,-1.1632,-1.1929,-1.1781,-1.1484,-1.1372,-1.1193,-1.0761,-1.0524,-1.0101,-0.9864,-0.9988,-0.9731,-0.9116,-0.9087,-0.945,-0.9464,-0.9442,-0.986,-1.2619,-1.1843,-1.2032,-1.1746,-1.1321,-1.1147,-1.0611,-0.9981,-0.9389,-0.9202,-0.9292,-0.8717,-0.8713,-0.8953,-0.8597,-0.8665,-0.9334,-1.0357,-1.1496,-1.2546,-1.4372,-1.5997,-1.7682,-1.9665,-2.1195,-2.2084,-2.3071,-2.3796,-2.4223,-2.4721,-2.4694,-2.4948,-2.4708,-2.4738,-2.4624,-2.4323,-2.4381,-2.4738,-2.4408,-2.4247,-2.4408,-2.434,-2.4356,-2.4443,-2.3466,-2.2797,-2.2218,-2.0893,-1.9201,-1.7296,-1.5805,-1.4314,-1.3152,-1.2765,-1.1848,-1.0417,-0.9577,-0.9025,-0.8862,-0.9388,-1.0007,-1.0576,-1.1329,-1.1929,-1.1935,-1.1855,-1.1558,-1.1422,-1.1154,-1.097,-1.0581,-1.017,-0.9695,-0.9231,-0.878,-0.8318,-0.7851,-0.7842,-0.8523,-0.9567,-0.9316,-0.8769,-0.7871,-0.6889,-0.5354,-0.4276,-0.4053,-0.445,-0.4999,-0.5696,-0.6633,-0.7484,-0.8246,-0.9382,-1.0438,-1.0962,-1.1484,-1.1632,-1.1787,-1.1781,-1.1632,-1.1484,-1.1267,-1.0918,-1.0671,-1.0438,-1.0225,-0.9991,-0.9676,-0.9276,-0.9357,-0.9456,-0.9604,-0.9748,-1.0149,-1.2372,-1.1663,-1.1584,-1.1169,-1.0799,-1.0693,-1.0311,-0.9878,-0.9456,-0.928,-0.9087,-0.8551,-0.8303,-0.8471,-0.8111,-0.838,-0.9616,-1.0918,-1.2196,-1.3712,-1.5956,-1.7879,-1.9344,-2.1285,-2.2681,-2.3739,-2.4321,-2.4358,-2.4509,-2.458,-2.4708,-2.4478,-2.4118,-2.393,-2.393,-2.3682,-2.3682,-2.3872,-2.3754,-2.3767,-2.4112,-2.3986,-2.4103,-2.3811,-2.2765,-2.1739,-2.0843,-1.9155,-1.7082,-1.5202,-1.3898,-1.2324,-1.1112,-1.0401,-1.0243,-0.926,-0.8495,-0.8239,-0.844,-0.9077,-0.9698,-1.0617,-1.1552,-1.2003,-1.2083,-1.2003,-1.2003,-1.1626,-1.1111,-1.0812,-1.0824,-1.0368,-0.9765,-0.9236,-0.8699,-0.8008,-0.7161,-0.6314,-0.6605,-0.7202,-0.6339,-0.5797,-0.5425,-0.4356,-0.32,-0.2581,-0.2425,-0.3207,-0.4224,-0.5234,-0.624,-0.7395,-0.8394,-0.9528,-1.0588,-1.1186,-1.1558,-1.1706,-1.1781,-1.1781,-1.1632,-1.1558,-1.1378,-1.1046,-1.0845,-1.0621,-1.0217,-0.9825,-0.9663,-0.9597,-0.9745,-0.986,-0.9876,-1.0103,-1.0493,-1.2409,-1.1891,-1.1556,-1.1111,-1.0794,-1.0701,-1.0352,-0.9958,-0.9745,-0.949,-0.9131,-0.8367,-0.8029,-0.8068,-0.7998,-0.8413,-0.9837,-1.1149,-1.2908,-1.5419,-1.7984,-2.0116,-2.1687,-2.3011,-2.4307,-2.5016,-2.4924,-2.4751,-2.46,-2.4439,-2.415,-2.3754,-2.3233,-2.3053,-2.3148,-2.298,-2.3088,-2.3207,-2.3207,-2.3327,-2.3586,-2.3368,-2.32,-2.3042,-2.14,-2.0121,-1.9081,-1.709,-1.5065,-1.3406,-1.2066,-1.0859,-0.9274,-0.8748,-0.8597,-0.8317,-0.7585,-0.7672,-0.8409,-0.9401,-1.0425,-1.1601,-1.2338,-1.2645,-1.2725,-1.2872,-1.2439,-1.1922,-1.1254,-1.0812,-1.0962,-1.0443,-0.9841,-0.9236,-0.8542,-0.7774,-0.6703,-0.5619,-0.4292,-0.4206,-0.335,-0.3115,-0.3117,-0.2652,-0.1643,-0.2271,-0.2193,-0.313,-0.4148,-0.5079,-0.6163,-0.7544,-0.8694,-0.983,-1.0738,-1.1335,-1.1632,-1.1781,-1.1929,-1.1929,-1.1781,-1.1558,-1.1378,-1.1125,-1.0843,-1.0589,-1.0113,-0.9901,-1.0019,-1.007,-1.0198,-1.0243,-1.0284,-1.0421,-1.0773,-1.3444,-1.282,-1.2565,-1.2468,-1.2318,-1.1883,-1.1286,-1.0569,-1.0126,-0.9663,-0.8995,-0.8183,-0.7978,-0.8175,-0.8466,-0.9064,-1.0108,-1.1597,-1.3916,-1.7022,-1.9968,-2.2253,-2.3794,-2.5,-2.5467,-2.5841,-2.5356,-2.5092,-2.4654,-2.4213,-2.369,-2.3002,-2.2531,-2.2433,-2.2298,-2.2137,-2.2223,-2.2469,-2.2347,-2.2408,-2.2493,-2.2145,-2.1911,-2.1322,-1.9949,-1.8401,-1.7202,-1.5328,-1.3432,-1.1854,-1.0901,-0.9938,-0.8862,-0.8223,-0.8042,-0.7792,-0.767,-0.7891,-0.9178,-1.0537,-1.1993,-1.3324,-1.4458,-1.4988,-1.4649,-1.3954,-1.331,-1.2799,-1.1842,-1.1186,-1.1037,-1.0663,-0.9981,-0.9301,-0.8618,-0.7544,-0.6321,-0.5076,-0.375,-0.2425,-0.2032,-0.1642,-0.1408,-0.0862,-0.0392,-0.1255,-0.2195,-0.329,-0.438,-0.5541,-0.6468,-0.7855,-0.8922,-0.9986,-1.0812,-1.1477,-1.1781,-1.1929,-1.1929,-1.2003,-1.1706,-1.1484,-1.1335,-1.1075,-1.0799,-1.0638,-1.0336,-1.0341,-1.0513,-1.0548,-1.049,-1.0576,-1.0726,-1.0905,-1.099,-1.4135,-1.34,-1.3144,-1.28,-1.2258,-1.1692,-1.1134,-1.0696,-1.0029,-0.9558,-0.9137,-0.8674,-0.8401,-0.8586,-0.8937,-0.9911,-1.1381,-1.3074,-1.5779,-1.89,-2.188,-2.4157,-2.5361,-2.6072,-2.6397,-2.6481,-2.559,-2.446,-2.4028,-2.3225,-2.253,-2.1966,-2.1467,-2.129,-2.1439,-2.1262,-2.1336,-2.14,-2.1411,-2.1325,-2.1223,-2.0736,-2.0203,-1.9985,-1.8053,-1.6581,-1.5409,-1.388,-1.2347,-1.102,-1.0299,-0.9483,-0.8715,-0.8336,-0.8271,-0.8363,-0.9377,-1.0101,-1.0778,-1.2159,-1.3745,-1.5168,-1.62,-1.6444,-1.5983,-1.5084,-1.4171,-1.3382,-1.2063,-1.1335,-1.0962,-1.0438,-0.9841,-0.9236,-0.8694,-0.754,-0.6237,-0.4683,-0.3363,-0.2035,-0.0941,-0.1097,-0.1175,-0.1017,-0.1018,-0.1722,-0.3051,-0.4535,-0.5696,-0.6853,-0.7625,-0.8318,-0.9306,-1.0137,-1.0887,-1.1477,-1.1848,-1.2003,-1.1929,-1.1929,-1.1632,-1.1409,-1.126,-1.1111,-1.0932,-1.0789,-1.0594,-1.0582,-1.0714,-1.072,-1.0738,-1.0771,-1.0707,-1.0832,-1.1138,-1.4435,-1.3645,-1.3569,-1.3028,-1.2101,-1.1542,-1.1155,-1.0717,-1.0198,-0.9751,-0.9438,-0.9196,-0.9201,-0.9321,-0.9932,-1.0963,-1.265,-1.5234,-1.7997,-2.0844,-2.3621,-2.5777,-2.6693,-2.709,-2.7239,-2.753,-2.5805,-2.4294,-2.2845,-2.1699,-2.0808,-2.073,-2.003,-2.0052,-2.0484,-2.0688,-2.0764,-2.0646,-2.0564,-2.0379,-2.0086,-1.931,-1.863,-1.7622,-1.6129,-1.4523,-1.3454,-1.2187,-1.0824,-1.0353,-0.993,-0.9301,-0.8645,-0.874,-0.8901,-0.9317,-1.0481,-1.2166,-1.3147,-1.4483,-1.5852,-1.7086,-1.7842,-1.8006,-1.7161,-1.6053,-1.5021,-1.425,-1.2652,-1.1774,-1.1105,-1.0438,-0.9846,-0.9311,-0.8775,-0.7544,-0.6388,-0.5071,-0.4064,-0.3205,-0.2347,-0.2034,-0.1954,-0.1718,-0.1874,-0.2344,-0.3748,-0.5622,-0.7011,-0.8237,-0.8694,-0.9231,-0.9685,-1.0438,-1.1037,-1.1552,-1.1929,-1.215,-1.2077,-1.1929,-1.1706,-1.1484,-1.126,-1.1111,-1.0962,-1.0812,-1.0669,-1.0738,-1.0881,-1.0864,-1.0828,-1.0757,-1.0682,-1.079,-1.1122,-1.421,-1.3425,-1.3866,-1.3419,-1.262,-1.2395,-1.1775,-1.098,-1.0739,-1.0218,-0.9771,-0.9861,-1.0141,-1.0516,-1.1015,-1.1986,-1.3743,-1.6158,-1.9058,-2.2293,-2.5434,-2.6932,-2.7578,-2.7753,-2.7691,-2.7053,-2.5544,-2.3804,-2.1922,-1.9749,-1.9128,-1.888,-1.867,-1.8803,-1.9452,-2.0183,-2.0292,-2.0194,-1.9998,-1.9576,-1.897,-1.81,-1.7189,-1.5531,-1.4025,-1.2478,-1.0894,-1.0036,-0.963,-0.9433,-0.9487,-0.9451,-0.9026,-0.9213,-0.9447,-1.0213,-1.1601,-1.3615,-1.5495,-1.6875,-1.8428,-1.9639,-1.9998,-1.9553,-1.8649,-1.7463,-1.6306,-1.5046,-1.3448,-1.2432,-1.17,-1.0956,-1.0218,-0.969,-0.9084,-0.8165,-0.7007,-0.577,-0.4763,-0.4295,-0.3904,-0.3589,-0.3893,-0.3964,-0.3657,-0.4051,-0.5585,-0.7456,-0.8452,-0.9523,-0.9755,-1.0137,-1.0288,-1.0738,-1.126,-1.1706,-1.2077,-1.2224,-1.2224,-1.2077,-1.1929,-1.1632,-1.126,-1.1111,-1.0887,-1.0812,-1.0663,-1.0663,-1.0726,-1.0902,-1.0929,-1.066,-1.0659,-1.0678,-1.1009,-1.2772,-1.218,-1.2528,-1.2619,-1.2705,-1.2186,-1.1759,-1.1387,-1.0911,-1.0726,-1.0611,-1.0668,-1.1006,-1.1634,-1.1933,-1.2972,-1.4845,-1.7389,-2.0002,-2.2632,-2.5192,-2.6792,-2.7341,-2.7348,-2.6948,-2.604,-2.4716,-2.3077,-2.1105,-1.8701,-1.789,-1.7691,-1.7536,-1.8085,-1.8875,-1.9959,-2.0154,-1.9944,-1.9604,-1.9147,-1.8238,-1.7107,-1.5905,-1.462,-1.2668,-1.1329,-1.0125,-0.911,-0.8827,-0.8852,-0.9042,-0.9063,-0.9183,-0.9459,-1.0091,-1.1001,-1.2692,-1.5061,-1.7512,-1.888,-2.0159,-2.1628,-2.1682,-2.1003,-1.9912,-1.8593,-1.7033,-1.5641,-1.4243,-1.3018,-1.215,-1.1335,-1.0663,-1.0143,-0.9463,-0.8699,-0.7778,-0.6542,-0.6073,-0.5832,-0.5604,-0.5372,-0.5906,-0.6513,-0.6056,-0.5909,-0.7592,-0.912,-1.004,-1.0576,-1.0732,-1.0663,-1.0812,-1.0962,-1.1409,-1.1855,-1.2298,-1.2298,-1.2298,-1.215,-1.1929,-1.1632,-1.1329,-1.1037,-1.0738,-1.0513,-1.0443,-1.0443,-1.0576,-1.0777,-1.0656,-1.0456,-1.0456,-1.051,-1.0678,-1.139,-1.0963,-1.0974,-1.1335,-1.1742,-1.1558,-1.1368,-1.1042,-1.0719,-1.0883,-1.1294,-1.1226,-1.1702,-1.2324,-1.2696,-1.3532,-1.5456,-1.7764,-2.0249,-2.2571,-2.4603,-2.6078,-2.6504,-2.6467,-2.5972,-2.4954,-2.3632,-2.2031,-1.9986,-1.7813,-1.7409,-1.7293,-1.7179,-1.798,-1.9022,-1.9954,-2.0382,-1.9998,-1.9426,-1.8862,-1.7943,-1.6561,-1.5076,-1.3873,-1.1922,-1.0676,-0.9668,-0.8755,-0.8391,-0.8531,-0.8824,-0.8868,-0.9131,-0.958,-1.0357,-1.1804,-1.358,-1.5848,-1.8324,-2.0764,-2.1975,-2.3138,-2.2809,-2.1942,-2.0864,-1.9312,-1.7444,-1.6,-1.4593,-1.3324,-1.2472,-1.1706,-1.1031,-1.0513,-1.0143,-0.9458,-0.8694,-0.7693,-0.7609,-0.7443,-0.7291,-0.7291,-0.8121,-0.8798,-0.8576,-0.8348,-0.9266,-1.0484,-1.1236,-1.1552,-1.1329,-1.126,-1.1111,-1.1335,-1.1477,-1.1706,-1.2003,-1.2378,-1.2305,-1.2003,-1.1781,-1.1552,-1.118,-1.0812,-1.0513,-1.0218,-1.0143,-1.0223,-1.0368,-1.0513,-1.0312,-1.0027,-0.968,-0.9633,-0.9714,-1.0312,-0.9966,-0.9688,-0.9644,-1.0005,-1.0716,-1.0575,-1.01,-1.0223,-1.0669,-1.1277,-1.15,-1.2027,-1.2584,-1.2978,-1.3952,-1.5522,-1.7542,-1.9739,-2.2096,-2.379,-2.5161,-2.5535,-2.5424,-2.4732,-2.3799,-2.2503,-2.0791,-1.8905,-1.7738,-1.7367,-1.7703,-1.8068,-1.8817,-1.9633,-2.0175,-2.0492,-2.035,-1.9445,-1.8776,-1.7752,-1.6501,-1.5041,-1.3343,-1.1927,-1.0745,-0.9639,-0.8771,-0.8422,-0.8681,-0.8796,-0.8828,-0.892,-0.9344,-1.0121,-1.1152,-1.319,-1.5843,-1.8929,-2.2541,-2.4045,-2.4106,-2.3543,-2.2616,-2.1227,-1.9497,-1.7762,-1.6368,-1.484,-1.3638,-1.2795,-1.2035,-1.1459,-1.0935,-1.05,-1.0067,-0.9306,-0.8993,-0.8827,-0.9115,-0.9195,-0.9352,-1.0329,-1.1013,-1.0944,-1.1025,-1.1329,-1.1855,-1.2372,-1.2372,-1.2077,-1.1706,-1.1484,-1.1484,-1.1552,-1.1484,-1.1706,-1.2157,-1.2231,-1.2003,-1.1706,-1.1409,-1.1037,-1.0588,-1.0368,-1.0143,-0.9997,-0.9922,-1.0034,-1.0066,-0.9788,-0.9532,-0.9134,-0.8842,-0.8815,-0.9018,-0.894,-0.9114,-0.9124,-0.9114,-0.9834,-0.9998,-0.9923,-1.0116,-1.0595,-1.1171,-1.1302,-1.1899,-1.2689,-1.3212,-1.4013,-1.5654,-1.747,-1.9573,-2.1221,-2.276,-2.3377,-2.3793,-2.3677,-2.3103,-2.2153,-2.0986,-2.0009,-1.897,-1.7716,-1.766,-1.8008,-1.9311,-2.0606,-2.1267,-2.1589,-2.1456,-2.0718,-1.9878,-1.8893,-1.7543,-1.654,-1.5343,-1.3716,-1.2519,-1.1521,-1.0374,-0.9566,-0.9161,-0.9066,-0.9087,-0.911,-0.9038,-0.937,-1.0088,-1.1358,-1.3351,-1.6822,-2.0494,-2.3802,-2.4827,-2.4556,-2.3927,-2.2898,-2.1643,-1.9796,-1.8152,-1.665,-1.5122,-1.4026,-1.3362,-1.2457,-1.1783,-1.12,-1.0783,-1.0338,-0.9911,-0.997,-1.0034,-1.0703,-1.1001,-1.0858,-1.1465,-1.2063,-1.2218,-1.2291,-1.2439,-1.2526,-1.2966,-1.29,-1.268,-1.2157,-1.1855,-1.1706,-1.1632,-1.1558,-1.1706,-1.2157,-1.2157,-1.1929,-1.1632,-1.126,-1.0887,-1.0438,-1.0218,-1.0067,-0.9841,-0.9628,-0.9553,-0.9468,-0.9263,-0.896,-0.8566,-0.819,-0.8006,-0.8495,-0.8653,-0.867,-0.8774,-0.8983,-0.9634,-1.0039,-1.0167,-1.0244,-1.0605,-1.0982,-1.0979,-1.1505,-1.2425,-1.3067,-1.3945,-1.5536,-1.7343,-1.8819,-2.0351,-2.151,-2.2177,-2.2226,-2.1858,-2.1249,-2.0406,-1.9354,-1.833,-1.8052,-1.7188,-1.7647,-1.8995,-2.0356,-2.1302,-2.202,-2.2143,-2.1827,-2.0992,-2.0198,-1.8997,-1.7792,-1.6774,-1.5884,-1.4782,-1.3822,-1.3016,-1.2015,-1.1206,-1.0465,-1.0107,-0.9826,-0.9696,-0.9411,-0.9482,-1.0031,-1.1179,-1.4151,-1.7506,-2.1112,-2.3283,-2.3771,-2.3213,-2.3256,-2.2639,-2.1207,-1.9031,-1.7642,-1.6254,-1.5204,-1.4287,-1.3311,-1.246,-1.1772,-1.1177,-1.0881,-1.0438,-1.0547,-1.0611,-1.1515,-1.2183,-1.2705,-1.2572,-1.2439,-1.2886,-1.3251,-1.3324,-1.3317,-1.3477,-1.3484,-1.3266,-1.3053,-1.2599,-1.2083,-1.1781,-1.1706,-1.1632,-1.1781,-1.2157,-1.2009,-1.1781,-1.1484,-1.1037,-1.0663,-1.0335,-1.0049,-0.9829,-0.9516,-0.939,-0.9166,-0.8964,-0.8913,-0.8541,-0.8023,-0.7599,-0.7163,-0.869,-0.8871,-0.8351,-0.8586,-0.9239,-1.0054,-1.0417,-1.0605,-1.0595,-1.0502,-1.0596,-1.0642,-1.1162,-1.1951,-1.2654,-1.3719,-1.5177,-1.6991,-1.8307,-1.9433,-2.0598,-2.0968,-2.0853,-2.0406,-1.9771,-1.8803,-1.7862,-1.7274,-1.6709,-1.6294,-1.7418,-1.8696,-1.9145,-1.9949,-2.0504,-2.0535,-2.0665,-2.0552,-1.9868,-1.8744,-1.7696,-1.7009,-1.6252,-1.5521,-1.5082,-1.4704,-1.3939,-1.312,-1.2632,-1.2029,-1.1218,-1.043,-0.9915,-0.9587,-0.9708,-1.1187,-1.467,-1.753,-2.0117,-2.1728,-2.1423,-2.0751,-2.1042,-2.0818,-1.9671,-1.7688,-1.6422,-1.5389,-1.4366,-1.3591,-1.2849,-1.2097,-1.1282,-1.1019,-1.0835,-1.0787,-1.1023,-1.1665,-1.281,-1.3587,-1.4201,-1.4243,-1.381,-1.4042,-1.4122,-1.4122,-1.4122,-1.4129,-1.3992,-1.3411,-1.3266,-1.3046,-1.2452,-1.1861,-1.1706,-1.1706,-1.1855,-1.2157,-1.1639,-1.1335,-1.1111,-1.0962,-1.0663,-1.0306,-0.9849,-0.9536,-0.9285,-0.898,-0.8644,-0.8459,-0.8178,-0.7748,-0.7194,-0.663,-0.6112,-0.8937,-0.9219,-0.9247,-0.9516,-0.9943,-1.0606,-1.0513,-0.9948,-1.0015,-1.0152,-1.0157,-1.0584,-1.1147,-1.1636,-1.2689,-1.3717,-1.5001,-1.6351,-1.7501,-1.8613,-1.9617,-1.9562,-1.9431,-1.9166,-1.8556,-1.7804,-1.7056,-1.6369,-1.6032,-1.5591,-1.5015,-1.5372,-1.6346,-1.656,-1.6572,-1.6285,-1.7962,-1.9175,-1.8545,-1.7957,-1.7309,-1.6675,-1.6183,-1.5936,-1.6003,-1.5755,-1.5218,-1.4747,-1.4289,-1.3633,-1.2667,-1.1787,-1.09,-1.0449,-1.0409,-1.2065,-1.4212,-1.6074,-1.8093,-1.8741,-1.8446,-1.7388,-1.6893,-1.6763,-1.6203,-1.5716,-1.4654,-1.4052,-1.3413,-1.2798,-1.2314,-1.1692,-1.1107,-1.085,-1.0863,-1.1103,-1.1508,-1.2605,-1.3732,-1.4784,-1.5392,-1.5392,-1.5037,-1.4895,-1.4982,-1.4911,-1.4848,-1.4776,-1.4497,-1.384,-1.3477,-1.3339,-1.2753,-1.2083,-1.1935,-1.1929,-1.2003,-1.2003,-1.1558,-1.1335,-1.1409,-1.1186,-1.0738,-1.0273,-0.9748,-0.9369,-0.9098,-0.8704,-0.8308,-0.7471,-0.7099,-0.6744,-0.6343,-0.5877,-0.5329,-1.0548,-1.081,-1.0725,-1.0791,-1.0936,-1.1163,-1.0965,-1.0541,-1.0473,-1.0506,-1.0745,-1.0935,-1.1272,-1.184,-1.2839,-1.3785,-1.4705,-1.6315,-1.7423,-1.8124,-1.8818,-1.8875,-1.8684,-1.8192,-1.7609,-1.6853,-1.607,-1.5297,-1.5004,-1.4493,-1.3895,-1.3557,-1.3315,-1.3068,-1.3149,-1.3152,-1.3812,-1.5255,-1.6012,-1.6166,-1.6025,-1.594,-1.5947,-1.6036,-1.6362,-1.625,-1.5989,-1.5688,-1.4961,-1.4587,-1.3715,-1.2355,-1.1509,-1.099,-1.1158,-1.2595,-1.3668,-1.504,-1.6439,-1.6417,-1.5601,-1.4439,-1.3064,-1.2524,-1.2716,-1.2466,-1.2602,-1.2487,-1.2251,-1.1986,-1.1735,-1.1396,-1.1051,-1.0712,-1.1042,-1.1271,-1.2291,-1.346,-1.4579,-1.5715,-1.6175,-1.6245,-1.6105,-1.5903,-1.5692,-1.5559,-1.5275,-1.5062,-1.4776,-1.4201,-1.3912,-1.3695,-1.3039,-1.2298,-1.2298,-1.2298,-1.2372,-1.2298,-1.1855,-1.1706,-1.1706,-1.1162,-1.0479,-1.0005,-0.9647,-0.927,-0.8819,-0.8485,-0.7972,-0.7224,-0.6533,-0.631,-0.5899,-0.5264,-0.4722,-1.2931,-1.3121,-1.2558,-1.2172,-1.2151,-1.175,-1.1703,-1.1905,-1.1313,-1.1289,-1.1496,-1.1464,-1.1534,-1.2,-1.2949,-1.3958,-1.4958,-1.6298,-1.7364,-1.8008,-1.8674,-1.8751,-1.8124,-1.7501,-1.6715,-1.5799,-1.4864,-1.4202,-1.3604,-1.3024,-1.2524,-1.2523,-1.1885,-1.1187,-1.0343,-0.9909,-1.0017,-1.0215,-1.1849,-1.2772,-1.4243,-1.4845,-1.5348,-1.5754,-1.592,-1.6095,-1.6023,-1.5522,-1.4532,-1.4518,-1.3755,-1.2141,-1.1438,-1.1194,-1.1641,-1.2389,-1.3304,-1.4124,-1.4737,-1.4569,-1.3301,-1.1966,-1.053,-0.9611,-0.9479,-1.0081,-1.0521,-1.1198,-1.1036,-1.1356,-1.1308,-1.1342,-1.1106,-1.1183,-1.1508,-1.1958,-1.283,-1.4131,-1.551,-1.6544,-1.6881,-1.6881,-1.6742,-1.6524,-1.6193,-1.6061,-1.578,-1.5497,-1.4991,-1.4418,-1.4274,-1.4129,-1.3404,-1.282,-1.2959,-1.2959,-1.2893,-1.2673,-1.2298,-1.215,-1.2378,-1.1372,-1.014,-0.9909,-0.9827,-0.9067,-0.8591,-0.8364,-0.8028,-0.7203,-0.6581,-0.6061,-0.556,-0.5258,-0.4863,-1.4796,-1.4359,-1.3415,-1.287,-1.2512,-1.2182,-1.1909,-1.1594,-1.1261,-1.0997,-1.0917,-1.136,-1.1545,-1.1749,-1.2997,-1.4019,-1.5037,-1.6018,-1.7217,-1.792,-1.8472,-1.8259,-1.7628,-1.6932,-1.5956,-1.4966,-1.4015,-1.2931,-1.2037,-1.1343,-1.0489,-0.9744,-0.9048,-0.8147,-0.7318,-0.678,-0.644,-0.6307,-0.7362,-0.9756,-1.2068,-1.3227,-1.3901,-1.4616,-1.5015,-1.5171,-1.5087,-1.4654,-1.4144,-1.3859,-1.2622,-1.1379,-1.0467,-1.0523,-1.1053,-1.1977,-1.3019,-1.3543,-1.3601,-1.3222,-1.1937,-1.006,-0.8647,-0.7452,-0.7111,-0.7863,-0.8663,-0.9538,-1.0178,-1.0665,-1.1051,-1.1178,-1.1376,-1.1711,-1.2104,-1.2782,-1.343,-1.4926,-1.6493,-1.7009,-1.7461,-1.7442,-1.7295,-1.7028,-1.676,-1.6412,-1.6132,-1.578,-1.5204,-1.4705,-1.4705,-1.4418,-1.3783,-1.3411,-1.355,-1.3615,-1.355,-1.3477,-1.3185,-1.3039,-1.2973,-1.1983,-1.0983,-1.0404,-1.0013,-0.9588,-0.9171,-0.8755,-0.8212,-0.7525,-0.7161,-0.6853,-0.6742,-0.6502,-0.5912,-1.6519,-1.6165,-1.5256,-1.4446,-1.3727,-1.3099,-1.257,-1.2042,-1.1216,-1.0653,-1.0509,-1.0984,-1.125,-1.1357,-1.2545,-1.3469,-1.4426,-1.5587,-1.6437,-1.7285,-1.7852,-1.7725,-1.7157,-1.6376,-1.5384,-1.4322,-1.2872,-1.1702,-1.0724,-1.0159,-0.9481,-0.8277,-0.6858,-0.5905,-0.501,-0.4384,-0.3919,-0.3675,-0.4438,-0.6765,-0.9901,-1.1059,-1.2251,-1.3044,-1.3438,-1.3586,-1.3439,-1.302,-1.2601,-1.2176,-1.1212,-1.0824,-1.0319,-1.056,-1.1317,-1.2247,-1.2945,-1.3309,-1.3226,-1.2655,-1.1534,-0.9981,-0.8928,-0.8581,-0.8143,-0.8894,-0.8686,-0.938,-1.009,-1.0641,-1.1226,-1.1555,-1.1885,-1.2215,-1.3047,-1.3775,-1.4857,-1.6211,-1.7134,-1.7577,-1.7794,-1.7657,-1.752,-1.7382,-1.7047,-1.676,-1.6482,-1.6263,-1.57,-1.5133,-1.5062,-1.4919,-1.4353,-1.4,-1.3992,-1.4129,-1.4122,-1.4057,-1.3992,-1.3477,-1.3032,-1.2519,-1.1909,-1.1261,-1.0849,-1.066,-1.0216,-0.9657,-0.9093,-0.8577,-0.8176,-0.7837,-0.7779,-0.7807,-0.7592,-1.792,-1.7881,-1.717,-1.6237,-1.5103,-1.4197,-1.3383,-1.263,-1.1234,-1.0434,-1.0191,-1.0311,-1.0608,-1.1204,-1.1799,-1.2353,-1.3208,-1.4633,-1.5508,-1.6367,-1.7157,-1.6941,-1.6455,-1.5824,-1.4458,-1.315,-1.1768,-1.0784,-0.9893,-0.9391,-0.8686,-0.7626,-0.6713,-0.5808,-0.4711,-0.391,-0.36,-0.3832,-0.4603,-0.5684,-0.737,-0.8918,-1.0479,-1.1224,-1.1455,-1.1603,-1.1435,-1.1065,-1.0568,-1.0308,-1.0004,-0.9837,-1.0166,-1.0568,-1.1765,-1.2587,-1.3379,-1.3822,-1.4126,-1.3729,-1.2716,-1.1727,-1.0977,-1.0374,-1.0057,-0.985,-0.9653,-1.0006,-1.0718,-1.1015,-1.1682,-1.2221,-1.2628,-1.2995,-1.3959,-1.4836,-1.6049,-1.7119,-1.7574,-1.794,-1.7872,-1.7803,-1.7666,-1.7529,-1.7323,-1.6978,-1.683,-1.6682,-1.6464,-1.5965,-1.5683,-1.5471,-1.5125,-1.4848,-1.4641,-1.4713,-1.4848,-1.4705,-1.4561,-1.3753,-1.3164,-1.2813,-1.2519,-1.2131,-1.1723,-1.1544,-1.1261,-1.0739,-1.0193,-0.9665,-0.9319,-0.9094,-0.8857,-0.897,-0.9527,-1.8861,-1.792,-1.7149,-1.6241,-1.5212,-1.4504,-1.3504,-1.2185,-1.1524,-1.0665,-0.9856,-0.9236,-0.9479,-1.0647,-1.1228,-1.1781,-1.2376,-1.3584,-1.4696,-1.5632,-1.6079,-1.5877,-1.5359,-1.453,-1.2844,-1.1563,-1.0599,-1.0073,-0.9084,-0.8574,-0.8285,-0.7725,-0.6122,-0.5503,-0.5488,-0.4849,-0.4462,-0.4538,-0.5315,-0.656,-0.6542,-0.8038,-0.9575,-1.0203,-1.0511,-1.05,-1.0246,-0.9544,-0.9018,-0.8732,-0.8842,-0.898,-0.9616,-1.0481,-1.1665,-1.2996,-1.3717,-1.4421,-1.4661,-1.4872,-1.4133,-1.3286,-1.2654,-1.2614,-1.2363,-1.2389,-1.2395,-1.2705,-1.2995,-1.2476,-1.2935,-1.3554,-1.3982,-1.434,-1.5002,-1.5838,-1.681,-1.7357,-1.7705,-1.7872,-1.7862,-1.7794,-1.7716,-1.7588,-1.7442,-1.7235,-1.7107,-1.695,-1.6733,-1.6446,-1.6306,-1.6097,-1.5895,-1.5683,-1.5551,-1.5426,-1.5497,-1.5355,-1.5062,-1.4338,-1.376,-1.3331,-1.2959,-1.2872,-1.2652,-1.2412,-1.2063,-1.2057,-1.1459,-1.0977,-1.0628,-1.0387,-1.014,-1.0324,-1.0966]},{"header":{"parameterUnit":"m.s-1","parameterCategory":1,"la1":31.0,"la2":29.5877,"lo1":-88.7671,"lo2":-86.6584,"dy":0.0162,"dx":0.0185,"nx":115,"ny":88,"refTime":"2024-07-20T18:00:00:Z","depth":0,"parameterNumber":3,"parameterNumberName":"V-component_of_WINDS"},"data":[0.0,0.0,0.0,0.0,0.0,0.0,0.0,0.0,0.0,0.0,0.0,0.0,0.0,0.0,0.0,0.0,0.0,0.0,0.0,0.0,0.0,0.0,0.0,0.0,0.0,0.0,0.0,0.0,0.0,0.0,0.0,0.0,0.0,0.0,0.0,0.0,0.0,0.0,0.0,0.0,0.0,0.0,0.0,0.0,0.0,0.0,0.0,0.0,0.0,0.0,0.0,0.0,0.0,0.0,0.0,0.0,0.0,0.0,0.0,0.0,0.0,0.0,0.0,0.0,0.0,0.0,0.0,0.0,0.0,0.0,0.0,0.0,0.0,0.0,0.0,0.0,0.0,0.0,0.0,0.0,0.0,0.0,0.0,0.0,0.0,0.0,0.0,0.0,0.0,0.0,0.0,0.0,0.0,0.0,0.0,0.0,0.0,0.0,0.0,0.0,0.0,0.0,0.0,0.0,0.0,0.0,0.0,0.0,0.0,0.0,0.0,0.0,0.0,0.0,0.0,0.0,0.0,0.0,0.0,0.0,0.0,0.0,0.0,0.0,0.0,0.0,0.0,0.0,0.0,0.0,0.0,0.0,0.0,0.0,0.0,0.0,0.0,0.0,0.0,0.0,0.0,0.0,0.0,0.0,0.0,0.0,0.0,0.0,0.0,0.0,0.0,0.0,0.0,0.0,0.0,0.0,0.0,0.0,0.0,0.0,0.0,0.0,0.0,0.0,0.0,0.0,0.0,0.0,0.0,0.0,0.0,0.0,0.0,0.0,0.0,0.0,0.0,0.0,0.0,0.0,0.0,0.0,0.0,0.0,0.0,0.0,0.0,0.0,0.0,0.0,0.0,0.0,0.0,0.0,0.0,0.0,0.0,0.0,0.0,0.0,0.0,0.0,0.0,0.0,0.0,0.0,0.0,0.0,0.0,0.0,0.0,0.0,0.0,0.0,0.0,0.0,0.0,0.0,0.0,0.0,0.0,0.0,0.0,0.0,0.0,0.0,0.0,0.0,0.0,0.0,0.0,0.0,0.0,0.0,0.0,0.0,0.0,0.0,0.0,0.0,0.0,0.0,0.0,0.0,0.0,0.0,0.0,0.0,0.0,0.0,0.0,0.0,0.0,0.0,0.0,0.0,0.0,0.0,0.0,0.0,0.0,0.0,0.0,0.0,0.0,0.0,0.0,0.0,0.0,0.0,0.0,0.0,0.0,0.0,0.0,0.0,0.0,0.0,0.0,0.0,0.0,0.0,0.0,0.0,0.0,0.0,0.0,0.0,0.0,0.0,0.0,0.0,0.0,0.0,0.0,0.0,0.0,0.0,0.0,0.0,0.0,0.0,0.0,0.0,0.0,0.0,0.0,0.0,0.0,0.0,0.0,0.0,0.0,0.0,0.0,0.0,0.0,0.0,0.0,0.0,0.0,0.0,0.0,0.0,0.0,0.0,0.0,0.0,0.0,0.0,0.0,0.0,0.0,0.0,0.0,0.0,0.0,0.0,0.0,0.0,0.0,0.0,0.0,0.0,0.0,0.0,0.0,0.0,0.0,0.0,0.0,0.0,0.0,0.0,0.0,0.0,0.0,0.0,0.0,0.0,0.0,0.0,0.0,0.0,0.0,0.0,0.0,0.0,0.0,0.0,0.0,0.0,0.0,0.0,0.0,0.0,0.0,0.0,0.0,0.0,0.0,0.0,0.0,0.0,0.0,0.0,0.0,0.0,0.0,0.0,0.0,0.0,0.0,0.0,0.0,0.0,0.0,0.0,0.0,0.0,0.0,0.0,0.0,0.0,0.0,0.0,0.0,0.0,0.0,0.0,0.0,0.0,0.0,0.0,0.0,0.0,0.0,0.0,0.0,0.0,0.0,0.0,0.0,0.0,0.0,0.0,0.0,0.0,0.0,0.0,0.0,0.0,0.0,0.0,0.0,0.0,0.0,0.0,0.0,0.0,0.0,0.0,0.0,0.0,0.0,0.0,0.0,0.0,0.0,0.0,0.0,0.0,0.0,0.0,0.0,0.0,0.0,0.0,0.0,0.0,0.0,0.0,0.0,0.0,0.0,0.0,0.0,0.0,0.0,0.0,0.0,0.0,0.0,0.0,0.0,0.0,0.0,0.0,0.0,0.0,0.0,0.0,0.0,0.0,0.0,0.0,0.0,0.0,0.0,0.0,0.0,0.0,0.0,0.0,0.0,0.0,0.0,0.0,0.0,0.0,0.0,0.0,0.0,0.0,0.0,0.0,0.0,0.0,0.0,0.0,0.0,0.0,0.0,0.0,0.0,0.0,0.0,0.0,0.0,0.0,0.0,0.0,0.0,0.0,0.0,0.0,0.0,0.0,0.0,0.0,0.0,0.0,0.0,0.0,0.0,0.0,0.0,0.0,0.0,0.0,0.0,0.0,0.0,0.0,0.0,0.0,0.0,0.0,0.0,0.0,0.0,0.0,0.0,0.0,0.0,0.0,0.0,0.0,0.0,0.0,0.0,0.0,0.0,0.0,0.0,0.0,0.0,0.0,0.0,0.0,0.0,0.0,0.0,0.0,0.0,0.0,0.0,0.0,0.0,0.0,0.0,0.0,0.0,0.0,0.0,0.0,0.0,0.0,0.0,0.0,0.0,0.0,0.0,0.0,0.0,0.0,0.0,0.0,0.0,0.0,0.0,0.0,0.0,0.0,0.0,0.0,0.0,0.0,0.0,0.0,0.0,0.0,0.0,0.0,0.0,0.0,0.0,0.0,0.0,0.0,0.0,0.0,0.0,0.0,0.0,0.0,0.0,0.0,0.0,0.0,0.0,0.0,0.0,0.0,0.0,0.0,0.0,0.0,0.0,0.0,0.0,0.0,0.0,0.0,0.0,0.0,0.0,0.0,0.0,0.0,0.0,0.0,0.0,0.0,0.0,0.0,0.0,0.0,0.0,0.0,0.0,0.0,0.0,0.0,0.0,0.0,0.0,0.0,0.0,0.0,0.0,0.0,0.0,0.0,0.0,0.0,0.0,0.0,0.0,0.0,0.0,0.0,0.0,0.0,0.0,0.0,0.0,0.0,0.0,0.0,0.0,0.0,0.0,0.0,0.0,0.0,0.0,0.0,0.0,0.0,0.0,0.0,0.0,0.0,0.0,0.0,0.0,0.0,0.0,0.0,0.0,0.0,0.0,0.0,0.0,0.0,0.0,0.0,0.0,0.0,0.0,0.0,0.0,0.0,0.0,0.0,0.0,0.0,0.0,0.0,0.0,0.0,0.0,0.0,0.0,0.0,0.0,0.0,0.0,0.0,0.0,0.0,0.0,0.0,0.0,0.0,0.0,0.0,0.0,0.0,0.0,0.0,0.0,0.0,0.0,0.0,0.0,0.0,0.0,0.0,0.0,0.0,0.0,0.0,0.0,0.0,0.0,0.0,0.0,0.0,0.0,0.0,0.0,0.0,0.0,0.0,0.0,0.0,0.0,0.0,0.0,0.0,0.0,0.0,0.0,0.0,0.0,0.0,0.0,0.0,0.0,0.0,0.0,0.0,0.0,0.0,0.0,0.0,0.0,0.0,0.0,0.0,0.0,0.0,0.0,0.0,0.0,0.0,0.0,0.0,0.0,0.0,0.0,0.0,0.0,0.0,0.0,0.0,0.0,0.0,0.0,0.0,0.0,0.0,0.0,0.0,0.0,0.0,0.0,0.0,0.0,0.0,0.0,0.0,0.0,0.0,0.0,0.0,0.0,0.0,0.0,0.0,0.0,0.0,0.0,0.0,0.0,0.0,0.0,0.0,0.0,0.0,0.0,0.0,0.0,0.0,0.0,0.0,0.0,0.0,0.0,0.0,0.0,0.0,0.0,0.0,0.0,0.0,0.0,0.0,0.0,0.0,0.0,0.0,0.0,0.0,0.0,0.0,0.0,0.0,0.0,0.0,0.0,0.0,0.0,0.0,0.0,0.0,0.0,0.0,0.0,0.0,0.0,0.0,0.0,0.0,0.0,0.0,0.0,0.0,0.0,0.0,0.0,0.0,0.0,0.0,0.0,0.0,0.0,0.0,0.0,0.0,0.0,0.0,0.0,0.0,0.0,0.0,0.0,0.0,0.0,0.0,0.0,0.0,0.0,0.0,0.0,0.0,0.0,0.0,0.0,0.0,0.0,0.0,0.0,0.0,0.0,0.0,0.0,0.0,0.0,0.0,0.0,0.0,0.0,0.0,0.0,0.0,0.0,0.0,0.0,0.0,0.0,0.0,0.0,0.0,0.0,0.0,0.0,0.0,0.0,0.0,0.0,0.0,0.0,0.0,-0.6237,0.0,0.0,0.0,0.0,0.0,0.0,0.0,0.0,0.0,0.0,0.0,0.0,0.0,0.0,0.0,0.0,0.0,0.0,0.0,0.0,0.0,0.0,0.0,0.0,0.0,0.0,0.0,0.0,0.0,0.0,0.0,0.0,0.0,0.0,0.0,0.0,0.0,0.0,0.0,0.0,0.0,0.0,0.0,0.0,0.0,0.0,0.0,0.0,0.0,0.0,0.0,0.0,0.0,0.0,0.0,0.0,0.0,0.0,0.0,0.0,0.0,0.0,0.0,0.0,0.0,0.0,0.0,0.0,0.0,0.0,0.0,0.0,0.0,0.0,0.0,0.0,0.0,0.0,0.0,0.0,0.0,0.0,0.0,0.0,0.0,0.0,0.0,0.0,0.0,0.0,0.0,0.0,0.0,0.0,0.0,0.0,0.0,0.0,0.0,0.0,0.0,0.0,0.0,0.0,0.0,0.0,0.0,0.0,0.0,0.0,-0.7269,-0.669,-0.6514,-0.6236,-0.5842,0.0,0.0,0.0,0.0,0.0,0.0,0.0,0.0,0.0,0.0,0.0,0.0,0.0,0.0,0.0,0.0,0.0,0.0,0.0,0.0,0.0,0.0,0.0,0.0,0.0,0.0,0.0,0.0,0.0,0.0,0.0,0.0,0.0,0.0,0.0,0.0,0.0,0.0,0.0,0.0,0.0,0.0,0.0,0.0,0.0,0.0,0.0,0.0,0.0,0.0,0.0,0.0,0.0,0.0,0.0,0.0,0.0,0.0,0.0,0.0,0.0,0.0,0.0,0.0,0.0,0.0,0.0,0.0,0.0,0.0,0.0,0.0,0.0,0.0,0.0,0.0,0.0,0.0,0.0,0.0,0.0,0.0,0.0,0.0,0.0,0.0,0.0,0.0,0.0,0.0,0.0,0.0,0.0,0.0,0.0,0.0,0.0,0.0,0.0,0.0,0.0,0.0,0.0,0.0,0.0,0.0,0.0,0.0,0.0,0.0,0.0,0.0,-0.6394,-0.6043,-0.5505,0.0,0.0,0.0,0.0,0.0,0.0,0.0,0.0,0.0,0.0,0.0,0.0,0.0,0.0,0.0,0.0,0.0,0.0,0.0,0.0,0.0,0.0,0.0,0.0,0.0,0.0,0.0,0.0,0.0,0.0,0.0,0.0,0.0,0.0,0.0,0.0,0.0,0.0,0.0,0.0,0.0,0.0,0.0,0.0,0.0,0.0,0.0,0.0,0.0,0.0,0.0,0.0,0.0,0.0,0.0,0.0,0.0,0.0,0.0,0.0,0.0,0.0,0.0,0.0,0.0,0.0,0.0,0.0,0.0,0.0,0.0,0.0,0.0,0.0,0.0,0.0,0.0,0.0,0.0,0.0,0.0,0.0,0.0,0.0,0.0,0.0,0.0,0.0,0.0,0.0,0.0,0.0,0.0,0.0,0.0,0.0,0.0,0.0,0.0,0.0,0.0,0.0,0.0,0.0,0.0,0.0,0.0,0.0,0.0,0.0,-0.6934,-0.6513,-0.6034,0.0,-0.5449,0.0,0.0,0.0,0.0,0.0,0.0,0.0,0.0,0.0,0.0,0.0,0.0,0.0,0.0,0.0,0.0,0.0,0.0,0.0,0.0,0.0,0.0,0.0,0.0,0.0,0.0,0.0,0.0,0.0,0.0,0.0,0.0,0.0,0.0,0.0,0.0,0.0,0.0,0.0,0.0,0.0,0.0,0.0,0.0,0.0,0.0,0.0,0.0,0.0,0.0,0.0,0.0,0.0,0.0,0.0,0.0,0.0,0.0,0.0,0.0,0.0,0.0,0.0,0.0,0.0,0.0,0.0,0.0,0.0,0.0,0.0,0.0,0.0,0.0,0.0,0.0,0.0,0.0,0.0,0.0,0.0,0.0,0.0,0.0,0.0,0.0,0.0,0.0,0.0,0.0,0.0,0.0,0.0,0.0,0.0,0.0,0.0,0.0,0.0,0.0,0.0,0.0,0.0,0.0,0.0,0.0,0.0,0.0,0.0,0.0,-0.6894,-0.642,-0.5708,-0.5345,0.0,0.0,0.0,0.0,0.0,0.0,0.0,0.0,0.0,0.0,0.0,0.0,0.0,0.0,0.0,0.0,0.0,0.0,0.0,0.0,0.0,0.0,0.0,0.0,0.0,0.0,0.0,0.0,0.0,0.0,0.0,0.0,0.0,0.0,0.0,0.0,0.0,0.0,0.0,0.0,0.0,0.0,0.0,0.0,0.0,0.0,0.0,0.0,0.0,0.0,0.0,0.0,0.0,0.0,0.0,0.0,0.0,0.0,0.0,0.0,0.0,0.0,0.0,0.0,0.0,0.0,0.0,0.0,0.0,0.0,0.0,0.0,0.0,0.0,0.0,0.0,0.0,0.0,0.0,0.0,0.0,0.0,0.0,0.0,0.0,0.0,0.0,0.0,0.0,0.0,0.0,0.0,0.0,0.0,0.0,0.0,0.0,0.0,0.0,0.0,0.0,0.0,0.0,0.0,0.0,0.0,0.0,0.0,0.0,0.0,-0.7349,-0.6757,-0.6065,-0.5436,-0.5168,-0.523,0.0,0.0,0.0,0.0,0.0,0.0,0.0,0.0,0.0,0.0,0.0,0.0,0.0,0.0,0.0,0.0,0.0,0.0,0.0,0.0,0.0,0.0,0.0,0.0,0.0,0.0,0.0,0.0,0.0,0.0,0.0,0.0,0.0,0.0,0.0,0.0,0.0,0.0,0.0,0.0,0.0,0.0,0.0,0.0,0.0,0.0,0.0,0.0,0.0,0.0,0.0,0.0,0.0,0.0,0.0,0.0,0.0,0.0,0.0,0.0,0.0,0.0,0.0,0.0,0.0,0.0,0.0,0.0,0.0,0.0,0.0,0.0,0.0,0.0,0.0,0.0,0.0,0.0,0.0,0.0,0.0,0.0,0.0,0.0,0.0,0.0,0.0,0.0,0.0,0.0,0.0,0.0,0.0,0.0,0.0,0.0,0.0,0.0,0.0,0.0,0.0,0.0,0.0,0.0,0.0,0.0,0.0,0.0,-0.7419,-0.6985,-0.63,-0.5486,-0.5297,-0.5091,0.0,0.0,0.0,0.0,0.0,0.0,0.0,0.0,0.0,0.0,0.0,0.0,0.0,0.0,0.0,0.0,0.0,0.0,0.0,0.0,0.0,0.0,0.0,0.0,0.0,0.0,0.0,0.0,0.0,0.0,0.0,0.0,0.0,0.0,0.0,0.0,0.0,0.0,0.0,0.0,0.0,0.0,0.0,0.0,0.0,0.0,0.0,0.0,0.0,0.0,0.0,0.0,0.0,0.0,0.0,0.0,0.0,0.0,0.0,0.0,0.0,0.0,0.0,0.0,0.0,0.0,0.0,0.0,0.0,0.0,0.0,0.0,0.0,0.0,0.0,0.0,0.0,0.0,0.0,0.0,0.0,0.0,0.0,0.0,0.0,0.0,0.0,0.0,0.0,0.0,0.0,0.0,0.0,0.0,0.0,0.0,0.0,0.0,0.0,0.0,0.0,0.0,0.0,0.0,0.0,0.0,0.0,0.0,0.0,-0.7076,-0.6398,-0.5845,-0.5371,-0.5192,-0.5033,0.0,0.0,0.0,0.0,0.0,0.0,0.0,0.0,0.0,0.0,0.0,0.0,0.0,0.0,0.0,0.0,0.0,0.0,0.0,0.0,0.0,0.0,0.0,0.0,0.0,0.0,0.0,0.0,0.0,0.0,0.0,0.0,0.0,0.0,0.0,0.0,0.0,0.0,0.0,0.0,0.0,0.0,0.0,0.0,0.0,0.0,0.0,0.0,0.0,0.0,0.0,0.0,0.0,0.0,0.0,0.0,0.0,0.0,0.0,0.0,0.0,0.0,0.0,0.0,0.0,0.0,0.0,0.0,0.0,0.0,0.0,0.0,0.0,0.0,0.0,0.0,0.0,0.0,0.0,0.0,0.0,0.0,0.0,0.0,0.0,0.0,0.0,0.0,0.0,0.0,0.0,0.0,0.0,0.0,0.0,0.0,0.0,0.0,0.0,0.0,0.0,0.0,0.0,0.0,0.0,0.0,0.0,0.0,0.0,-0.6532,0.0,-0.5507,-0.528,-0.5111,-0.4928,0.0,0.0,0.0,0.0,0.0,0.0,0.0,0.0,0.0,0.0,0.0,0.0,0.0,0.0,0.0,0.0,0.0,0.0,0.0,0.0,0.0,0.0,0.0,0.0,0.0,0.0,0.0,0.0,0.0,0.0,0.0,0.0,0.0,0.0,0.0,0.0,0.0,0.0,0.0,0.0,0.0,0.0,0.0,0.0,0.0,0.0,0.0,0.0,0.0,0.0,0.0,0.0,0.0,0.0,0.0,0.0,0.0,0.0,0.0,0.0,0.0,0.0,0.0,0.0,0.0,0.0,0.0,0.0,0.0,0.0,0.0,0.0,0.0,0.0,0.0,0.0,0.0,0.0,0.0,0.0,0.0,0.0,0.0,0.0,0.0,0.0,0.0,0.0,0.0,0.0,0.0,0.0,0.0,0.0,0.0,0.0,0.0,0.0,0.0,0.0,0.0,0.0,0.0,0.0,0.0,0.0,0.0,0.0,-0.6878,-0.5771,-0.5458,-0.5333,-0.5285,-0.5001,-0.4779,0.0,0.0,0.0,0.0,0.0,0.0,0.0,0.0,0.0,0.0,0.0,0.0,0.0,0.0,0.0,0.0,0.0,0.0,0.0,0.0,0.0,0.0,0.0,0.0,0.0,0.0,0.0,0.0,0.0,0.0,0.0,0.0,0.0,0.0,0.0,0.0,0.0,0.0,0.0,0.0,0.0,0.0,0.0,0.0,0.0,0.0,0.0,0.0,0.0,0.0,0.0,0.0,0.0,0.0,0.0,0.0,0.0,0.0,0.0,0.0,0.0,0.0,0.0,0.0,0.0,0.0,0.0,0.0,0.0,0.0,0.0,0.0,0.0,0.0,0.0,0.0,0.0,0.0,0.0,0.0,0.0,0.0,0.0,0.0,0.0,0.0,0.0,0.0,0.0,0.0,0.0,0.0,0.0,0.0,0.0,0.0,0.0,0.0,0.0,0.0,0.0,0.0,0.0,0.0,0.0,0.0,0.0,0.0,0.0,-0.5882,-0.558,-0.5482,-0.554,-0.5382,-0.5157,0.0,0.0,0.0,0.0,0.0,0.0,0.0,0.0,0.0,0.0,0.0,0.0,0.0,0.0,0.0,0.0,0.0,0.0,0.0,0.0,0.0,0.0,0.0,0.0,0.0,0.0,0.0,0.0,0.0,0.0,0.0,0.0,0.0,0.0,0.0,0.0,0.0,0.0,0.0,0.0,0.0,0.0,0.0,0.0,0.0,0.0,0.0,0.0,0.0,0.0,0.0,0.0,0.0,0.0,0.0,0.0,0.0,0.0,0.0,0.0,0.0,0.0,0.0,0.0,0.0,0.0,0.0,0.0,0.0,0.0,0.0,0.0,0.0,0.0,0.0,0.0,0.0,0.0,0.0,0.0,0.0,0.0,0.0,0.0,0.0,0.0,0.0,0.0,0.0,0.0,0.0,0.0,0.0,0.0,0.0,0.0,0.0,0.0,0.0,0.0,0.0,0.0,0.0,0.0,0.0,0.0,0.0,0.0,0.0,-0.648,-0.6236,-0.6134,-0.6241,-0.6006,-0.5766,-0.549,0.0,0.0,0.0,0.0,0.0,0.0,0.0,0.0,0.0,0.0,0.0,0.0,0.0,0.0,0.0,0.0,0.0,0.0,0.0,0.0,0.0,0.0,0.0,0.0,0.0,0.0,0.0,0.0,0.0,0.0,0.0,0.0,0.0,0.0,0.0,0.0,0.0,0.0,0.0,0.0,0.0,0.0,0.0,0.0,0.0,0.0,0.0,0.0,0.0,0.0,0.0,0.0,0.0,0.0,0.0,0.0,0.0,0.0,0.0,0.0,0.0,0.0,0.0,0.0,0.0,0.0,0.0,0.0,0.0,0.0,0.0,0.0,0.0,0.0,0.0,0.0,0.0,0.0,0.0,0.0,0.0,0.0,0.0,0.0,0.0,0.0,0.0,0.0,0.0,0.0,0.0,0.0,0.0,0.0,0.0,0.0,0.0,0.0,0.0,0.0,0.0,0.0,0.0,0.0,0.0,0.0,0.0,0.0,-0.7427,-0.7321,-0.7224,-0.7164,-0.6742,-0.6487,0.0,0.0,0.0,0.0,0.0,0.0,0.0,0.0,0.0,0.0,0.0,0.0,0.0,0.0,0.0,0.0,0.0,0.0,0.0,0.0,0.0,0.0,0.0,0.0,0.0,0.0,0.0,0.0,0.0,0.0,0.0,0.0,0.0,0.0,0.0,0.0,0.0,0.0,0.0,0.0,0.0,0.0,0.0,0.0,0.0,0.0,0.0,0.0,0.0,0.0,0.0,0.0,0.0,0.0,0.0,0.0,0.0,0.0,0.0,0.0,0.0,0.0,0.0,0.0,0.0,0.0,0.0,0.0,0.0,0.0,0.0,0.0,0.0,0.0,0.0,0.0,0.0,0.0,0.0,0.0,0.0,0.0,0.0,0.0,0.0,0.0,0.0,0.0,0.0,0.0,0.0,0.0,0.0,0.0,0.0,0.0,0.0,0.0,0.0,0.0,0.0,0.0,0.0,0.0,0.0,0.0,0.0,0.0,0.0,-0.8065,-0.8529,-0.8552,-0.8082,-0.7404,-0.7071,0.0,0.0,0.0,0.0,0.0,0.0,0.0,0.0,0.0,0.0,0.0,0.0,0.0,0.0,0.0,0.0,0.0,0.0,0.0,0.0,0.0,0.0,0.0,0.0,0.0,0.0,0.0,0.0,0.0,0.0,0.0,0.0,0.0,0.0,0.0,0.0,0.0,0.0,0.0,0.0,0.0,0.0,0.0,0.0,0.0,0.0,0.0,0.0,0.0,0.0,0.0,0.0,0.0,0.0,0.0,0.0,0.0,0.0,0.0,0.0,0.0,0.0,0.0,0.0,0.0,0.0,0.0,0.0,0.0,0.0,0.0,0.0,0.0,0.0,0.0,0.0,0.0,0.0,0.0,0.0,0.0,0.0,0.0,0.0,0.0,0.0,0.0,0.0,0.0,0.0,0.0,0.0,0.0,0.0,0.0,0.0,0.0,0.0,0.0,0.0,0.0,0.0,0.0,0.0,0.0,0.0,0.0,0.0,-0.8531,-0.8663,-0.921,-0.9481,-0.9537,-0.8558,-0.8048,0.0,0.0,0.0,0.0,0.0,0.0,0.0,0.0,0.0,0.0,0.0,0.0,0.0,0.0,0.0,0.0,0.0,0.0,0.0,0.0,0.0,0.0,0.0,0.0,0.0,0.0,0.0,0.0,0.0,0.0,0.0,0.0,0.0,0.0,0.0,0.0,0.0,0.0,0.0,0.0,0.0,0.0,0.0,0.0,0.0,0.0,0.0,0.0,0.0,0.0,0.0,0.0,0.0,0.0,0.0,0.0,0.0,0.0,0.0,0.0,0.0,0.0,0.0,0.0,0.0,0.0,0.0,0.0,0.0,0.0,0.0,0.0,0.0,0.0,0.0,0.0,0.0,0.0,0.0,0.0,0.0,0.0,0.0,0.0,0.0,0.0,0.0,0.0,0.0,0.0,0.0,0.0,0.0,0.0,0.0,0.0,0.0,0.0,0.0,0.0,0.0,0.0,0.0,0.0,0.0,0.0,0.0,0.0,-0.8878,-0.9259,-0.9548,-1.018,-1.1091,-0.9956,-0.9242,0.0,0.0,0.0,0.0,0.0,0.0,0.0,0.0,0.0,0.0,0.0,0.0,0.0,0.0,0.0,0.0,0.0,0.0,0.0,0.0,0.0,0.0,0.0,0.0,0.0,0.0,0.0,0.0,0.0,0.0,0.0,0.0,0.0,0.0,0.0,0.0,0.0,0.0,0.0,0.0,0.0,0.0,0.0,0.0,0.0,0.0,0.0,0.0,0.0,0.0,0.0,0.0,0.0,0.0,0.0,0.0,0.0,0.0,0.0,0.0,0.0,0.0,0.0,0.0,0.0,0.0,0.0,0.0,0.0,0.0,0.0,0.0,0.0,0.0,0.0,0.0,0.0,0.0,0.0,0.0,0.0,0.0,0.0,0.0,0.0,0.0,0.0,0.0,0.0,0.0,0.0,0.0,0.0,0.0,0.0,0.0,0.0,0.0,0.0,0.0,0.0,0.0,0.0,0.0,0.0,0.0,0.0,0.0,-0.9366,-0.969,-1.0223,-1.0874,-1.156,-1.0409,-0.9819,0.0,0.0,0.0,0.0,0.0,0.0,0.0,0.0,0.0,0.0,0.0,0.0,0.0,0.0,0.0,0.0,0.0,0.0,0.0,0.0,0.0,0.0,0.0,0.0,0.0,0.0,0.0,0.0,0.0,0.0,0.0,0.0,0.0,0.0,0.0,0.0,0.0,0.0,0.0,0.0,0.0,0.0,0.0,0.0,0.0,0.0,0.0,0.0,-1.7308,0.0,0.0,0.0,0.0,0.0,0.0,0.0,0.0,0.0,0.0,0.0,0.0,0.0,0.0,0.0,0.0,0.0,0.0,0.0,0.0,0.0,0.0,0.0,0.0,0.0,0.0,0.0,0.0,0.0,0.0,0.0,0.0,0.0,0.0,0.0,0.0,0.0,0.0,0.0,0.0,0.0,0.0,0.0,0.0,0.0,0.0,0.0,0.0,0.0,0.0,0.0,0.0,0.0,0.0,0.0,0.0,0.0,0.0,0.0,-0.9761,-0.9845,-1.0286,-1.0845,-1.1562,-1.1123,-1.0702,0.0,0.0,0.0,0.0,0.0,0.0,0.0,0.0,0.0,0.0,0.0,0.0,0.0,0.0,0.0,0.0,0.0,0.0,0.0,0.0,0.0,0.0,0.0,0.0,0.0,0.0,0.0,0.0,0.0,0.0,0.0,0.0,0.0,0.0,0.0,0.0,0.0,0.0,0.0,0.0,0.0,0.0,0.0,0.0,0.0,0.0,0.0,0.0,0.0,0.0,0.0,0.0,0.0,0.0,0.0,0.0,0.0,0.0,0.0,0.0,0.0,0.0,0.0,0.0,0.0,0.0,0.0,0.0,0.0,0.0,0.0,0.0,0.0,0.0,0.0,0.0,0.0,0.0,0.0,0.0,0.0,0.0,0.0,0.0,0.0,0.0,0.0,0.0,0.0,0.0,0.0,0.0,0.0,0.0,0.0,0.0,0.0,0.0,0.0,0.0,0.0,0.0,0.0,0.0,0.0,0.0,0.0,-0.992,-1.0101,-0.994,-1.0303,-1.0821,-1.149,-1.1783,-1.1704,-1.1072,0.0,0.0,0.0,0.0,0.0,0.0,0.0,0.0,0.0,0.0,0.0,0.0,0.0,0.0,0.0,0.0,0.0,0.0,0.0,0.0,0.0,0.0,0.0,0.0,0.0,0.0,0.0,0.0,0.0,0.0,0.0,0.0,0.0,0.0,0.0,0.0,0.0,0.0,-1.7531,-1.6921,0.0,0.0,0.0,0.0,0.0,0.0,0.0,0.0,-1.7298,0.0,0.0,0.0,0.0,0.0,0.0,0.0,0.0,0.0,0.0,0.0,0.0,0.0,0.0,0.0,0.0,0.0,0.0,0.0,0.0,0.0,0.0,0.0,0.0,0.0,0.0,0.0,0.0,0.0,0.0,0.0,0.0,0.0,0.0,0.0,0.0,0.0,0.0,0.0,0.0,0.0,0.0,0.0,0.0,0.0,0.0,0.0,0.0,0.0,0.0,0.0,0.0,0.0,0.0,0.0,0.0,-1.0399,-1.0475,-1.0345,-1.011,-1.1264,-1.1724,-1.1537,-1.2292,-1.2423,-1.1767,0.0,0.0,0.0,0.0,0.0,0.0,0.0,0.0,0.0,0.0,0.0,0.0,0.0,0.0,0.0,0.0,0.0,0.0,0.0,0.0,0.0,0.0,0.0,0.0,0.0,0.0,0.0,0.0,0.0,0.0,0.0,0.0,0.0,0.0,0.0,0.0,0.0,0.0,0.0,-1.6595,-1.6262,0.0,0.0,0.0,0.0,0.0,0.0,0.0,0.0,-1.7735,0.0,0.0,0.0,0.0,0.0,0.0,0.0,0.0,0.0,0.0,0.0,0.0,0.0,0.0,0.0,0.0,0.0,0.0,0.0,0.0,0.0,0.0,0.0,0.0,0.0,0.0,0.0,0.0,0.0,0.0,0.0,0.0,0.0,0.0,0.0,0.0,0.0,0.0,0.0,0.0,0.0,0.0,0.0,0.0,0.0,0.0,0.0,0.0,0.0,0.0,0.0,0.0,0.0,0.0,0.0,-1.0969,-1.111,-1.0983,-1.0666,-1.1509,-1.2032,-1.2115,-1.2508,-1.2532,0.0,0.0,0.0,0.0,0.0,0.0,0.0,0.0,0.0,0.0,0.0,0.0,0.0,0.0,0.0,0.0,0.0,0.0,0.0,0.0,0.0,0.0,0.0,0.0,0.0,0.0,0.0,0.0,0.0,0.0,0.0,0.0,0.0,0.0,0.0,0.0,0.0,0.0,0.0,0.0,-1.638,-1.6088,-1.5792,0.0,0.0,0.0,0.0,0.0,0.0,-1.7687,-1.7985,0.0,0.0,0.0,0.0,0.0,0.0,0.0,0.0,0.0,0.0,0.0,0.0,0.0,0.0,0.0,0.0,0.0,0.0,0.0,0.0,0.0,0.0,0.0,0.0,0.0,0.0,0.0,0.0,0.0,0.0,0.0,0.0,0.0,0.0,0.0,0.0,0.0,0.0,0.0,0.0,0.0,0.0,0.0,0.0,0.0,0.0,0.0,0.0,0.0,0.0,0.0,0.0,0.0,0.0,0.0,-1.1521,-1.1744,-1.1661,-1.1224,-1.1756,-1.2256,-1.2599,-1.2523,-1.2487,0.0,0.0,0.0,0.0,0.0,0.0,0.0,0.0,0.0,0.0,0.0,0.0,0.0,0.0,0.0,0.0,0.0,0.0,0.0,0.0,0.0,0.0,0.0,0.0,0.0,0.0,0.0,0.0,0.0,0.0,0.0,0.0,0.0,0.0,0.0,0.0,0.0,0.0,0.0,0.0,0.0,-1.5957,-1.576,-1.5881,0.0,0.0,0.0,0.0,-1.7795,-1.7676,0.0,0.0,0.0,0.0,0.0,0.0,0.0,0.0,0.0,0.0,0.0,0.0,0.0,0.0,0.0,0.0,0.0,0.0,0.0,0.0,0.0,0.0,0.0,0.0,0.0,0.0,0.0,0.0,0.0,0.0,0.0,0.0,0.0,0.0,0.0,0.0,0.0,0.0,0.0,0.0,0.0,0.0,0.0,0.0,0.0,0.0,0.0,0.0,0.0,0.0,0.0,0.0,0.0,0.0,0.0,0.0,-1.2267,-1.2406,-1.2179,-1.1542,-1.2484,-1.2775,-1.2261,-1.2456,-1.2415,0.0,0.0,0.0,0.0,0.0,0.0,0.0,0.0,0.0,0.0,0.0,0.0,0.0,0.0,0.0,0.0,0.0,0.0,0.0,0.0,0.0,0.0,0.0,0.0,0.0,0.0,0.0,0.0,0.0,0.0,0.0,0.0,0.0,0.0,0.0,0.0,0.0,0.0,0.0,0.0,0.0,-1.6057,-1.576,-1.5881,-1.6088,0.0,0.0,-1.7196,-1.7795,-1.7902,0.0,0.0,0.0,0.0,0.0,0.0,0.0,0.0,0.0,0.0,0.0,0.0,0.0,0.0,0.0,0.0,0.0,0.0,0.0,0.0,0.0,0.0,0.0,0.0,0.0,0.0,0.0,0.0,0.0,0.0,0.0,0.0,0.0,0.0,0.0,0.0,0.0,0.0,0.0,0.0,0.0,0.0,0.0,0.0,0.0,0.0,0.0,0.0,0.0,0.0,0.0,0.0,0.0,0.0,0.0,-1.2576,-1.2806,-1.2958,-1.285,-1.2555,-1.3303,-1.3572,-1.326,-1.28,-1.2458,0.0,0.0,0.0,0.0,0.0,0.0,0.0,0.0,0.0,0.0,0.0,0.0,0.0,0.0,0.0,0.0,0.0,0.0,0.0,0.0,0.0,0.0,0.0,0.0,0.0,0.0,0.0,0.0,0.0,0.0,0.0,0.0,0.0,0.0,0.0,0.0,0.0,0.0,0.0,0.0,0.0,0.0,-1.5792,-1.5969,0.0,0.0,0.0,-1.7277,-1.7765,0.0,0.0,0.0,0.0,0.0,0.0,0.0,0.0,0.0,0.0,0.0,0.0,0.0,0.0,0.0,0.0,0.0,0.0,0.0,0.0,0.0,0.0,0.0,0.0,0.0,0.0,0.0,0.0,0.0,0.0,0.0,0.0,0.0,0.0,0.0,0.0,0.0,0.0,0.0,0.0,0.0,0.0,0.0,0.0,0.0,0.0,0.0,0.0,0.0,0.0,0.0,0.0,0.0,0.0,0.0,0.0,0.0,-1.3234,-1.3459,-1.3542,-1.3481,-1.3916,-1.4109,-1.3984,-1.3122,0.0,0.0,0.0,0.0,0.0,0.0,0.0,0.0,0.0,0.0,0.0,0.0,0.0,0.0,0.0,0.0,0.0,0.0,0.0,0.0,0.0,0.0,0.0,0.0,0.0,0.0,0.0,-1.5358,0.0,0.0,0.0,0.0,0.0,0.0,0.0,0.0,0.0,0.0,0.0,0.0,0.0,0.0,-1.6434,-1.6435,-1.6536,-1.6715,0.0,0.0,-1.7927,-1.8289,-1.899,-1.9796,0.0,0.0,0.0,0.0,0.0,0.0,0.0,0.0,0.0,0.0,0.0,0.0,0.0,0.0,0.0,0.0,0.0,0.0,0.0,0.0,0.0,0.0,0.0,0.0,0.0,0.0,0.0,0.0,0.0,0.0,0.0,0.0,0.0,0.0,0.0,0.0,0.0,0.0,0.0,0.0,0.0,0.0,0.0,0.0,0.0,0.0,0.0,0.0,0.0,0.0,0.0,0.0,0.0,0.0,-1.4101,-1.3586,-1.3871,-1.3998,-1.3952,-1.4182,-1.4205,-1.4016,-1.3267,-1.2643,0.0,0.0,0.0,0.0,0.0,0.0,0.0,0.0,0.0,0.0,0.0,0.0,0.0,0.0,0.0,0.0,0.0,0.0,0.0,0.0,0.0,0.0,0.0,0.0,0.0,0.0,0.0,0.0,0.0,0.0,0.0,0.0,0.0,0.0,0.0,0.0,0.0,0.0,0.0,0.0,0.0,-1.7314,-1.8105,-1.8006,-1.816,0.0,-1.9181,-1.9435,-1.9699,-2.0217,-2.0812,-2.1513,0.0,0.0,0.0,0.0,0.0,0.0,0.0,0.0,0.0,0.0,0.0,0.0,0.0,0.0,0.0,0.0,0.0,0.0,0.0,0.0,0.0,0.0,0.0,0.0,0.0,0.0,0.0,0.0,0.0,0.0,0.0,0.0,0.0,0.0,0.0,0.0,0.0,0.0,0.0,0.0,0.0,0.0,0.0,0.0,0.0,0.0,0.0,0.0,0.0,0.0,0.0,0.0,0.0,-1.4849,-1.4129,-1.4824,-1.4918,-1.4313,-1.4655,-1.4694,-1.438,-1.3532,-1.2902,0.0,0.0,0.0,0.0,0.0,0.0,0.0,0.0,0.0,0.0,0.0,0.0,0.0,0.0,0.0,0.0,0.0,0.0,0.0,0.0,0.0,0.0,0.0,0.0,0.0,0.0,0.0,0.0,-1.6409,-1.6889,-1.7824,0.0,0.0,0.0,0.0,0.0,0.0,0.0,0.0,0.0,0.0,-1.8481,-1.8642,-1.8634,0.0,0.0,-1.9588,-1.9956,-2.0444,-2.1153,-2.1797,-2.2245,-2.2727,0.0,0.0,0.0,0.0,0.0,0.0,0.0,0.0,0.0,0.0,0.0,0.0,0.0,0.0,0.0,0.0,0.0,0.0,0.0,0.0,0.0,0.0,0.0,0.0,0.0,0.0,0.0,0.0,0.0,0.0,0.0,0.0,0.0,0.0,0.0,0.0,0.0,0.0,0.0,0.0,0.0,0.0,0.0,0.0,0.0,0.0,0.0,0.0,0.0,0.0,0.0,0.0,-1.5457,-1.4631,-1.5308,-1.536,-1.4631,-1.4879,-1.4828,-1.4499,-1.3697,-1.3207,0.0,0.0,0.0,0.0,0.0,0.0,0.0,0.0,0.0,0.0,0.0,0.0,0.0,0.0,0.0,0.0,0.0,0.0,0.0,0.0,0.0,0.0,0.0,0.0,0.0,0.0,0.0,0.0,-1.6754,-1.7504,-1.8792,0.0,0.0,0.0,0.0,0.0,0.0,0.0,0.0,0.0,0.0,-1.9498,-1.9787,-1.984,-1.9919,-2.0239,-2.0584,-2.1024,-2.1512,-2.2203,-2.2753,-2.3062,0.0,0.0,0.0,0.0,0.0,0.0,0.0,0.0,0.0,0.0,0.0,0.0,0.0,0.0,0.0,0.0,0.0,0.0,0.0,0.0,0.0,0.0,0.0,0.0,0.0,0.0,0.0,-1.7516,0.0,0.0,-1.8475,0.0,0.0,0.0,0.0,0.0,0.0,0.0,0.0,0.0,0.0,0.0,0.0,0.0,0.0,0.0,0.0,0.0,0.0,0.0,0.0,0.0,0.0,-1.5984,-1.5209,-1.5235,-1.5222,-1.5133,-1.4719,-1.4498,-1.4364,-1.3787,-1.3459,-1.3391,0.0,0.0,0.0,0.0,0.0,0.0,0.0,0.0,0.0,0.0,0.0,0.0,0.0,0.0,0.0,0.0,0.0,0.0,0.0,0.0,0.0,0.0,0.0,0.0,0.0,0.0,-1.6316,-1.7235,-1.8314,0.0,0.0,0.0,0.0,0.0,0.0,0.0,0.0,0.0,-2.0785,-2.0387,-2.0429,-2.1899,-2.188,-2.1899,-2.2406,-2.256,-2.2786,-2.3143,-2.3522,-2.3852,0.0,0.0,0.0,0.0,0.0,0.0,0.0,0.0,0.0,0.0,0.0,0.0,0.0,0.0,0.0,0.0,0.0,0.0,0.0,0.0,0.0,0.0,0.0,0.0,0.0,0.0,0.0,-1.8952,-1.9559,0.0,0.0,0.0,0.0,0.0,0.0,0.0,0.0,0.0,0.0,0.0,-2.3518,-2.3484,0.0,0.0,0.0,0.0,0.0,0.0,0.0,0.0,0.0,0.0,0.0,0.0,-1.7002,-1.57,-1.5992,-1.5708,-1.4769,-1.4764,-1.5008,-1.5519,-1.4628,-1.4052,-1.3868,0.0,0.0,0.0,0.0,0.0,0.0,0.0,0.0,0.0,0.0,0.0,0.0,0.0,0.0,0.0,0.0,0.0,0.0,0.0,0.0,0.0,0.0,0.0,0.0,0.0,-1.6447,0.0,0.0,0.0,0.0,0.0,0.0,0.0,0.0,0.0,0.0,-2.0184,-2.0454,-2.1556,-2.1902,-2.2175,-2.2606,-2.2572,-2.2632,0.0,0.0,0.0,0.0,0.0,0.0,0.0,0.0,0.0,0.0,0.0,0.0,0.0,0.0,-2.3113,-2.2904,-2.2979,-2.3009,-2.2979,0.0,0.0,0.0,0.0,0.0,0.0,0.0,0.0,0.0,0.0,0.0,0.0,0.0,0.0,-2.0259,-2.0891,-2.1245,0.0,0.0,0.0,0.0,0.0,0.0,0.0,0.0,-2.4806,-2.511,-2.5196,-2.5478,-2.5663,-2.5749,-2.5715,-2.5357,0.0,0.0,0.0,0.0,0.0,0.0,0.0,0.0,-1.8166,-1.6454,-1.645,-1.5901,-1.4725,-1.4857,-1.5275,-1.5944,-1.5365,-1.4948,-1.467,-1.4251,-1.3993,0.0,0.0,0.0,0.0,0.0,0.0,0.0,0.0,0.0,0.0,0.0,0.0,0.0,0.0,0.0,0.0,0.0,0.0,0.0,0.0,0.0,0.0,0.0,-1.6895,0.0,0.0,0.0,0.0,0.0,0.0,0.0,0.0,0.0,-2.1225,-2.1148,-2.1459,-2.2423,-2.2933,-2.3212,-2.3348,0.0,0.0,0.0,0.0,0.0,0.0,0.0,-2.491,-2.5029,-2.5208,-2.5246,-2.4958,-2.4719,-2.4542,-2.4542,0.0,0.0,-2.3754,-2.3739,-2.3767,-2.3736,-2.3809,-2.3809,-2.3837,-2.3864,-2.3921,0.0,0.0,0.0,0.0,-2.1403,0.0,0.0,0.0,-2.1294,-2.1351,0.0,-2.1991,0.0,0.0,0.0,0.0,-2.4217,-2.4863,0.0,0.0,-2.7382,-2.7963,-2.7892,-2.8605,-2.9068,-2.9211,-2.9108,-2.9144,-2.9076,-2.588,0.0,0.0,0.0,0.0,0.0,0.0,-1.9429,-1.7437,-1.6555,-1.5703,-1.4905,-1.5011,-1.523,-1.5555,-1.5966,-1.6063,-1.5693,-1.4957,-1.4447,-1.4203,-1.4052,0.0,0.0,0.0,0.0,0.0,0.0,0.0,0.0,0.0,0.0,0.0,0.0,0.0,0.0,0.0,0.0,0.0,0.0,0.0,0.0,-1.6724,0.0,0.0,0.0,0.0,0.0,0.0,0.0,0.0,0.0,-2.1539,-2.183,-2.1715,-2.2062,-2.3473,0.0,0.0,0.0,0.0,-2.4328,-2.4395,-2.4508,-2.4605,-2.4775,-2.5146,-2.5454,-2.5567,0.0,0.0,-2.554,-2.5465,-2.5368,-2.5422,-2.5368,-2.5192,-2.4539,-2.4317,-2.423,-2.4348,-2.4395,-2.4426,-2.4542,-2.4486,-2.4511,-2.4942,0.0,0.0,0.0,0.0,-2.3147,-2.345,-2.408,-2.3644,-2.3829,-2.4451,-2.4169,0.0,0.0,0.0,0.0,0.0,0.0,-2.7933,-2.8351,-2.8623,-2.8779,-2.8955,-2.9213,-2.9455,-2.9625,-2.9776,-2.9922,-3.0043,-2.9167,-2.793,-2.6434,0.0,0.0,0.0,0.0,-1.9626,-1.7746,-1.6736,-1.5562,-1.4205,-1.4445,-1.5096,-1.6117,-1.743,-1.7408,-1.5966,-1.5645,-1.5059,-1.4111,-1.3866,0.0,0.0,0.0,0.0,0.0,0.0,0.0,0.0,0.0,0.0,0.0,0.0,0.0,0.0,0.0,0.0,0.0,0.0,0.0,-1.7053,-1.756,-1.847,0.0,0.0,0.0,0.0,0.0,0.0,0.0,0.0,0.0,-2.2844,-2.2728,-2.3021,0.0,0.0,-2.454,-2.4839,-2.4934,-2.4997,-2.5098,-2.5208,0.0,-2.5438,-2.5663,-2.5828,-2.5864,-2.5901,-2.5937,-2.601,-2.5775,-2.561,-2.561,-2.5572,-2.5675,-2.6105,-2.5637,-2.5201,-2.5068,-2.5029,-2.5045,-2.5084,-2.5091,-2.5192,-2.6525,-2.505,-2.4942,-2.4682,-2.4307,-2.4122,-2.4459,-2.5031,-2.5042,-2.5385,-2.5961,-2.6006,-2.6126,-2.6338,-2.6602,0.0,0.0,0.0,-2.8996,-2.928,-2.9462,-2.9653,-2.9867,-3.0248,-3.0543,-3.0715,-3.0933,-3.1144,-3.136,-3.108,-3.0392,-2.9161,0.0,-2.59,-2.4633,-2.2723,-2.064,-1.836,-1.6956,-1.5537,-1.408,-1.4947,-1.6165,-1.7667,-1.8604,-1.8296,-1.6702,-1.6349,-1.5613,-1.4383,-1.445,-1.498,0.0,0.0,0.0,0.0,0.0,0.0,0.0,0.0,0.0,0.0,0.0,-2.0749,-2.0317,0.0,0.0,0.0,-1.7807,-1.7867,-1.7832,-1.8641,0.0,0.0,0.0,0.0,0.0,0.0,0.0,-2.286,-2.2555,-2.274,-2.3912,-2.3818,-2.3912,-2.48,-2.5114,-2.5269,-2.5438,0.0,-2.561,-2.5721,-2.5795,-2.5832,-2.5997,-2.6156,-2.6279,-2.6382,-2.6435,-2.6435,-2.64,-2.6243,-2.6236,-2.6449,-2.6548,-2.6763,-2.754,-2.7276,-2.6714,-2.6108,-2.6005,-2.5924,-2.5648,-2.5663,-2.5848,-2.8035,-2.7038,-2.5617,-2.4879,-2.4554,-2.4333,-2.456,-2.506,-2.5756,-2.6141,-2.6422,-2.7219,-2.7784,-2.8202,-2.8574,0.0,-2.8878,-2.9168,-2.9416,-2.9556,-3.0204,-3.0548,-3.0676,-3.1474,-3.1965,-3.2126,-3.2387,-3.2657,-3.283,-3.2012,-3.1544,-3.1437,-3.0056,-2.8127,-2.5691,-2.413,-2.1957,-1.9145,-1.7331,-1.5709,-1.4376,-1.6064,-1.7835,-1.9576,-1.9492,-1.8879,-1.7792,-1.7086,-1.6169,-1.5015,-1.5453,-1.5992,-1.6539,0.0,0.0,0.0,0.0,0.0,0.0,0.0,0.0,0.0,0.0,0.0,0.0,0.0,0.0,0.0,-1.7539,0.0,-1.8624,-1.9842,0.0,0.0,0.0,-2.1957,-2.346,-2.2231,-2.2163,-2.4555,0.0,0.0,-2.5134,-2.5008,-2.4956,-2.5519,-2.568,-2.5799,-2.5845,-2.6038,-2.6193,-2.6232,-2.6314,-2.6382,-2.6725,-2.6928,-2.7148,-2.7282,-2.7208,-2.7141,-2.6927,-2.6928,-2.7216,-2.7585,-2.791,-2.8233,-2.8723,-2.8955,-2.8749,-2.7557,-2.7201,-2.6924,-2.6363,-2.6274,-2.6401,-2.9139,-2.8631,-2.8566,-2.7891,-2.6814,-2.6582,-2.664,-2.6789,-2.6413,-2.6438,-2.672,-2.6498,-2.6982,-2.8039,-2.8866,-2.9535,-3.0118,-3.081,-3.1248,-3.1445,-3.1455,-3.1597,-3.1812,-3.2162,-3.2387,-3.2472,-3.2705,-3.287,-3.2866,-3.2674,-3.2104,-3.1278,-3.0404,-2.8887,-2.673,-2.4328,-2.2018,-1.9861,-1.8068,-1.6498,-1.5269,-1.6378,-1.7666,-1.9069,-1.986,-1.9869,-1.8912,-1.8097,-1.7133,-1.5915,-1.5616,-1.6126,-1.7483,-1.8346,0.0,0.0,0.0,0.0,0.0,0.0,0.0,0.0,0.0,-2.1505,-2.1205,0.0,-2.0917,0.0,-1.9353,-1.9638,-2.0273,-2.0799,0.0,0.0,-2.1829,-2.2499,-2.3771,-2.3607,-2.385,-2.5041,-2.5018,-2.5394,-2.6606,-2.6816,-2.7019,-2.7398,-2.6754,-2.5932,-2.501,-2.6046,-2.6766,-2.6453,-2.7206,-2.7958,-2.809,-2.8639,-2.9001,-2.9055,-2.8618,-2.8122,-2.7827,-2.7776,-2.7879,-2.8015,-2.8475,-2.9123,-2.9892,-3.0118,-3.0031,-2.9573,-2.8511,-2.7528,-2.7379,-2.696,-2.6623,-2.988,-2.9064,-2.9286,-2.886,-2.8066,-2.785,-2.7786,-2.7762,-2.7558,-2.751,-2.7498,-2.7665,-2.8477,-2.9692,-3.0228,-3.0748,-3.1199,-3.1629,-3.191,-3.209,-3.191,-3.1982,-3.2319,-3.2439,-3.2523,-3.2588,-3.2802,-3.2866,-3.2816,-3.277,-3.2393,-3.1601,-3.0011,-2.851,-2.703,-2.4492,-2.2178,-2.003,-1.7632,-1.6443,-1.6473,-1.6924,-1.8047,-1.9813,-2.0467,-2.0383,-1.9594,-1.878,-1.7807,-1.6788,-1.6428,-1.6755,-1.7846,-1.8861,-1.9892,0.0,0.0,0.0,0.0,0.0,0.0,0.0,0.0,0.0,0.0,0.0,-2.1889,-2.0744,-2.054,-2.0814,-2.1617,-2.2054,-2.2719,-2.371,-2.3531,-2.4035,-2.5772,-2.4975,-2.4927,-2.6521,-2.6241,-2.6389,-2.7711,-2.7813,-2.7859,-2.8168,-2.8099,-2.7465,-2.6224,-2.6774,-2.7365,-2.7422,-2.8132,-2.8858,-2.9218,-2.9453,-2.9509,-2.933,-2.9047,-2.8669,-2.8399,-2.866,-2.8988,-2.9282,-2.9661,-3.0143,-3.0938,-3.1163,-3.1181,-3.0919,-2.9815,-2.8613,-2.8015,-2.7658,-2.7351,-3.0556,-2.9471,-2.9296,-2.9201,-2.9211,-2.8925,-2.8561,-2.8165,-2.8568,-2.8502,-2.8202,-2.9362,-3.0577,-3.1756,-3.17,-3.1771,-3.1985,-3.1839,-3.1893,-3.2073,-3.1893,-3.2054,-3.2422,-3.2507,-3.2557,-3.2639,-3.282,-3.2834,-3.2687,-3.2639,-3.2438,-3.2039,-2.945,-2.7736,-2.6888,-2.4716,-2.2273,-1.9652,-1.6842,-1.6111,-1.7531,-1.7715,-1.8933,-2.1157,-2.1256,-2.0942,-2.0316,-1.9409,-1.8577,-1.7822,-1.7733,-1.7874,-1.8237,-1.9609,-2.0639,0.0,-2.2618,0.0,0.0,0.0,0.0,0.0,0.0,0.0,0.0,-2.3392,-2.2976,-2.1967,-2.1729,-2.2069,-2.3094,-2.3687,-2.4593,-2.6079,-2.5576,-2.5971,-2.7956,-2.6462,-2.6096,-2.8415,-2.7578,-2.7434,-2.8935,-2.8725,-2.851,-2.8816,-2.9497,-2.9467,-2.8303,-2.807,-2.8328,-2.8964,-2.9206,-2.9766,-3.0411,-3.0201,-2.9864,-2.9576,-2.9506,-2.9251,-2.9054,-2.9592,-3.0254,-3.0765,-3.0941,-3.1289,-3.1898,-3.2038,-3.2003,-3.1723,-3.082,-2.9812,-2.8698,-2.8183,-2.8023,-3.1615,-3.2101,-3.1499,-3.1528,-3.1948,-3.1295,-2.9964,-2.8318,-2.7662,-2.7481,-2.7824,-2.9039,-3.011,-3.0976,-3.1046,-3.1341,-3.1839,-3.1691,-3.1765,-3.1948,-3.2001,-3.2249,-3.2539,-3.2707,-3.2758,-3.2773,-3.287,-3.2787,-3.2539,-3.2523,-3.2232,-3.1694,-2.9889,-2.8192,-2.6557,0.0,0.0,0.0,-1.7169,-1.6852,-1.7311,-1.9058,-2.0731,-2.2248,-2.2473,0.0,-2.2347,-2.1002,-2.009,-1.979,-1.9744,0.0,0.0,0.0,0.0,0.0,0.0,0.0,0.0,0.0,0.0,0.0,-2.7256,-2.6516,-2.4804,-2.4513,-2.4444,-2.4481,-2.4579,-2.4995,-2.5715,-2.5967,-2.627,-2.6623,-2.6673,-2.7046,-2.7962,-2.8216,-2.8793,-2.9648,-3.0166,-3.0568,-3.0868,-3.1106,-3.0993,-3.0709,-3.0959,-3.0853,-3.0202,-3.0053,-2.9933,-2.9661,-3.051,-3.1613,-3.2419,-3.2299,-3.188,-3.2121,-3.1573,-3.1005,-3.0645,-3.0753,-3.1012,-3.1258,-3.1686,-3.2072,-3.2368,-3.2387,-3.2039,-3.1393,-3.1429,-3.1255,-2.9796,-2.8464,-2.758,-3.2831,-3.2988,-3.2206,-3.2027,0.0,-3.1771,-3.0942,-2.9733,-2.9137,-2.9125,-2.9556,-2.9829,-3.0577,-3.162,-3.1551,-3.169,-3.202,-3.1912,-3.1875,-3.1894,-3.2161,-3.2353,-3.2588,-3.274,-3.2838,-3.2902,-3.2884,-3.2737,-3.2404,-3.2456,-3.2197,-3.1562,-2.9984,-2.8567,-2.732,-2.4622,-2.1409,-1.7758,-1.7381,-1.746,-1.8067,-1.9868,-2.1753,-2.354,-2.3456,0.0,0.0,0.0,0.0,0.0,0.0,0.0,0.0,0.0,0.0,-2.3465,-2.4408,-2.5386,-2.6289,-2.7377,-2.8007,-2.8063,-2.8073,-2.7447,-2.5893,-2.5981,-2.5979,-2.5763,-2.6056,-2.6633,-2.7433,-2.7569,-2.7926,-2.868,-2.8491,-2.8698,-2.9659,-2.9846,-3.0099,-3.0687,-3.1223,-3.1559,-3.1711,-3.1802,-3.1916,-3.1976,-3.1938,-3.1927,-3.1816,-3.1148,-3.0575,-3.0761,-3.1732,-3.2667,-3.2985,-3.2355,-3.1864,-3.1696,-3.1112,-3.0558,-3.0335,-3.0654,-3.0916,-3.0951,-3.1207,-3.1373,-3.1455,-3.1394,-3.114,-3.0672,-3.0552,-3.0311,-2.944,-2.8923,-2.832,-3.3772,-3.3328,-3.2422,-3.2,-3.1918,-3.1743,-3.1542,-3.1291,-3.1044,0.0,0.0,-3.0969,-3.1411,-3.2456,-3.2284,-3.2197,-3.2214,-3.2091,-3.2001,-3.1948,-3.2214,-3.2473,-3.2672,-3.2787,-3.2902,-3.2965,-3.2934,-3.2672,-3.2283,-3.237,-3.2179,-3.1511,-3.0219,-2.9042,-2.7886,-2.4487,-2.1292,-1.8513,-1.8185,-1.8509,-1.9283,-2.0977,-2.285,-2.4858,-2.4565,-2.424,-2.3887,-2.2517,-2.1678,-2.155,-2.0968,-2.09,-2.1516,-2.1532,-2.2204,-2.3607,-2.4597,-2.5599,-2.6621,-2.7698,-2.83,-2.8327,-2.8353,-2.7933,-2.6908,-2.7449,-2.7519,-2.6807,-2.7313,-2.8077,-2.9004,-2.8995,-2.9551,-3.0976,-3.0456,-3.0455,-3.156,-3.1229,-3.102,-3.1531,-3.1671,-3.1763,-3.202,-3.1965,-3.2108,-3.2537,-3.2535,-3.2623,-3.2787,-3.1888,-3.1381,-3.2038,-3.2517,-3.2895,-3.2847,-3.1851,-3.0812,-3.0848,-3.0205,-2.9665,-2.9719,-3.013,-3.0475,-3.06,-3.0469,-3.048,-3.0445,-3.0442,-3.0127,-2.9874,-2.9488,-2.9101,-2.8956,-2.9382,-2.9368,-3.3691,-3.4129,-3.2809,-3.2616,-3.3085,-3.2423,-3.1984,-3.1802,-3.1579,-3.1222,-3.0766,-3.1828,-3.2366,-3.2507,-3.2506,-3.2318,-3.1966,-3.1893,-3.1946,-3.2073,-3.2232,-3.2506,-3.2852,-3.2993,-3.2979,-3.2838,-3.2884,-3.2657,-3.2179,-3.2214,-3.2001,-3.1521,-3.1082,-2.9703,-2.7435,-2.5108,-2.3049,-2.1352,-2.099,-2.082,-2.0838,-2.3513,-2.5209,-2.5718,-2.6308,-2.6127,-2.51,-2.427,-2.3458,-2.2643,-2.2453,-2.2436,-2.2565,-2.2443,-2.3175,-2.4785,-2.5101,-2.595,-2.7628,-2.8037,-2.83,-2.844,-2.8569,-2.8342,-2.7734,-2.8557,-2.8947,-2.8622,-2.9251,-3.0159,-3.0871,-3.0812,-3.1078,-3.1951,-3.1882,-3.1775,-3.1912,-3.2057,-3.2092,-3.2055,-3.2267,-3.2353,-3.2404,-3.2353,-3.2336,-3.2573,-3.2606,-3.2657,-3.2784,-3.28,-3.2768,-3.2847,-3.2529,-3.2288,-3.2245,-3.1524,-3.0836,-3.0882,-3.06,-3.0291,-3.0302,-3.0342,-3.0456,-3.0599,-3.0368,-3.0327,-3.0374,-3.0439,-2.9976,-2.9437,-2.9543,-2.9726,-2.914,-2.9669,-2.9929,-3.4337,-3.4514,-3.309,-3.2597,-3.2809,-3.2336,-3.2091,-3.2073,-3.2037,-3.1899,-3.1707,-3.2329,-3.2606,-3.2674,-3.2606,-3.2472,-3.2232,-3.2073,-3.2073,-3.2197,-3.2353,-3.2539,-3.2784,-3.2961,-3.2997,-3.2852,-3.2884,-3.2657,-3.2214,-3.2267,-3.209,-3.1634,-3.1295,-3.0202,-2.8469,-2.7066,-2.5647,-2.4116,-2.2752,-2.2079,-2.2223,-2.4599,-2.6147,-2.6688,-2.706,-2.6851,-2.6071,-2.5438,-2.4653,-2.371,-2.3649,-2.3406,-2.2936,-2.2773,-2.3367,-2.4816,-2.5097,-2.5946,-2.7678,-2.8053,-2.83,-2.8466,-2.8518,-2.8458,-2.8282,-2.8631,-2.915,-2.9692,-3.0196,-3.0889,-3.2001,-3.2095,-3.2119,-3.2404,-3.2371,-3.2284,-3.2179,-3.2266,-3.2335,-3.2249,-3.2284,-3.2387,-3.2473,-3.2371,-3.2405,-3.2623,-3.2707,-3.2722,-3.269,-3.277,-3.288,-3.2952,-3.2517,-3.2173,-3.2047,-3.1018,-3.0378,-3.0279,-2.9837,-2.9611,-2.9611,-2.9548,-2.9484,-2.9475,-2.942,-2.9347,-2.9392,-2.9412,-2.916,-2.8959,-2.9333,-2.9572,-2.9402,-3.0196,-3.0693,-3.4783,-3.4553,-3.3241,-3.259,-3.2473,-3.2336,-3.2318,-3.2353,-3.2507,-3.2574,-3.2623,-3.2639,-3.2722,-3.2838,-3.2705,-3.259,-3.2507,-3.2353,-3.2301,-3.237,-3.2523,-3.2657,-3.2784,-3.2979,-3.2979,-3.2852,-3.2884,-3.2639,-3.2214,-3.2284,-3.2214,-3.1873,-3.1428,-3.0673,-2.9571,-2.8749,-2.764,-2.6228,-2.4331,-2.3431,-2.3605,-2.5296,-2.6549,-2.7242,-2.7428,-2.7261,-2.6737,-2.6295,-2.5646,-2.4774,-2.467,-2.4337,-2.3656,-2.3476,-2.3898,-2.4935,-2.5328,-2.6166,-2.7549,-2.8163,-2.8514,-2.8729,-2.8864,-2.8999,-2.9104,-2.9086,-2.9467,-3.0402,-3.0898,-3.1617,-3.2553,-3.2787,-3.274,-3.2608,-3.2523,-3.2595,-3.2668,-3.2545,-3.2546,-3.2704,-3.2704,-3.2651,-3.2669,-3.2634,-3.2633,-3.2694,-3.2707,-3.2674,-3.259,-3.2606,-3.2705,-3.2741,-3.2427,-3.2049,-3.1953,-3.0954,-3.0107,-2.9835,-2.9321,-2.9039,-2.8916,-2.8616,-2.8502,-2.867,-2.8582,-2.8603,-2.8539,-2.8797,-2.8905,-2.89,-2.9512,-3.0016,-3.0159,-3.119,-3.1625,-3.4606,-3.3793,-3.3128,-3.282,-3.274,-3.2787,-3.2805,-3.2755,-3.2948,-3.2993,-3.2916,-3.2838,-3.287,-3.2965,-3.282,-3.2674,-3.2523,-3.2539,-3.2539,-3.2523,-3.2755,-3.2916,-3.2979,-3.317,-3.306,-3.2705,-3.2802,-3.2573,-3.202,-3.2144,-3.2144,-3.2037,-3.1728,-3.1073,-3.0136,-2.9147,-2.8094,-2.7015,-2.6085,-2.5413,-2.5084,-2.5941,-2.6623,-2.7043,-2.7753,-2.7674,-2.6843,-2.6792,-2.641,-2.5656,-2.5543,-2.5438,-2.534,-2.5227,-2.5404,-2.5987,-2.633,-2.6922,-2.7922,-2.8681,-2.9187,-2.9428,-3.0142,-3.0585,-3.064,-3.0722,-3.0721,-3.1024,-3.2026,-3.2719,-3.2898,-3.2838,-3.2838,-3.2852,-3.2722,-3.2871,-3.3349,-3.308,-3.3168,-3.4518,-3.3916,-3.372,-3.3564,-3.3529,-3.3281,-3.2769,-3.2576,-3.2525,-3.2574,-3.2573,-3.2672,-3.2681,-3.221,-3.1875,-3.1787,-3.1294,-3.0559,-2.9953,-2.9849,-2.9617,-2.9284,-2.8998,-2.8834,-2.898,-2.8778,-2.8746,-2.8923,-2.9221,-2.9748,-2.9805,-3.0341,-3.1102,-3.1675,-3.2439,-3.2379,-3.4587,-3.3773,-3.3093,-3.2805,-3.2805,-3.2916,-3.2961,-3.3011,-3.3099,-3.3165,-3.3152,-3.3028,-3.306,-3.3152,-3.2997,-3.2852,-3.2722,-3.259,-3.2557,-3.2573,-3.2672,-3.2787,-3.2902,-3.3028,-3.2948,-3.2621,-3.2755,-3.259,-3.2179,-3.2144,-3.2144,-3.2108,-3.1728,-3.1073,-3.0173,-2.9034,-2.8097,-2.7562,-2.6336,-2.5859,-2.6151,-2.6426,-2.6762,-2.7174,-2.7664,-2.7734,-2.7355,-2.7455,-2.7165,-2.6446,-2.6357,-2.6145,-2.5675,-2.5482,-2.567,-2.6312,-2.7325,-2.8268,-2.9145,-2.9559,-2.9899,-3.0191,-3.0478,-3.079,-3.1137,-3.1511,-3.1764,-3.1771,-3.2162,-3.2613,-3.305,-3.3109,-3.3091,-3.3086,-3.3042,-3.3122,-3.3259,-3.303,-3.3199,-3.39,-3.3847,-3.3794,-3.3948,-3.3792,-3.3547,-3.321,-3.2858,-3.2574,-3.2641,-3.2657,-3.2705,-3.2816,-3.2581,-3.2304,-3.1984,-3.1387,-3.093,-3.0711,-3.0662,-3.0538,-3.0496,-2.9868,-2.9643,-2.9672,-2.9576,-2.9533,-2.9637,-3.029,-3.0882,-3.0972,-3.1318,-3.2092,-3.2799,-3.3245,-3.2977,-3.4319,-3.3608,-3.3298,-3.3223,-3.3255,-3.3409,-3.3345,-3.3196,-3.3238,-3.3256,-3.3201,-3.3135,-3.3104,-3.3104,-3.2948,-3.2852,-3.277,-3.2623,-3.2523,-3.2539,-3.2639,-3.2705,-3.2805,-3.2916,-3.282,-3.2623,-3.2674,-3.2541,-3.2214,-3.2073,-3.2108,-3.2073,-3.1691,-3.1062,-3.0311,-2.9071,-2.8321,-2.8013,-2.6758,-2.6322,-2.6678,-2.6647,-2.6775,-2.7149,-2.7321,-2.7461,-2.7539,-2.776,-2.7657,-2.7108,-2.7173,-2.6952,-2.6384,-2.6134,-2.6328,-2.7016,-2.8062,-2.9103,-2.9919,-3.0296,-3.0592,-3.088,-3.1023,-3.1391,-3.1838,-3.2356,-3.2657,-3.2647,-3.2563,-3.2832,-3.3225,-3.3352,-3.3364,-3.3339,-3.3375,-3.3388,-3.3502,-3.3203,-3.3161,-3.3706,-3.3723,-3.3633,-3.3925,-3.3579,-3.3196,-3.3228,-3.2891,-3.2606,-3.2722,-3.2722,-3.2787,-3.2979,-3.3024,-3.287,-3.2361,-3.2112,-3.1765,-3.1545,-3.1561,-3.1648,-3.1737,-3.0912,-3.057,-3.0664,-3.0594,-3.0564,-3.0643,-3.1291,-3.2029,-3.2176,-3.2452,-3.2903,-3.3424,-3.3625,-3.3577,-3.3568,-3.3069,-3.3866,-3.4263,-3.4344,-3.4528,-3.4159,-3.3544,-3.3465,-3.3292,-3.3145,-3.3104,-3.2975,-3.2752,-3.2654,-3.2606,-3.2606,-3.2573,-3.2489,-3.2457,-3.2722,-3.2852,-3.2823,-3.287,-3.2755,-3.2506,-3.2557,-3.2422,-3.2214,-3.202,-3.1984,-3.2073,-3.1562,-3.1106,-3.0553,-2.9494,-2.8876,-2.841,-2.765,-2.7113,-2.6726,-2.6659,-2.6652,-2.6843,-2.6775,-2.7057,-2.7411,-2.7574,-2.7642,-2.7736,-2.7833,-2.7872,-2.7826,-2.7648,-2.7835,-2.8446,-2.856,-2.8962,-2.9911,-3.0692,-3.1243,-3.1523,-3.2188,-3.2937,-3.3067,-3.3284,-3.3395,-3.3514,-3.3524,-3.3579,-3.353,-3.3549,-3.3605,-3.3753,-3.3643,-3.3915,-3.4532,-3.3453,-3.3514,-3.427,-3.404,-3.374,-3.3846,-3.3019,-3.2773,-3.2735,-3.2643,-3.2621,-3.2705,-3.2852,-3.2979,-3.3104,-3.3316,-3.3444,-3.3118,-3.2998,-3.2875,-3.2702,-3.2587,-3.2539,-3.2014,-3.1635,-3.1654,-3.1654,-3.1589,-3.1602,-3.1713,-3.217,-3.2902,-3.3239,-3.3345,-3.3733,-3.3716,-3.3726,-3.3671,-3.3934,-3.3866,-3.4875,-3.5331,-3.5299,-3.5484,-3.5321,-3.4988,-3.4608,-3.4255,-3.3972,-3.3509,-3.3055,-3.2621,-3.242,-3.2352,-3.23,-3.2214,-3.2161,-3.2232,-3.2404,-3.2557,-3.2623,-3.2669,-3.2687,-3.2573,-3.2555,-3.2555,-3.2472,-3.2353,-3.2161,-3.1912,-3.1449,-3.069,-2.9757,-2.9181,-2.8731,-2.8366,-2.7811,-2.7679,-2.7759,-2.7001,-2.6896,-2.7644,-2.7425,-2.7725,-2.8646,-2.8247,-2.8115,-2.8378,-2.794,-2.7707,-2.7742,-2.7962,-2.833,-2.8905,-2.9385,-2.9986,-3.0743,-3.134,-3.1708,-3.193,-3.2494,-3.3028,-3.3334,-3.3452,-3.3538,-3.3661,-3.378,-3.3842,-3.3947,-3.3921,-3.3921,-3.4023,-3.3947,-3.3925,-3.3963,-3.3502,-3.3369,-3.4001,-3.4076,-3.4214,-3.4147,-3.3758,-3.3368,-3.345,-3.3158,-3.2938,-3.3011,-3.314,-3.3298,-3.3462,-3.3569,-3.368,-3.3788,-3.3797,-3.3792,-3.3721,-3.3642,-3.3682,-3.338,-3.2711,-3.2576,-3.2539,-3.2516,-3.2493,-3.258,-3.2945,-3.3635,-3.3732,-3.3902,-3.3684,-3.3815,-3.3623,-3.3678,-3.4401,-3.4893,-3.5592,-3.589,-3.5823,-3.569,-3.5569,-3.5418,-3.4743,-3.4338,-3.4057,-3.37,-3.3148,-3.2491,-3.2353,-3.2102,-3.1839,-3.1785,-3.1839,-3.1929,-3.2161,-3.2301,-3.237,-3.2504,-3.257,-3.2573,-3.2588,-3.2588,-3.2573,-3.2523,-3.2266,-3.1894,-3.1283,-3.0496,-2.9535,-2.9097,-2.8766,-2.8582,-2.8388,-2.841,-2.849,-2.7743,-2.7704,-2.85,-2.8377,-2.8488,-2.9227,-2.8767,-2.8579,-2.8676,-2.8103,-2.7705,-2.7725,-2.8116,-2.868,-2.9321,-2.9847,-3.0534,-3.1291,-3.1711,-3.1949,-3.2144,-3.2521,-3.2934,-3.3214,-3.3334,-3.3481,-3.3661,-3.386,-3.4049,-3.4197,-3.4245,-3.4269,-3.4269,-3.4154,-3.4023,-3.3842,-3.3484,-3.3265,-3.3362,-3.3547,-3.3829,-3.4041,-3.3703,-3.3539,-3.3657,-3.3237,-3.3109,-3.3214,-3.3587,-3.3862,-3.4183,-3.455,-3.4666,-3.471,-3.4736,-3.4401,-3.4288,-3.4144,-3.4348,-3.4334,-3.372,-3.3408,-3.3385,-3.338,-3.3356,-3.3499,-3.3809,-3.3932,-3.3949,-3.3672,-3.3345,-3.343,-3.3453,-3.339,-3.4884,-3.5781,-3.5872,-3.6006,-3.6,-3.5337,-3.487,-3.4763,-3.39,-3.3605,-3.3543,-3.372,-3.3243,-3.23,-3.2562,-3.2105,-3.132,-3.1551,-3.1665,-3.1596,-3.2017,-3.2213,-3.2196,-3.2474,-3.2574,-3.2506,-3.2523,-3.2541,-3.2523,-3.2489,-3.2266,-3.1804,-3.1055,-3.0476,-3.0218,-2.9448,-2.9212,-2.9255,-2.9265,-2.9131,-2.8732,-2.8592,-2.8828,-2.9386,-2.9367,-2.9249,-2.9019,-2.9119,-2.9123,-2.8983,-2.8459,-2.8084,-2.7909,-2.8266,-2.895,-2.969,-2.9943,-3.0484,-3.1422,-3.1748,-3.1948,-3.2179,-3.2541,-3.2805,-3.2948,-3.3214,-3.3459,-3.3779,-3.3997,-3.4216,-3.4479,-3.4618,-3.4611,-3.4495,-3.4316,-3.4167,-3.3947,-3.3532,-3.305,-3.2727,-3.2769,-3.2659,-3.2692,-3.2882,-3.2983,-3.298,-3.3019,-3.3135,-3.3304,-3.3869,-3.4629,-3.5101,-3.5373,-3.5502,-3.5608,-3.5664,-3.515,-3.4738,-3.4551,-3.4517,-3.4495,-3.4132,-3.3981,-3.3957,-3.3873,-3.3849,-3.3462,-3.3716,-3.3796,-3.3746,-3.3364,-3.2988,-3.3006,-3.3011,-3.2914,-3.5654,-3.5945,-3.6024,-3.6383,-3.6748,-3.6047,-3.5659,-3.5496,-3.479,-3.4338,-3.4202,-3.4326,-3.3565,-3.2687,-3.3211,-3.2796,-3.1336,-3.1783,-3.1879,-3.1692,-3.2152,-3.2565,-3.2804,-3.302,-3.291,-3.2623,-3.2672,-3.2725,-3.2674,-3.2472,-3.2091,-3.1511,-3.0858,-3.0175,-2.9633,-2.9243,-2.9121,-2.9121,-2.9259,-2.9313,-2.9283,-2.8849,-2.9032,-2.9805,-2.9494,-2.9435,-2.9959,-2.9688,-2.9551,-2.9589,-2.8678,-2.8089,-2.8086,-2.8593,-2.9135,-2.9576,-3.0252,-3.069,-3.1106,-3.1466,-3.1728,-3.1965,-3.2371,-3.2641,-3.2805,-3.3011,-3.3521,-3.4233,-3.466,-3.5092,-3.5807,-3.5693,-3.5195,-3.4592,-3.4386,-3.4301,-3.4053,-3.3587,-3.3147,-3.2852,-3.2755,-3.2722,-3.2722,-3.2838,-3.2852,-3.2916,-3.3135,-3.3357,-3.3564,-3.3953,-3.4531,-3.5273,-3.5708,-3.6044,-3.5899,-3.5709,-3.5308,-3.4858,-3.4636,-3.4583,-3.4561,-3.4517,-3.4427,-3.4279,-3.4255,-3.3998,-3.3647,-3.3451,-3.3438,-3.3278,-3.2785,-3.2631,-3.2599,-3.2514,-3.2379,-3.648,-3.6593,-3.6211,-3.6358,-3.6747,-3.5681,-3.5341,-3.544,-3.4757,-3.4381,-3.4368,-3.4757,-3.4207,-3.3352,-3.4169,-3.3736,-3.2371,-3.2423,-3.2298,-3.2118,-3.2152,-3.2631,-3.3134,-3.3371,-3.314,-3.2692,-3.2573,-3.2608,-3.2674,-3.2283,-3.177,-3.1133,-3.0419,-2.9729,-2.912,-2.8826,-2.8669,-2.8764,-2.8904,-2.9152,-2.93,-2.907,-2.9258,-2.9929,-2.9772,-2.9914,-3.0418,-3.0046,-2.9871,-2.9764,-2.9083,-2.8551,-2.8429,-2.9034,-2.9593,-3.0059,-3.0576,-3.1038,-3.1368,-3.1654,-3.1819,-3.2054,-3.2353,-3.2623,-3.2838,-3.2997,-3.3575,-3.4225,-3.4807,-3.5343,-3.5733,-3.5932,-3.5398,-3.463,-3.4787,-3.4716,-3.4397,-3.3797,-3.3304,-3.3024,-3.2898,-3.2902,-3.2838,-3.2916,-3.2979,-3.3042,-3.3316,-3.3777,-3.3972,-3.4311,-3.5018,-3.5665,-3.6168,-3.6227,-3.5935,-3.5694,-3.5446,-3.5015,-3.4623,-3.4604,-3.4604,-3.4517,-3.4431,-3.4172,-3.4069,-3.3589,-3.3202,-3.281,-3.2668,-3.2391,-3.2065,-3.1636,-3.1415,-3.1802,-3.185,-3.7277,-3.7542,-3.6479,-3.6102,-3.6025,-3.4585,-3.4329,-3.4621,-3.4016,-3.3845,-3.4211,-3.5163,-3.5004,-3.4403,-3.508,-3.4809,-3.3835,-3.2995,-3.2766,-3.2713,-3.2454,-3.2561,-3.3384,-3.3756,-3.3565,-3.2995,-3.2581,-3.2406,-3.2529,-3.1912,-3.1304,-3.0525,-2.9751,-2.9178,-2.8622,-2.8189,-2.8125,-2.8367,-2.8463,-2.8701,-2.9028,-2.9287,-2.9528,-2.993,-3.0097,-3.0225,-3.0199,-3.0005,-2.9876,-2.9897,-2.9488,-2.9122,-2.9091,-2.9497,-3.0126,-3.0864,-3.1021,-3.1428,-3.1929,-3.2037,-3.2179,-3.2405,-3.2557,-3.2705,-3.2916,-3.314,-3.3502,-3.4018,-3.4843,-3.5229,-3.5192,-3.5502,-3.5492,-3.4851,-3.5025,-3.5132,-3.488,-3.4073,-3.347,-3.3099,-3.3006,-3.3011,-3.2805,-3.2948,-3.3024,-3.3147,-3.3433,-3.3953,-3.4605,-3.5032,-3.572,-3.618,-3.6507,-3.6237,-3.5878,-3.5777,-3.5473,-3.4787,-3.4495,-3.4561,-3.4604,-3.4539,-3.4431,-3.4153,-3.3766,-3.3268,-3.2789,-3.2434,-3.1942,-3.1544,-3.1054,-3.0417,-3.057,-3.1151,-3.1684,-3.7369,-3.7503,-3.652,-3.6083,-3.5996,-3.5119,-3.4513,-3.4191,-3.405,-3.426,-3.4942,-3.579,-3.583,-3.5417,-3.5844,-3.5314,-3.4111,-3.3439,-3.2912,-3.2704,-3.2611,-3.3196,-3.423,-3.4821,-3.4795,-3.4217,-3.3264,-3.2854,-3.2582,-3.1465,-3.0501,-2.9516,-2.8794,-2.8275,-2.7932,-2.7515,-2.758,-2.7879,-2.8042,-2.8222,-2.8496,-2.8842,-2.9136,-2.9364,-2.9694,-2.9858,-2.9738,-2.9499,-2.9319,-2.9335,-2.9136,-2.9255,-2.9534,-2.9837,-3.0418,-3.1067,-3.1432,-3.1711,-3.2073,-3.2266,-3.2369,-3.2669,-3.2816,-3.2943,-3.3024,-3.3201,-3.3724,-3.4531,-3.5515,-3.6356,-3.6948,-3.6866,-3.634,-3.5638,-3.5049,-3.4624,-3.4308,-3.3863,-3.3444,-3.3068,-3.2848,-3.277,-3.2737,-3.2816,-3.3019,-3.3202,-3.3623,-3.4189,-3.4936,-3.494,-3.5287,-3.6157,-3.6489,-3.6152,-3.5866,-3.5783,-3.5399,-3.4596,-3.434,-3.4431,-3.4517,-3.4517,-3.4409,-3.426,-3.3687,-3.317,-3.2612,-3.2145,-3.1507,-3.0715,-3.0446,-3.0092,-3.0607,-3.1146,-3.1647,-3.7894,-3.8019,-3.6985,-3.6435,-3.6185,-3.5487,-3.4766,-3.421,-3.4124,-3.4667,-3.5492,-3.6181,-3.6371,-3.6237,-3.6594,-3.6063,-3.4789,-3.4196,-3.3788,-3.3566,-3.3508,-3.3832,-3.4447,-3.4988,-3.5092,-3.4708,-3.3457,-3.2694,-3.21,-3.085,-2.9653,-2.8701,-2.7969,-2.7354,-2.6805,-2.6692,-2.6654,-2.6849,-2.7188,-2.7479,-2.7799,-2.8304,-2.8591,-2.8842,-2.9198,-2.9476,-2.9655,-2.9485,-2.9234,-2.9014,-2.9013,-2.9348,-2.9951,-3.0234,-3.0794,-3.1605,-3.1897,-3.2231,-3.2601,-3.2702,-3.2781,-3.297,-3.3068,-3.316,-3.3298,-3.3404,-3.3879,-3.452,-3.5752,-3.647,-3.656,-3.6365,-3.5975,-3.5364,-3.4824,-3.447,-3.4467,-3.4081,-3.3549,-3.316,-3.2898,-3.277,-3.2737,-3.2894,-3.3136,-3.3458,-3.3884,-3.4593,-3.5286,-3.4903,-3.4921,-3.5904,-3.6073,-3.5562,-3.5285,-3.5179,-3.5123,-3.437,-3.4221,-3.4316,-3.4409,-3.4435,-3.4162,-3.392,-3.3496,-3.2943,-3.2167,-3.1357,-3.0545,-2.9968,-2.9867,-3.0125,-3.0632,-3.1407,-3.1843,-3.8572,-3.8718,-3.776,-3.7081,-3.6556,-3.568,-3.5199,-3.4731,-3.4559,-3.5161,-3.6156,-3.664,-3.7024,-3.7012,-3.7341,-3.694,-3.597,-3.5057,-3.4663,-3.4404,-3.422,-3.4159,-3.4209,-3.4691,-3.4804,-3.4443,-3.3054,-3.2101,-3.1262,-2.9915,-2.8748,-2.7822,-2.7181,-2.652,-2.6054,-2.5865,-2.5811,-2.596,-2.6457,-2.6826,-2.7159,-2.7665,-2.8076,-2.8334,-2.8904,-2.9501,-2.9926,-2.997,-2.967,-2.9028,-2.9216,-2.9677,-3.0251,-3.069,-3.1401,-3.223,-3.2533,-3.2809,-3.3255,-3.3262,-3.3262,-3.335,-3.3321,-3.3339,-3.3577,-3.3689,-3.3844,-3.4178,-3.5621,-3.5857,-3.5356,-3.5011,-3.5093,-3.4977,-3.479,-3.4961,-3.5051,-3.4485,-3.3707,-3.319,-3.3037,-3.2993,-3.3037,-3.3202,-3.3486,-3.385,-3.4298,-3.4892,-3.5302,-3.5124,-3.5298,-3.5878,-3.5595,-3.4837,-3.4633,-3.4498,-3.4418,-3.4173,-3.4173,-3.4245,-3.4316,-3.4228,-3.3832,-3.3525,-3.343,-3.2516,-3.1139,-3.0357,-2.9891,-2.9632,-2.9776,-3.016,-3.0671,-3.1685,-3.2335,-3.8732,-3.8862,-3.8578,-3.8114,-3.7442,-3.6727,-3.6423,-3.6354,-3.5825,-3.6396,-3.7604,-3.8014,-3.8319,-3.8677,-3.8115,-3.7445,-3.6441,-3.5475,-3.4733,-3.3945,-3.3746,-3.3893,-3.4222,-3.4723,-3.4948,-3.4397,-3.3057,-3.1618,-3.0302,-2.8887,-2.754,-2.6768,-2.6428,-2.5879,-2.5715,-2.566,-2.5784,-2.5948,-2.6379,-2.6578,-2.6721,-2.7174,-2.766,-2.8,-2.879,-2.9589,-3.0251,-3.0707,-3.0957,-3.0831,-3.0248,-3.0228,-3.0918,-3.1321,-3.1951,-3.2613,-3.3045,-3.3302,-3.3569,-3.3634,-3.3652,-3.3743,-3.3689,-3.368,-3.3753,-3.3834,-3.3921,-3.4247,-3.5095,-3.5669,-3.554,-3.5754,-3.5437,-3.4982,-3.4831,-3.4788,-3.4682,-3.426,-3.3734,-3.3321,-3.3129,-3.3081,-3.323,-3.3524,-3.3889,-3.4263,-3.4708,-3.521,-3.5287,-3.5268,-3.5476,-3.5796,-3.5375,-3.4749,-3.4539,-3.4363,-3.4197,-3.4099,-3.4099,-3.4148,-3.4221,-3.4115,-3.3762,-3.3597,-3.3543,-3.2265,-3.0627,-3.0843,-3.0668,-3.0213,-2.9906,-3.0698,-3.1486,-3.2284,-3.2918,-3.891,-3.8979,-3.895,-3.8581,-3.8,-3.7629,-3.736,-3.713,-3.6788,-3.7281,-3.8323,-3.8618,-3.8864,-3.9075,-3.858,-3.7762,-3.6456,-3.5341,-3.4531,-3.406,-3.3905,-3.3921,-3.3825,-3.405,-3.4065,-3.3634,-3.2019,-3.0561,-2.9301,-2.8037,-2.6975,-2.619,-2.5934,-2.5674,-2.5397,-2.5495,-2.5439,-2.5453,-2.5948,-2.6272,-2.6312,-2.6669,-2.7462,-2.8222,-2.922,-3.0238,-3.1369,-3.1966,-3.2569,-3.2774,-3.2337,-3.1833,-3.2084,-3.2475,-3.2933,-3.3296,-3.3616,-3.3899,-3.4093,-3.413,-3.4124,-3.4105,-3.4023,-3.3972,-3.3972,-3.3998,-3.4074,-3.4364,-3.4982,-3.5637,-3.5762,-3.5524,-3.5228,-3.5039,-3.4889,-3.4812,-3.4609,-3.4298,-3.3972,-3.3616,-3.3524,-3.3597,-3.3751,-3.3985,-3.4333,-3.4769,-3.4933,-3.5369,-3.5337,-3.5318,-3.5299,-3.5381,-3.5097,-3.479,-3.4542,-3.434,-3.4148,-3.4023,-3.3972,-3.4049,-3.4124,-3.3963,-3.3746,-3.3456,-3.3067,-3.1797,-3.0519,-3.0939,-3.1299,-3.0833,-3.082,-3.1628,-3.2302,-3.2882,-3.3459,-3.9045,-3.9156,-3.9129,-3.8854,-3.8428,-3.8246,-3.793,-3.7543,-3.7364,-3.7766,-3.8544,-3.8822,-3.8975,-3.8994,-3.8861,-3.7871,-3.6366,-3.5296,-3.4599,-3.443,-3.452,-3.4071,-3.3511,-3.2855,-3.2193,-3.1996,-3.056,-2.9277,-2.8282,-2.7454,-2.6496,-2.6002,-2.6056,-2.5825,-2.5328,-2.5412,-2.5632,-2.5439,-2.5879,-2.6111,-2.6096,-2.6433,-2.7267,-2.8629,-2.9817,-3.1209,-3.2512,-3.3383,-3.4185,-3.5042,-3.5054,-3.4624,-3.4214,-3.4074,-3.4429,-3.4501,-3.4829,-3.4952,-3.4967,-3.487,-3.4742,-3.4483,-3.4154,-3.4074,-3.4092,-3.4074,-3.4124,-3.4426,-3.487,-3.5267,-3.5376,-3.509,-3.4823,-3.481,-3.4927,-3.4889,-3.4774,-3.4548,-3.433,-3.4043,-3.3981,-3.4037,-3.4298,-3.4564,-3.4901,-3.5181,-3.5335,-3.5444,-3.5406,-3.5364,-3.5331,-3.5223,-3.5002,-3.473,-3.4476,-3.4316,-3.4099,-3.4023,-3.3921,-3.3972,-3.4074,-3.3988,-3.3697,-3.2873,-3.215,-3.1321,-3.1049,-3.144,-3.1582,-3.1277,-3.1692,-3.242,-3.3006,-3.3479,-3.3827,-3.9129,-3.935,-3.9354,-3.9338,-3.9158,-3.8558,-3.8263,-3.825,-3.7656,-3.7963,-3.8705,-3.8918,-3.93,-3.9566,-3.9185,-3.7909,-3.642,-3.5533,-3.5119,-3.4945,-3.4911,-3.4305,-3.2737,-3.147,-3.027,-2.9042,-2.8364,-2.7862,-2.7021,-2.6165,-2.6136,-2.5948,-2.615,-2.6068,-2.6176,-2.6428,-2.6375,-2.6068,-2.6404,-2.6578,-2.6404,-2.6679,-2.753,-2.9131,-3.0443,-3.196,-3.3567,-3.4772,-3.5734,-3.6673,-3.7234,-3.7288,-3.6885,-3.6297,-3.6196,-3.6329,-3.6377,-3.6196,-3.5875,-3.566,-3.5187,-3.4591,-3.4105,-3.3921,-3.3939,-3.3947,-3.4049,-3.4136,-3.4327,-3.453,-3.461,-3.4611,-3.4666,-3.4752,-3.4889,-3.4982,-3.5049,-3.5011,-3.4832,-3.4499,-3.4466,-3.4529,-3.4785,-3.5032,-3.5299,-3.5466,-3.5571,-3.5602,-3.5568,-3.5463,-3.536,-3.5209,-3.5019,-3.4711,-3.4409,-3.4245,-3.4074,-3.4023,-3.3991,-3.3972,-3.4023,-3.4074,-3.3673,-3.311,-3.2841,-3.2608,-3.243,-3.2176,-3.215,-3.2084,-3.263,-3.3252,-3.3494,-3.3717,-3.3455,-3.8941,-3.8752,-3.8796,-3.8633,-3.8291,-3.7915,-3.7819,-3.7853,-3.7578,-3.7924,-3.8593,-3.8975,-3.9488,-3.9852,-3.9428,-3.8193,-3.6852,-3.5712,-3.542,-3.526,-3.5012,-3.3982,-3.2035,-3.0398,-2.8901,-2.755,-2.6775,-2.6582,-2.6283,-2.6244,-2.615,-2.6365,-2.6669,-2.6811,-2.6811,-2.7004,-2.7004,-2.6864,-2.6967,-2.6982,-2.6779,-2.7231,-2.8472,-2.98,-3.1478,-3.3157,-3.4688,-3.6025,-3.7053,-3.7863,-3.8444,-3.8792,-3.8751,-3.8482,-3.7898,-3.7487,-3.7166,-3.6784,-3.6197,-3.574,-3.4969,-3.4456,-3.403,-3.3895,-3.3887,-3.3895,-3.3895,-3.4005,-3.4197,-3.4293,-3.433,-3.445,-3.4626,-3.4771,-3.4889,-3.5034,-3.5197,-3.5359,-3.5206,-3.5009,-3.5056,-3.5111,-3.5249,-3.5476,-3.5677,-3.5786,-3.5797,-3.5755,-3.5688,-3.5554,-3.5391,-3.5168,-3.4963,-3.4651,-3.4363,-3.4173,-3.4049,-3.3998,-3.3972,-3.3972,-3.4023,-3.4049,-3.4006,-3.3746,-3.3626,-3.3431,-3.2903,-3.239,-3.2622,-3.2927,-3.3433,-3.3827,-3.3883,-3.3836,-3.3533,-3.8765,-3.8294,-3.8396,-3.8121,-3.7643,-3.7629,-3.7646,-3.7489,-3.7343,-3.7711,-3.8402,-3.8536,-3.9026,-3.9656,-3.9312,-3.8346,-3.7036,-3.5906,-3.5707,-3.5252,-3.4918,-3.3644,-3.1261,-2.9585,-2.7963,-2.6477,-2.5809,-2.5187,-2.6037,-2.6322,-2.6587,-2.6967,-2.7444,-2.7595,-2.7464,-2.763,-2.7515,-2.7414,-2.7414,-2.7312,-2.7373,-2.8348,-2.9561,-3.0717,-3.2796,-3.4503,-3.5887,-3.7071,-3.8002,-3.8659,-3.916,-3.9491,-3.9773,-3.9872,-3.9185,-3.7907,-3.7283,-3.6886,-3.6064,-3.5394,-3.4637,-3.3931,-3.367,-3.3597,-3.3588,-3.3532,-3.3716,-3.3902,-3.413,-3.4293,-3.4245,-3.4427,-3.4604,-3.4771,-3.4908,-3.5066,-3.5307,-3.5476,-3.5601,-3.5533,-3.5604,-3.5606,-3.5626,-3.5683,-3.5841,-3.5846,-3.5851,-3.5781,-3.5717,-3.5577,-3.5405,-3.5117,-3.487,-3.4567,-3.4316,-3.4124,-3.4023,-3.3972,-3.3921,-3.3921,-3.3972,-3.4049,-3.4006,-3.3987,-3.3873,-3.3585,-3.3078,-3.2898,-3.329,-3.3724,-3.4154,-3.4304,-3.417,-3.3821,-3.3403,-3.877,-3.8878,-3.8961,-3.8951,-3.8774,-3.8868,-3.8721,-3.8112,-3.7464,-3.7364,-3.7832,-3.7296,-3.794,-3.8876,-3.8994,-3.7755,-3.676,-3.6503,-3.6018,-3.5094,-3.4411,-3.2531,-2.9913,-2.8887,-2.7072,-2.5728,-2.5467,-2.5645,-2.6094,-2.6424,-2.6894,-2.7535,-2.7947,-2.8076,-2.8158,-2.8334,-2.8317,-2.8122,-2.822,-2.8171,-2.8278,-2.9387,-3.0577,-3.1911,-3.3698,-3.5538,-3.6889,-3.7938,-3.8733,-3.9388,-3.9642,-3.9491,-3.9166,-3.9106,-3.8665,-3.8297,-3.8123,-3.7938,-3.6138,-3.5011,-3.4105,-3.3187,-3.2666,-3.2512,-3.2709,-3.3075,-3.3361,-3.356,-3.391,-3.4173,-3.4221,-3.434,-3.4524,-3.4713,-3.4889,-3.5117,-3.5397,-3.5557,-3.5682,-3.5797,-3.5782,-3.5822,-3.5832,-3.5908,-3.5974,-3.5935,-3.589,-3.5806,-3.567,-3.5488,-3.5331,-3.5069,-3.4812,-3.4542,-3.4293,-3.4055,-3.3972,-3.3921,-3.3921,-3.3895,-3.3998,-3.4074,-3.4124,-3.4086,-3.399,-3.3999,-3.3807,-3.3825,-3.412,-3.4232,-3.4311,-3.4325,-3.4279,-3.3812,-3.3086,-3.8315,-3.8103,-3.8172,-3.7979,-3.7726,-3.7947,-3.789,-3.761,-3.743,-3.7633,-3.8059,-3.7947,-3.8288,-3.8728,-3.8327,-3.7643,-3.6939,-3.6665,-3.5648,-3.4096,-3.2901,-3.092,-2.8414,-2.6763,-2.527,-2.5239,-2.5037,-2.5551,-2.6222,-2.7193,-2.7822,-2.8369,-2.8748,-2.8904,-2.8842,-2.8997,-2.8967,-2.892,-2.8936,-2.9217,-2.9892,-3.1034,-3.2332,-3.3426,-3.5431,-3.7023,-3.8138,-3.8658,-3.9461,-4.0075,-4.0185,-3.9884,-3.9719,-3.9641,-3.9335,-3.8517,-3.8322,-3.737,-3.553,-3.4336,-3.3184,-3.2343,-3.1794,-3.1757,-3.2057,-3.2533,-3.2983,-3.3332,-3.3831,-3.4124,-3.4245,-3.4409,-3.4604,-3.4771,-3.487,-3.5098,-3.5372,-3.5572,-3.5741,-3.5841,-3.5945,-3.5901,-3.5879,-3.5864,-3.5884,-3.5857,-3.5768,-3.565,-3.5463,-3.5258,-3.5119,-3.4982,-3.4732,-3.4498,-3.4269,-3.4055,-3.3928,-3.3895,-3.3921,-3.3921,-3.4023,-3.4099,-3.4148,-3.4197,-3.4152,-3.4218,-3.4381,-3.4344,-3.4242,-3.426,-3.4316,-3.4162,-3.3957,-3.285,-3.1673,-3.8099,-3.7746,-3.7794,-3.7571,-3.7243,-3.7461,-3.766,-3.7685,-3.7404,-3.7705,-3.8207,-3.8306,-3.8325,-3.8457,-3.8061,-3.792,-3.7535,-3.633,-3.4757,-3.3036,-3.1063,-2.8881,-2.681,-2.4932,-2.4419,-2.4679,-2.4703,-2.5601,-2.7106,-2.8279,-2.9037,-2.9332,-2.9696,-2.9729,-2.9528,-2.9409,-2.938,-2.9486,-2.9781,-3.0356,-3.1227,-3.2782,-3.4134,-3.5539,-3.7094,-3.8588,-3.9634,-3.9552,-4.0047,-4.0394,-4.058,-4.0288,-3.9814,-3.9834,-3.9337,-3.8438,-3.7792,-3.6626,-3.4932,-3.3508,-3.2144,-3.1305,-3.0903,-3.0875,-3.1442,-3.2022,-3.2583,-3.297,-3.3616,-3.3954,-3.4179,-3.4409,-3.4623,-3.4751,-3.487,-3.5117,-3.5325,-3.5519,-3.5668,-3.5735,-3.5802,-3.5821,-3.5786,-3.5759,-3.5752,-3.5763,-3.5663,-3.5495,-3.5247,-3.4981,-3.487,-3.4752,-3.4628,-3.4409,-3.4221,-3.403,-3.3921,-3.3842,-3.3868,-3.3921,-3.3998,-3.4074,-3.4148,-3.4197,-3.4245,-3.4293,-3.4358,-3.4316,-3.425,-3.4195,-3.4083,-3.386,-3.3371,-3.2247,-3.0766,-3.8517,-3.8715,-3.8621,-3.8696,-3.8841,-3.9016,-3.9126,-3.893,-3.776,-3.748,-3.778,-3.7454,-3.7521,-3.76,-3.8413,-3.8305,-3.7253,-3.6078,-3.4031,-3.1838,-2.9648,-2.7287,-2.5382,-2.4339,-2.3965,-2.404,-2.4776,-2.6321,-2.7933,-2.9556,-3.017,-3.051,-3.0616,-3.0534,-3.0241,-2.9923,-2.9944,-3.0222,-3.0795,-3.148,-3.2529,-3.4042,-3.5837,-3.7264,-3.8273,-3.9276,-4.0656,-4.0252,-4.011,-4.0458,-4.0686,-4.0534,-3.989,-3.9907,-3.9351,-3.8452,-3.7361,-3.6175,-3.4599,-3.2941,-3.1284,-3.0097,-2.9648,-2.9966,-3.0583,-3.1342,-3.2003,-3.2636,-3.3284,-3.3698,-3.3979,-3.4227,-3.4495,-3.4647,-3.4811,-3.5018,-3.5228,-3.5432,-3.5581,-3.5621,-3.5646,-3.564,-3.5549,-3.5482,-3.5535,-3.5551,-3.5263,-3.5076,-3.4869,-3.4632,-3.4588,-3.4498,-3.4454,-3.4316,-3.4148,-3.3998,-3.3868,-3.3815,-3.3815,-3.3868,-3.3921,-3.4023,-3.4148,-3.4197,-3.4269,-3.4293,-3.434,-3.434,-3.4279,-3.4059,-3.3887,-3.3808,-3.305,-3.1913,-3.0454,-3.9017,-3.9227,-3.9137,-3.9129,-3.9101,-3.9245,-3.907,-3.8752,-3.8686,-3.8677,-3.8587,-3.8146,-3.807,-3.8352,-3.8137,-3.7941,-3.6743,-3.5262,-3.28,-3.017,-2.7857,-2.5986,-2.451,-2.409,-2.4158,-2.4711,-2.5819,-2.714,-2.8652,-3.0368,-3.146,-3.1752,-3.1637,-3.101,-3.0651,-3.0588,-3.074,-3.1155,-3.1991,-3.2832,-3.3591,-3.5074,-3.7021,-3.8844,-3.899,-4.0171,-4.1377,-4.0672,-4.0654,-4.0769,-4.0787,-4.0462,-4.0175,-4.0171,-3.9735,-3.9006,-3.7933,-3.636,-3.437,-3.2536,-3.0456,-2.8701,-2.8513,-2.9041,-2.98,-3.064,-3.1534,-3.2247,-3.2952,-3.3476,-3.3842,-3.4124,-3.434,-3.4517,-3.471,-3.4889,-3.5086,-3.5297,-3.5341,-3.5323,-3.5379,-3.5415,-3.529,-3.5144,-3.5245,-3.531,-3.4966,-3.464,-3.4445,-3.4325,-3.4298,-3.434,-3.4293,-3.4245,-3.4099,-3.3947,-3.3788,-3.3788,-3.3788,-3.3842,-3.3921,-3.4023,-3.4105,-3.4221,-3.4316,-3.4386,-3.4427,-3.4427,-3.4325,-3.4181,-3.4055,-3.3933,-3.291,-3.164,-3.0365,-3.9077,-3.9199,-3.8912,-3.8889,-3.9013,-3.9333,-3.9002,-3.8507,-3.8983,-3.9242,-3.9064,-3.8514,-3.8577,-3.8792,-3.822,-3.7434,-3.6193,-3.4306,-3.1632,-2.9283,-2.7205,-2.5404,-2.45,-2.4253,-2.4754,-2.5616,-2.6711,-2.7946,-2.9491,-3.1167,-3.2063,-3.2524,-3.2651,-3.2105,-3.1658,-3.1473,-3.1687,-3.216,-3.3144,-3.4028,-3.4653,-3.6131,-3.7787,-3.9448,-3.9612,-4.0552,-4.1466,-4.1189,-4.0786,-4.1017,-4.1074,-4.0845,-4.0767,-4.0684,-4.0413,-3.9851,-3.8888,-3.7109,-3.4829,-3.1671,-2.9295,-2.7575,-2.767,-2.8338,-2.9116,-3.0168,-3.1308,-3.2092,-3.2777,-3.3397,-3.3808,-3.3998,-3.4203,-3.4386,-3.4517,-3.4691,-3.487,-3.5064,-3.5043,-3.5018,-3.5051,-3.5051,-3.4827,-3.4642,-3.4718,-3.4774,-3.4581,-3.4292,-3.4074,-3.403,-3.4105,-3.4148,-3.4197,-3.4124,-3.4055,-3.3998,-3.3895,-3.378,-3.3807,-3.3895,-3.3972,-3.403,-3.4154,-3.4293,-3.4386,-3.4495,-3.4517,-3.4514,-3.445,-3.4386,-3.4263,-3.4124,-3.2943,-3.1755,-3.0809,-3.8486,-3.8537,-3.7802,-3.7974,-3.8688,-3.9307,-3.9123,-3.8361,-3.849,-3.847,-3.8377,-3.8209,-3.8436,-3.8729,-3.796,-3.7071,-3.5697,-3.3343,-3.0985,-2.9057,-2.7247,-2.5605,-2.5093,-2.5094,-2.5723,-2.6431,-2.7542,-2.8881,-3.0402,-3.1837,-3.2662,-3.2947,-3.3105,-3.309,-3.3,-3.2763,-3.2635,-3.2885,-3.4194,-3.4943,-3.5605,-3.6845,-3.8431,-3.9589,-3.9631,-4.0453,-4.1753,-4.1266,-4.0939,-4.1285,-4.138,-4.1094,-4.0654,-4.0879,-4.0593,-3.9876,-3.8857,-3.7324,-3.5415,-3.0602,-2.7906,-2.689,-2.7203,-2.8054,-2.895,-3.0166,-3.1555,-3.265,-3.3137,-3.3544,-3.3771,-3.3987,-3.4247,-3.4418,-3.4614,-3.4539,-3.4732,-3.4774,-3.4756,-3.4621,-3.462,-3.4598,-3.4319,-3.4147,-3.4189,-3.4184,-3.4105,-3.3947,-3.3762,-3.3762,-3.3868,-3.3998,-3.4074,-3.4074,-3.403,-3.4074,-3.3998,-3.386,-3.3834,-3.3895,-3.3998,-3.4099,-3.4221,-3.4363,-3.445,-3.4517,-3.458,-3.4602,-3.4427,-3.4255,-3.4417,-3.4083,-3.2937,-3.1883,-3.0997,-3.7927,-3.7966,-3.7602,-3.764,-3.7964,-3.8026,-3.764,-3.7033,-3.7426,-3.7882,-3.8327,-3.8777,-3.8618,-3.8201,-3.7569,-3.6504,-3.4549,-3.3204,-3.1021,-2.9075,-2.761,-2.7011,-2.6541,-2.6645,-2.717,-2.7975,-2.8884,-2.9946,-3.1416,-3.2629,-3.3214,-3.3515,-3.328,-3.2817,-3.2905,-3.2929,-3.3039,-3.3644,-3.4779,-3.5721,-3.5969,-3.7148,-3.8458,-3.9834,-3.9407,-4.0178,-4.1999,-4.1028,-4.0901,-4.1322,-4.1417,-4.1092,-4.0768,-4.0993,-4.046,-3.994,-3.905,-3.6075,-3.2956,-2.9003,-2.7212,-2.6798,-2.7284,-2.8404,-2.9517,-3.1527,-3.2747,-3.3579,-3.4166,-3.4715,-3.5268,-3.4935,-3.4962,-3.4989,-3.4997,-3.4622,-3.4564,-3.4486,-3.4427,-3.4204,-3.411,-3.4176,-3.4018,-3.3831,-3.3797,-3.377,-3.3716,-3.3726,-3.3559,-3.3605,-3.3689,-3.386,-3.3947,-3.3998,-3.4023,-3.4049,-3.3998,-3.386,-3.386,-3.3921,-3.4023,-3.4148,-3.4269,-3.4409,-3.4495,-3.4539,-3.432,-3.4137,-3.4158,-3.4141,-3.3975,-3.3733,-3.2826,-3.1955,-3.1236,-3.7166,-3.711,-3.6464,-3.6198,-3.6368,-3.7251,-3.7467,-3.7291,-3.7574,-3.792,-3.83,-3.8606,-3.8228,-3.7404,-3.6646,-3.586,-3.3701,-3.2276,-3.1165,-2.9335,-2.8545,-2.8005,-2.7941,-2.823,-2.8716,-2.9416,-3.0234,-3.1274,-3.24,-3.3373,-3.4081,-3.4267,-3.3545,-3.3277,-3.3112,-3.2983,-3.345,-3.4255,-3.5338,-3.6108,-3.6478,-3.7236,-3.8111,-3.8761,-3.9031,-3.9472,-4.0562,-4.0753,-4.0465,-4.0919,-4.0927,-4.0777,-4.0764,-4.0667,-4.0233,-3.997,-3.8101,-3.492,-3.1299,-2.9271,-2.7832,-2.7179,-2.8086,-2.9107,-3.0428,-3.247,-3.371,-3.4659,-3.5388,-3.581,-3.608,-3.568,-3.544,-3.5448,-3.5315,-3.4959,-3.4498,-3.4437,-3.4166,-3.3934,-3.3533,-3.3625,-3.3716,-3.3569,-3.3426,-3.3397,-3.3379,-3.3357,-3.3375,-3.3462,-3.3567,-3.3698,-3.3887,-3.3972,-3.3998,-3.4023,-3.3972,-3.386,-3.3913,-3.3972,-3.4074,-3.4221,-3.434,-3.4338,-3.4199,-3.3998,-3.3742,-3.3575,-3.3333,-3.3165,-3.2977,-3.2732,-3.2481,-3.196,-3.134,-3.6198,-3.5913,-3.4452,-3.3809,-3.4183,-3.6877,-3.8539,-3.9236,-3.8531,-3.8192,-3.8206,-3.7422,-3.7087,-3.6512,-3.5487,-3.4606,-3.3692,-3.1955,-3.0925,-3.0067,-2.9281,-2.8993,-2.91,-2.9416,-2.987,-3.0534,-3.1252,-3.1981,-3.3331,-3.397,-3.4746,-3.5163,-3.4362,-3.3698,-3.3134,-3.3184,-3.3723,-3.4544,-3.5659,-3.6394,-3.6893,-3.7323,-3.7828,-3.8176,-3.8289,-3.8812,-3.9363,-3.9211,-3.976,-3.9967,-3.9776,-3.997,-4.0141,-4.0321,-4.0051,-3.9014,-3.6771,-3.3856,-3.1276,-2.9769,-2.9218,-2.8693,-2.9229,-3.0009,-3.1328,-3.3266,-3.4623,-3.5393,-3.6009,-3.6351,-3.6537,-3.6155,-3.5783,-3.5763,-3.5717,-3.5282,-3.4697,-3.4363,-3.4036,-3.3628,-3.3055,-3.2952,-3.3136,-3.3081,-3.3068,-3.3068,-3.3068,-3.3086,-3.3165,-3.3404,-3.3462,-3.3549,-3.3753,-3.3965,-3.3998,-3.3998,-3.3947,-3.386,-3.4042,-3.4124,-3.4197,-3.4245,-3.434,-3.4244,-3.3789,-3.3534,-3.3482,-3.2938,-3.226,-3.2128,-3.22,-3.1965,-3.1794,-3.1876,-3.1443,-3.5191,-3.5018,-3.3918,-3.3742,-3.4392,-3.5806,-3.6362,-3.6177,-3.6421,-3.6607,-3.6625,-3.6911,-3.6459,-3.5813,-3.5101,-3.4166,-3.3108,-3.209,-3.1411,-3.0673,-3.0064,-3.0123,-3.0208,-3.0377,-3.073,-3.115,-3.1743,-3.2475,-3.3424,-3.4212,-3.4533,-3.4526,-3.427,-3.358,-3.3421,-3.3389,-3.396,-3.4592,-3.5815,-3.6615,-3.712,-3.7452,-3.7667,-3.7772,-3.7701,-3.8271,-3.8634,-3.867,-3.9258,-3.9593,-3.9277,-3.9163,-3.8649,-3.8328,-3.7853,-3.7132,-3.5398,-3.3512,-3.1817,-3.0733,-3.0249,-3.0578,-3.1276,-3.2031,-3.3037,-3.4091,-3.5598,-3.6133,-3.6604,-3.6906,-3.7071,-3.6801,-3.6614,-3.663,-3.6381,-3.5757,-3.5157,-3.4633,-3.4202,-3.3012,-3.2453,-3.2453,-3.2619,-3.2684,-3.2687,-3.2719,-3.277,-3.2802,-3.2948,-3.3208,-3.3357,-3.3433,-3.3661,-3.3887,-3.3939,-3.3921,-3.3895,-3.3895,-3.4049,-3.4124,-3.4099,-3.4173,-3.4316,-3.4132,-3.3717,-3.35,-3.3372,-3.277,-3.2127,-3.173,-3.1695,-3.1393,-3.1178,-3.1328,-3.1426,-3.4232,-3.4027,-3.3255,-3.3213,-3.3658,-3.3852,-3.3998,-3.4479,-3.5356,-3.5754,-3.5703,-3.5768,-3.5479,-3.4881,-3.4338,-3.3695,-3.2834,-3.202,-3.1432,-3.1078,-3.0708,-3.0651,-3.079,-3.1038,-3.1283,-3.1696,-3.2232,-3.2993,-3.3898,-3.4988,-3.5502,-3.5089,-3.424,-3.4043,-3.4032,-3.4262,-3.4401,-3.4876,-3.5544,-3.6524,-3.7076,-3.7325,-3.7343,-3.7326,-3.7184,-3.7596,-3.7898,-3.7875,-3.798,-3.8501,-3.8198,-3.8024,-3.7941,-3.8013,-3.6782,-3.6067,-3.492,-3.3583,-3.2264,-3.1705,-3.1636,-3.2054,-3.2954,-3.3497,-3.4238,-3.5202,-3.6086,-3.6786,-3.7153,-3.7445,-3.7504,-3.7567,-3.7609,-3.7667,-3.698,-3.6298,-3.5697,-3.5064,-3.3934,-3.258,-3.2091,-3.2056,-3.2127,-3.2249,-3.2352,-3.2438,-3.2573,-3.2672,-3.2802,-3.3055,-3.3178,-3.3268,-3.353,-3.3788,-3.3788,-3.3788,-3.3762,-3.3788,-3.3947,-3.3998,-3.3998,-3.4099,-3.4274,-3.4049,-3.3644,-3.3426,-3.3204,-3.2807,-3.2272,-3.1927,-3.1757,-3.1722,-3.1444,-3.1041,-3.1128,-3.3468,-3.331,-3.2502,-3.2127,-3.2072,-3.1638,-3.2155,-3.3618,-3.4563,-3.5268,-3.5119,-3.4513,-3.4222,-3.4123,-3.3733,-3.3286,-3.2634,-3.1986,-3.1487,-3.119,-3.0773,-3.0749,-3.1078,-3.1411,-3.177,-3.2213,-3.2805,-3.3458,-3.4757,-3.554,-3.5864,-3.6113,-3.6307,-3.5752,-3.4641,-3.5133,-3.5224,-3.5045,-3.5414,-3.6067,-3.6625,-3.6743,-3.66,-3.6448,-3.6397,-3.6363,-3.5989,-3.5697,-3.5521,-3.639,-3.679,-3.6819,-3.7412,-3.7791,-3.6366,-3.5477,-3.4433,-3.3682,-3.2905,-3.2531,-3.2922,-3.3327,-3.3911,-3.4365,-3.507,-3.545,-3.6096,-3.6627,-3.6962,-3.7436,-3.7573,-3.7686,-3.7796,-3.7753,-3.7349,-3.653,-3.5735,-3.4757,-3.3261,-3.2123,-3.1748,-3.1748,-3.1821,-3.1913,-3.2126,-3.2214,-3.2353,-3.2489,-3.2705,-3.2961,-3.3024,-3.3086,-3.3386,-3.3615,-3.3541,-3.3541,-3.3587,-3.3671,-3.3788,-3.3842,-3.378,-3.3988,-3.4233,-3.3995,-3.3714,-3.3259,-3.2921,-3.2637,-3.25,-3.2492,-3.2345,-3.2307,-3.1941,-3.1419,-3.1146,-3.3627,-3.3625,-3.1797,-3.0692,-3.0206,-3.0152,-3.0428,-3.1009,-3.2023,-3.3351,-3.4362,-3.4198,-3.4012,-3.388,-3.3421,-3.3027,-3.2619,-3.2127,-3.1545,-3.1196,-3.0895,-3.0998,-3.1317,-3.1677,-3.2179,-3.2651,-3.3219,-3.3907,-3.4958,-3.5436,-3.5698,-3.605,-3.6291,-3.5643,-3.5184,-3.571,-3.5614,-3.532,-3.5395,-3.5784,-3.6329,-3.634,-3.6213,-3.5951,-3.5807,-3.5741,-3.5544,-3.5598,-3.5678,-3.6103,-3.5644,-3.5547,-3.5623,-3.5525,-3.5056,-3.4297,-3.3915,-3.352,-3.3454,-3.3354,-3.371,-3.4236,-3.468,-3.5057,-3.5346,-3.5467,-3.5742,-3.6226,-3.6701,-3.7192,-3.7609,-3.7735,-3.7798,-3.7716,-3.753,-3.6602,-3.5681,-3.4124,-3.2544,-3.199,-3.15,-3.1466,-3.1524,-3.1691,-3.1856,-3.2037,-3.2179,-3.2353,-3.2606,-3.2834,-3.2834,-3.2961,-3.3274,-3.3404,-3.3327,-3.328,-3.3327,-3.3357,-3.3473,-3.353,-3.3577,-3.3839,-3.4054,-3.4031,-3.3802,-3.3438,-3.3068,-3.2675,-3.2635,-3.292,-3.2981,-3.2947,-3.2771,-3.2321,-3.1898,-3.2596,-3.2599,-3.163,-3.0804,-3.0297,-3.0127,-3.0161,-3.0376,-3.0815,-3.1839,-3.3078,-3.3067,-3.3142,-3.3457,-3.3113,-3.3128,-3.2787,-3.2316,-3.1914,-3.1507,-3.1235,-3.1329,-3.16,-3.1967,-3.2435,-3.2939,-3.3532,-3.4227,-3.5077,-3.5428,-3.5696,-3.5854,-3.5695,-3.5766,-3.5646,-3.5708,-3.5782,-3.571,-3.5505,-3.5633,-3.6007,-3.5893,-3.5835,-3.5595,-3.5469,-3.5392,-3.5239,-3.5292,-3.534,-3.5613,-3.5559,-3.5128,-3.5117,-3.5086,-3.4829,-3.4347,-3.3943,-3.3571,-3.3793,-3.4073,-3.4222,-3.4524,-3.5153,-3.5401,-3.4923,-3.5021,-3.5496,-3.5945,-3.6076,-3.6508,-3.7007,-3.7212,-3.7128,-3.7042,-3.6591,-3.5884,-3.458,-3.3055,-3.2056,-3.1547,-3.1291,-3.1368,-3.1445,-3.1521,-3.1726,-3.1856,-3.2001,-3.2091,-3.237,-3.2639,-3.2672,-3.2737,-3.3011,-3.3183,-3.3165,-3.3086,-3.3068,-3.3117,-3.3165,-3.3357,-3.3512,-3.3707,-3.3865,-3.3901,-3.3892,-3.3808,-3.3415,-3.3133,-3.3353,-3.3772,-3.373,-3.361,-3.3363,-3.3156,-3.2885,-3.1353,-3.1286,-3.1459,-3.1358,-3.0966,-3.0446,-3.0237,-3.0305,-3.0247,-3.0738,-3.16,-3.15,-3.1936,-3.2539,-3.264,-3.304,-3.3107,-3.2674,-3.2332,-3.195,-3.16,-3.1694,-3.1949,-3.2266,-3.2858,-3.3382,-3.3935,-3.4465,-3.5077,-3.5356,-3.5496,-3.5499,-3.5782,-3.6158,-3.5785,-3.5704,-3.5757,-3.5713,-3.5563,-3.5386,-3.5433,-3.5438,-3.5375,-3.533,-3.5256,-3.5187,-3.4934,-3.4828,-3.4839,-3.5079,-3.5472,-3.5174,-3.4877,-3.4839,-3.4659,-3.4348,-3.3964,-3.3786,-3.3893,-3.4413,-3.4238,-3.4301,-3.508,-3.5304,-3.4786,-3.4927,-3.5407,-3.5776,-3.5895,-3.6029,-3.6496,-3.6793,-3.6676,-3.6195,-3.5666,-3.495,-3.3459,-3.2196,-3.1705,-3.123,-3.1269,-3.1308,-3.1385,-3.1462,-3.1576,-3.1763,-3.1819,-3.1875,-3.1966,-3.2197,-3.2335,-3.2437,-3.2621,-3.277,-3.2884,-3.2852,-3.277,-3.2834,-3.2898,-3.3202,-3.3419,-3.3597,-3.3707,-3.3787,-3.3806,-3.3765,-3.3901,-3.3804,-3.4136,-3.4269,-3.4182,-3.3939,-3.3941,-3.377,-3.378,-3.139,-3.1196,-3.0779,-3.0385,-3.0018,-2.9411,-2.8959,-2.8882,-2.9069,-2.9706,-3.0559,-3.0446,-3.1005,-3.3013,-3.2841,-3.304,-3.3323,-3.2997,-3.2624,-3.2229,-3.2074,-3.2196,-3.2382,-3.2634,-3.3459,-3.382,-3.4134,-3.4843,-3.4811,-3.504,-3.5531,-3.5957,-3.563,-3.5751,-3.5654,-3.5629,-3.5699,-3.5669,-3.5562,-3.5393,-3.5297,-3.5167,-3.4821,-3.4723,-3.4652,-3.4614,-3.4589,-3.4708,-3.4868,-3.5022,-3.5135,-3.5039,-3.4971,-3.4824,-3.4611,-3.453,-3.4166,-3.3768,-3.392,-3.4616,-3.4545,-3.3728,-3.4532,-3.5377,-3.5155,-3.5229,-3.5744,-3.6381,-3.6444,-3.6232,-3.6527,-3.674,-3.6663,-3.5494,-3.4709,-3.3581,-3.2293,-3.1802,-3.1453,-3.1269,-3.1252,-3.1291,-3.1312,-3.1406,-3.1466,-3.1579,-3.1671,-3.1711,-3.1804,-3.1932,-3.2003,-3.2109,-3.2231,-3.2335,-3.242,-3.2523,-3.2489,-3.2557,-3.2672,-3.2975,-3.322,-3.3415,-3.3541,-3.3532,-3.3616,-3.3643,-3.3831,-3.3813,-3.4,-3.4035,-3.4228,-3.424,-3.4233,-3.4035,-3.3751]}]]